     2              OBSERVATION DATA    GPS                 RINEX VERSION / TYPE
TRRINEXO V2.4.6 UX                                          PGM / RUN BY / DATE
                                                            COMMENT
Original Marker Name: orie                                  COMMENT
Campaign Name: STRC 1995                                    COMMENT
4-Character Station Name: ORIE                              COMMENT
6-Character Antenna Code: TRMSST                            COMMENT
Vertical Measurement Point: TGP                             COMMENT
Vertical Offset to Rinex Ref. Point: 0.0629                 COMMENT
Radial Measurement Point: NGP                               COMMENT
Radial Offset to Rinex Ref. Point: 0.2334                   COMMENT
Antenna Height from Field Measurement: 1.2307 m             COMMENT
Original XYZ: -2299415.3214 -4841132.7199 3446197.7113      COMMENT
New XYZ position is based on association with SCEC monument COMMENT
E1C8Y5G3+0012. Position of that monument is believed to be  COMMENT
valid to within 1 m horizontally; vertical accuracy         COMMENT
should be no worse than 3-times this value.                 COMMENT
                                                            COMMENT
Revised Rinex header created by UCSD GPS archive for        COMMENT
GSAC on 10-Apr-1999 (1999:100) 07:51:32 GMT                 COMMENT
For assistance contact dagnew@ucsd.edu or hjohnson@ucsd.edu COMMENT
                                                            COMMENT
ORIENT 1939 1958                                            MARKER NAME
ORIENT                                                      MARKER NUMBER
W. Gallaher UNAVCO                                          OBSERVER / AGENCY
1051 TRIMBLE 4000 SST 4.81                                  REC # / TYPE / VERS
271 TR 4000SST L1/L2 GEO                                    ANT # / TYPE
 -2299394.0000 -4841114.0000  3446187.0000                  APPROX POSITION XYZ
        1.1455        0.0000        0.0000                  ANTENNA: DELTA H/E/N
     1     2     0                                          WAVELENGTH FACT L1/2
     3    C1    L1    L2                                    # / TYPES OF OBSERV
    30                                                      INTERVAL
  1995     2     7    16     3    0.000000                  TIME OF FIRST OBS
  1995     2     7    23    59   60.000000                  TIME OF LAST OBS
     0                                                      # OF SATELLITES
                                                            END OF HEADER
 95  2  7 16  3  0.0000000  0  8 15  1 14 21 20 22 25 29
  20953610.453          -0.55817        -0.08117
  23294924.602          -0.70716        -0.35415
  22660477.312          -0.38016        -0.25216
  23732246.719          -0.96015        -0.28113
  24470787.055          -0.81714        -0.13114
  24072583.680          -0.94515
  20614091.812          -0.40617        -0.02818
  24056758.680          -0.93815        -0.11114
 95  2  7 16  3 30.0000000  0  8 15  1 14 21 20 22 25 29
  20950566.078      -16014.316 7    -12478.337 7
  23301851.477       36399.632 6     28363.523 6
  22637965.883     -118300.235 6    -92181.927 6
  23743107.586       57089.425 5     44485.658 2
  24468374.398      -12679.511 4     -9879.664 3
  24048710.898     -125441.862 5        -0.15611
  20611996.891      -10993.556 7     -8566.107 8
  24037796.680      -99665.458 5    -77660.735 4
 95  2  7 16  4  0.0000000  0  8 15  1 14 21 20 22 25 29
  20947600.266      -31605.408 7    -24627.261 7
  23308741.516       72607.000 6     56577.032 5
  22615434.984     -236696.153 6   -184438.464 6
  23753981.375      114217.940 5     89001.327 1
  24466023.031      -25047.771 4    -19517.299 3
  24024801.812     -251097.416 5
  20609960.680      -21689.137 7    -16900.320 8
  24018812.750     -199420.017 5   -155391.511 4
 95  2  7 16  4 29.9990000  0  8 15  1 14 21 20 22 25 29
  20944723.683      -46707.498 7    -36395.150 7
  23315606.042      108678.844 6     84684.919 5
  22592901.229     -355113.247 6   -276711.518 6
  23764867.675      171437.436 5    133587.808 2
  24463739.526      -37042.765 4    -28864.091 2
  24000862.331     -376890.279 5        -0.27611
  20607994.940      -32026.133 7    -24955.134 8
  23999830.808     -299183.223 5   -233129.069 3
 95  2  7 16  4 59.9990000  0  8 15  1 14 21 20 22 25 29
  20941948.917      -61281.069 7    -47751.177 7
  23322455.511      144667.866 6    112728.306 5
  22570369.401     -473518.798 6   -368975.555 6
  23775784.175      228797.463 5    178283.839 2
  24461539.315      -48602.300 4    -37871.518 4
  23976910.276     -502768.930 5    -98087.418 1
  20606104.847      -41953.722 7    -32690.904 8
  23980854.065     -398920.771 5   -310846.584 3
 95  2  7 16  5 29.9990000  0  8 15  1 14 21 20 22 25 29
  20939282.769      -75302.652 7    -58677.099 7
  23329293.487      180613.721 6    140738.025 5
  22547844.769     -591886.418 6   -461210.047 6
  23786733.190      286335.772 5    223118.788 2
  24459427.808      -59680.391 4    -46503.815 4
  23952942.331     -628710.893 5   -196223.867 1
  20604301.440      -51438.506 7    -40081.646 8
  23961879.308     -498615.044 5   -388530.415 5
 95  2  7 16  5 59.9990000  0  8 15  1 14 21 20 22 25 29
  20936722.347      -88763.973 7    -69166.459 7
  23336129.995      216537.043 6    168730.177 5
  22525328.526     -710213.626 6   -553413.058 6
  23797719.026      344068.634 5    268105.342 2
  24457413.847      -70269.086 4    -54754.768 4
  23928963.979     -754709.450 5   -294404.382 2
  20602584.026      -60459.084 7    -47110.674 8
  23942915.315     -598264.140 5   -466179.058 4
 95  2  7 16  6 29.9990000  0  8 15  1 14 21 20 22 25 29
  20934269.222     -101658.173 7    -79213.912 7
  23342965.222      252453.819 6    196717.255 6
  22502818.394     -828504.900 6   -645588.060 6
  23808744.323      402006.521 5    313251.634 2
  24455494.831      -80364.348 5    -62621.219 5
  23904983.253     -880751.203 5   -392618.639 2
  20600955.503      -69018.648 7    -53780.467 8
  23923961.769     -697863.909 5   -543789.231 3
 95  2  7 16  6 59.9990000  0  8 15  1 14 21 20 22 25 29
  20931920.519     -113976.357 7    -88812.507 7
  23349804.792      288387.026 6    224717.114 6
  22480315.784     -946762.632 6   -737736.929 6
  23819814.487      460173.754 5    358576.667 3
  24453672.667      -89951.911 5    -70092.058 3
  23880985.120    -1006835.406 4   -490865.892 3
  20599419.120      -77104.180 7    -60080.882 9
  23905020.073     -797412.278 5   -621359.354 2
 95  2  7 16  7 29.9990000  0  8 15  1 14 21 20 22 25 29
  20929689.378     -125700.226 7    -97948.017 7
  23356646.948      324347.680 6    252738.352 6
  22457822.206    -1064963.727 6   -829841.676 6
  23830925.120      518573.638 5    404082.957 3
  24451941.472      -99025.118 4    -77162.138 5
  23856988.409    -1132949.130 3   -589136.157 1
  20597972.831      -84702.680 7    -66001.797 9
  23886085.714     -896888.955 5   -698873.647 3
 95  2  7 16  7 59.9990000  0  8 15  1 14 21 20 22 25 29
  20927573.292     -136843.289 7   -106630.941 7
  23363490.644      360306.183 6    280757.924 6
  22435337.269    -1183112.070 6   -921905.307 6
  23842076.089      577167.323 5    449740.270 3
  24450307.550     -107614.950 5    -83855.546 4
  23832985.042    -1259094.301 4   -687430.920 3
  20596611.675      -91839.980 7    -71563.331 9
  23867170.792     -996301.430 5   -776337.878 2
 95  2  7 16  8 29.9990000  0  8 15  1 14 21 20 22 25 29
  20925558.073     -147410.422 7   -114865.090 7
  23370330.440      396251.230 6    308767.018 6
  22412867.722    -1301197.554 6  -1013919.965 6
  23853256.651      635927.455 5    495527.261 3
  24448765.909     -115734.390 4    -90182.415 5
  23808969.417    -1385273.824 3   -785752.515 1
  20595343.245      -98524.433 7    -76772.002 9
  23848270.300    -1095640.546 5   -853744.979 4
 95  2  7 16  8 59.9990000  0  8 15  1 14 21 20 22 25 29
  20923661.120     -157405.588 7   -122653.552 7
  23377163.565      432166.548 6    336752.916 6
  22390412.378    -1419202.026 6  -1105871.490 6
  23864467.714      694846.511 5    541438.102 2
  24447308.948     -123378.020 4    -96138.528 5
  23784957.472    -1511490.589 4   -884103.073 2
  20594154.909     -104751.776 7    -81624.482 9
  23829379.753    -1194909.635 5   -931097.517 2
 95  2  7 16  9 29.9990000  0  8 15  1 14 21 20 22 25 29
  20921865.729     -166831.384 7   -129998.346 7
  23383988.276      468036.838 6    364703.739 6
  22367976.925    -1537103.789 6  -1197742.984 6
  23875709.464      753910.799 5    587462.118 4
  24445944.862     -130552.474 4   -101729.057 5
  23760933.347    -1637733.564 5   -982474.106 2
  20593055.987     -110534.883 7    -86130.803 9
  23810497.440    -1294101.868 5  -1008390.151 4
 95  2  7 16  9 59.9990000  0  8 15  1 14 21 20 22 25 29
  20920179.034     -175680.383 7   -136893.695 7
  23390807.222      503866.822 6    392623.174 6
  22345562.394    -1654890.678 6  -1289524.960 6
  23886981.808      813142.187 4    633616.313 3
  24444664.792     -137245.750 4   -106944.647 5
  23736906.909    -1763983.593 5  -1080850.649 3
  20592046.097     -115860.163 7    -90280.377 9
  23791642.933    -1393204.103 5  -1085612.671 5
 95  2  7 16 10 29.9990000  0  8 15  1 14 21 20 22 25 29
  20918608.878     -183940.270 7   -143329.987 7
  23397622.144      539680.501 6    420529.900 5
  22323172.862    -1772552.420 6  -1381209.429 6
  23898290.667      872576.220 4    679928.417 3
  24443491.870     -143434.986 4   -111767.481 5
  23712886.870    -1890222.116 5  -1179218.195 4
  20591120.089     -120712.604 7    -94061.510 9
  23772805.409    -1492208.517 5  -1162758.943 4
 95  2  7 16 10 59.9990000  0  8 15  1 14 21 20 22 25 29
  20917145.050     -191641.789 7   -149331.192 7
  23404427.925      575439.163 6    448393.740 5
  22300799.761    -1890125.929 6  -1472825.149 6
  23909639.886      932199.704 4    726388.132 4
  24442403.550     -149143.218 4   -116215.498 5
  23688861.620    -2016465.782 5  -1277589.779 4
  20590276.776     -125134.569 7    -97507.199 9
  23753976.604    -1591148.497 5  -1239855.035 4
 95  2  7 16 11 29.9990000  0  8 15  1 14 21 20 22 25 29
  20915790.159     -198765.953 7   -154882.506 7
  23411228.487      611168.266 6    476234.570 5
  22278443.722    -2007602.861 6  -1564365.597 6
  23921022.190      992032.960 4    773011.319 2
  24441413.058     -154358.102 4   -120279.076 5
  23664841.698    -2142688.419 5  -1375944.987 4
  20589522.901     -129103.191 7   -100599.633 9
  23735165.378    -1690000.103 5  -1316882.246 4
 95  2  7 16 11 59.9990000  0  7 15  1 14 21 22 25 29
  20914543.175     -205319.303 7   -159989.039 7
  23418021.753      646874.977 6    504057.930 5
  22256104.495    -2124995.359 6  -1655840.264 6
  23932451.808     1052082.875 4    819803.349 2
  23640825.870    -2268906.447 5  -1474296.596 4
  20588853.925     -132610.682 7   -103332.738 9
  23716368.011    -1788777.942 5  -1393851.990 3
 95  2  7 16 12 29.9990000  0  7 15  1 14 21 22 25 29
  20913404.526     -211297.645 7   -164647.509 7
  23424814.800      682568.593 6    531871.093 5
  22233782.823    -2242295.032 6  -1747242.594 6
  23943919.386     1112347.410 4    866762.594 2
  23616807.433    -2395122.037 5  -1572646.300 5
  20588278.659     -135649.939 7   -105700.998 9
  23697588.050    -1887478.668 5  -1470761.640 3
 95  2  7 16 12 59.9990000  0  7 15  1 14 21 22 25 29
  20912372.276     -216706.278 7   -168862.045 7
  23431604.433      718243.504 6    559669.688 5
  22211479.925    -2359498.089 6  -1838569.645 6
  23955425.370     1172811.053 4    913876.988 2
  23592785.495    -2521342.143 5  -1670999.548 2
  20587788.409     -138223.066 7   -107706.034 9
  23678823.229    -1986097.570 5  -1547607.518 3
 95  2  7 16 13 29.9990000  0  7 15  1 14 21 22 25 29
  20911447.979     -221558.189 7   -172642.770 7
  23438388.120      753900.467 6    587454.297 5
  22189191.894    -2476621.766 6  -1929834.841 6
  23966964.292     1233449.876 3    961127.857 2
  23568763.315    -2647580.955 5  -1769367.403 2
  20587392.198     -140318.779 7   -109339.061 9
  23660065.128    -2084657.473 5  -1624407.434 3
 95  2  7 16 13 59.9990000  0  7 15  1 14 21 22 25 29
  20910636.433     -225845.705 7   -175983.721 7
  23445171.925      789553.826 5    615236.080 5
  22166921.339    -2593653.500 6  -2021028.395 6
  23978538.487     1294266.175 4   1008517.045 2
  23544738.862    -2773822.221 5  -1867737.125 3
  20587080.073     -141932.089 7   -110596.196 9
  23641322.292    -2183160.574 5  -1701163.094 4
 95  2  7 16 14 29.9990000  0  7 15  1 14 21 22 25 29
  20909928.565     -229565.925 7   -178882.622 7
  23451957.550      825204.427 5    643015.709 5
  22144667.675    -2710597.682 6  -2112153.721 6
  23990142.753     1355248.571 4   1056035.689 2
  23520722.526    -2900036.694 5  -1966086.002 4
  20586861.269     -143081.738 7   -111492.028 9
  23622589.917    -2281602.163 5  -1777870.813 4
 95  2  7 16 14 59.9990000  0  7 15  1 14 21 22 25 29
  20909323.339     -232725.798 7   -181344.877 7
  23458741.581      860845.869 5    670788.236 5
  22122426.745    -2827474.758 6  -2203226.763 7
  24001775.448     1416387.859 5   1103676.545 1
  23496712.511    -3026224.312 5  -2064413.936 3
  20586729.831     -143790.828 7   -112044.577 9
  23603866.683    -2379990.705 5  -1854537.202 4
 95  2  7 16 15 29.9990000  0  7 15  1 14 21 22 25 29
  20908837.769     -235311.878 7   -183360.028 7
  23465520.222      896483.644 5    698557.879 5
  22100201.823    -2944268.536 6  -2294234.893 7
  24013442.206     1477700.642 5   1151452.646 1
  23472704.503    -3152373.201 4  -2162711.641 2
  20586674.854     -144058.375 7
  23585153.644    -2478317.211 5  -1931155.255 5
 95  2  7 16 15 59.9990000  0  7 15  1 14 21 22 25 29
  20908444.792     -237340.878 7   -184941.083 7
  23472297.456      932100.603 5    726311.278 5
  22077993.503    -3060977.202 6  -2385176.706 6
  24025141.323     1539175.711 4   1199355.146 1
  23448705.542    -3278496.724 4  -2260989.613 1
  20586704.581     -143925.316 7
  23566455.198    -2576579.249 5  -2007723.046 4
 95  2  7 16 16 29.9990000  0  7 15  1 14 21 22 25 29
  20908162.659     -238824.345 7   -186097.056 7
  23479068.276      967676.621 5    754032.788 5
  22055798.972    -3177603.493 6  -2476054.332 6
  24036871.831     1600812.254 3
  23424706.636    -3404611.447 5  -2359260.699 2
  20586805.964     -143397.970 8   -111738.462 9
  23547771.815    -2674772.140 5  -2084236.982 4
 95  2  7 16 16 59.9990000  0  7 15  1 14 21 22 25 29
  20907992.284     -239750.829 7   -186819.009 7
  23485830.151     1003211.377 5    781722.184 5
  22033626.019    -3294116.013 6  -2566843.302 6
  24048635.526     1662629.083 4
  23400708.206    -3530712.621 5  -2457521.261 2
  20586985.050     -142437.664 8   -110990.183 9
  23529101.269    -2772882.677 5  -2160686.733 5
 95  2  7 16 17 29.9990000  0  7 15  1 14 21 22 25 29
  20907924.823     -240115.676 7
  23492586.784     1038716.200 5    809388.223 5
  22011485.269    -3410483.973 6  -2657519.624 6
  24060432.714     1724623.157 5        -0.31111
  23376718.948    -3656782.335 5  -2555757.338 3
  20587255.050     -141020.357 8   -109885.794 9
  23510449.675    -2870901.690 5  -2237065.176 4
 95  2  7 16 17 59.9990000  0  7 15  1 14 21 22 25 29
  20907958.886     -239931.607 7
  23499335.261     1074188.656 5    837029.040 5
  21989363.651    -3526721.801 6  -2748094.545 6
  24072263.495     1786782.575 4     48435.473 1
  23352737.144    -3782810.216 5  -2653960.774 2
  20587612.690     -139142.500 8   -108422.533 9
  23491810.339    -2968838.353 5  -2313379.418 4
 95  2  7 16 18 29.9990000  0  7 15  1 14 21 22 25 29
  20908097.136     -239187.253 7   -186379.931 7
  23506083.870     1109633.720 5    864648.513 5
  21967272.112    -3642816.056 6  -2838557.595 6
  24084122.784     1849117.624 4     97008.074 1
  23328767.026    -3908771.645 5  -2752112.456 1
  20588059.925     -136794.667 8   -106593.057 9
  23473190.956    -3066686.182 5  -2389624.473 4
 95  2  7 16 18 59.9990000  0  7 15  1 14 21 22 25 29
  20908344.245     -237883.399 7   -185363.962 7
  23512821.487     1145051.344 5    892246.622 5
  21945209.854    -3758759.962 6  -2928903.488 6
  24096018.479     1911624.767 3    145714.752 1
  23304814.628    -4034648.679 5  -2850198.384 4
  20588591.472     -133992.699 8   -104409.715 9
  23454588.479    -3164450.633 5  -2465804.535 5
 95  2  7 16 19 29.9990000  0  7 15  1 14 21 22 25 29
  20908703.558     -236017.174 7   -183909.779 7
  23519562.347     1180459.250 5    919837.160 5
  21923172.323    -3874558.209 6  -3019135.880 6
  24107946.948     1974320.228 3    194568.223 2
  23280875.831    -4160437.847 5  -2948215.814 4
  20589207.409     -130747.583 8   -101881.056 9
  23436001.714    -3262128.297 5  -2541916.977 4
 95  2  7 16 19 59.9990000  0  7 15  1 14 21 22 25 29
  20909162.019     -233600.913 7   -182027.010 7
  23526294.839     1215840.824 5    947407.155 5
  21901159.050    -3990241.175 6  -3109278.444 6
  24119914.417     2037217.566 3    243578.964 1
  23256953.112    -4286152.943 5  -3046175.531 4
  20589906.425     -127081.142 8    -99024.093 9
  23417424.753    -3359739.460 5  -2617977.607 3
 95  2  7 16 20 29.9990000  0  7 15  1 14 21 22 25 29
  20909723.128     -230628.674 7   -179711.004 7
  23533020.081     1251198.750 5    974958.747 5
  21879169.011    -4105798.479 6  -3199323.088 6
  24131925.472     2100315.378 3    292745.902 2
  23233044.003    -4411797.509 5  -3144080.314 4
  20590689.495     -122987.018 8    -95833.874 9
  23398863.229    -3457284.394 5  -2693986.632 5
 95  2  7 16 20 59.9990000  0  7 15  1 14 21 22 25 29
  20910394.542     -227099.666 7   -176961.145 7
  23539750.120     1286549.607 5   1002504.817 5
  21857202.136    -4221234.812 6  -3289273.464 6
  24143969.065     2163618.469 3    342072.813 2
  23209146.917    -4537381.910 5  -3241938.230 5
  20591550.034     -118447.983 8    -92296.965 9
  23380312.183    -3554770.197 5  -2769949.563 4
 95  2  7 16 21 29.9990000  0  7 15  1 14 21 22 25 29
  20911176.808     -223011.846 7   -173775.855 7
  23546476.167     1321903.293 5   1030053.077 5
  21835257.776    -4336558.489 6  -3379136.069 7
  24156054.847     2227126.124 3    391559.164 2
  23185256.347    -4662914.063 5  -3339755.414 5
  20592500.784     -113456.819 8    -88407.746 9
  23361774.394    -3652187.569 5  -2845859.200 4
 95  2  7 16 21 59.9990000  0  7 15  1 14 21 22 25 29
  20912057.472     -218364.324 7   -170154.430 7
  23553203.831     1357256.721 5   1057601.174 5
  21813335.995    -4451754.020 6  -3468898.805 7
  24168176.440     2290815.097 2    441186.800 1
  23161380.479    -4788388.318 5  -3437527.505 4
  20593536.292     -108018.983 8    -84170.471 9
  23343249.245    -3749525.350 5  -2921706.798 3
 95  2  7 16 22 29.9990000  0  7 15  1 14 21 22 25 29
  20913051.683     -213154.263 7   -166094.672 7
  23559932.159     1392620.614 5   1085157.410 5
  21791445.034    -4566787.732 6  -3558535.454 7
  24180329.081     2354668.423 2    490942.441 2
  23137516.620    -4913798.329 5  -3535249.534 4
  20594655.706     -102137.532 8    -79587.524 9
  23324745.870    -3846774.213 5  -2997485.098 5
 95  2  7 16 22 59.9990000  0  7 15  1 14 21 22 25 29
  20914146.276     -207406.412 7   -161615.855 7
  23566661.565     1427974.563 5   1112705.874 5
  21769583.409    -4681679.267 7  -3648061.317 7
  24192511.604     2418678.000 3    540819.841 2
  23113660.948    -5039155.084 5  -3632930.070 4
  20595849.972      -95849.049 8    -74687.418 9
  23306252.534    -3943954.024 5  -3073209.610 5
 95  2  7 16 23 29.9990000  0  7 15  1 14 21 22 25 29
  20915340.433     -201106.272 7   -156706.684 7
  23573395.042     1463329.416 5   1140255.049 5
  21747752.425    -4796405.730 7  -3737458.546 7
  24204724.659     2482857.225 3    590829.438 2
  23089819.769    -5164430.267 5  -3730547.044 4
  20597128.808      -89145.128 8    -69463.584 9
  23287776.847    -4041048.877 5  -3148867.920 5
 95  2  7 16 23 59.9990000  0  7 15  1 14 21 22 25 29
  20916644.987     -194250.665 7   -151364.680 7
  23580120.964     1498698.730 5   1167815.497 5
  21725955.925    -4910942.166 7  -3826707.707 7
  24216965.198     2547205.073 3    640970.407 2
  23066000.565    -5289608.001 5  -3828088.083 5
  20598486.706      -82011.306 8    -63904.763 9
  23269315.362    -4138068.422 5  -3224467.541 5
 95  2  7 16 24 29.9990000  0  7 15  1 14 21 22 25 29
  20918056.558     -186840.528 7
  23586854.761     1534092.051 5   1195394.659 5
  21704197.151    -5025291.929 7  -3915811.407 7
  24229244.339     2611731.634 3    691250.635 1
  23042202.167    -5414674.225 5  -3925542.239 4
  20599927.706      -74429.863 8
  23250866.089    -4235013.002 5  -3300008.753 5
 95  2  7 16 24 59.9990000  0  7 15  1 14 21 22 25 29
  20919572.644     -178875.778 7
  23593595.620     1569503.607 5   1222988.026 5
  21682468.081    -5139474.051 7  -4004784.477 7
  24241556.261     2676437.615 3    741670.733 1
  23018423.120    -5539623.239 5  -4022905.073 4
  20601456.003      -66395.770 8
  23232433.011    -4331871.604 5  -3375482.963 5
 95  2  7 16 25 29.9990000  0  6 15  1 14 22 25 29
  20921194.354     -170349.211 7
  23600336.370     1604944.828 5   1250604.515 5
  21660774.112    -5253473.955 7  -4093615.559 7
  22994671.394    -5664454.672 5  -4120176.279 4
  20603074.394      -57894.276 7
  23214023.519    -4428622.798 5  -3450873.481 4
 95  2  7 16 25 59.9990000  0  6 15  1 14 22 25 29
  20922920.026     -161276.845 7
  23607081.136     1640391.349 5   1278225.126 5
  21639112.222    -5367311.384 7  -4182320.037 7
  22970936.151    -5789176.933 5  -4217362.415 4
  20604778.144      -48948.756 7
  23195633.948    -4525262.416 5  -3526177.065 5
 95  2  7 16 26 29.9990000  0  6 15  1 14 22 25 29
  20924749.198     -151659.000 7   -118176.995 7
  23613824.972     1675824.631 5   1305835.426 6
  21617477.362    -5481000.692 7  -4270909.100 7
  22947223.394    -5913782.950 5  -4314457.953 4
  20606562.386      -39571.623 7    -30834.893 8
  23177267.315    -4621780.150 5  -3601385.672 4
 95  2  7 16 26 59.9980000  0  6 15  1 14 22 25 29
  20926688.061     -141491.368 7   -110254.189 7
  23620564.459     1711237.327 5   1333429.668 5
  21595874.225    -5594530.162 7  -4359373.616 7
  22923537.225    -6038266.017 5  -4411457.694 5
  20608424.029      -29776.355 7    -23202.233 8
  23158922.811    -4718175.386 5  -3676498.835 5
 95  2  7 16 27 29.9980000  0  6 15  1 14 22 25 29
  20928729.334     -130772.960 7   -101902.206 7
  23627297.654     1746633.534 5   1361011.098 5
  21574302.506    -5707888.366 7  -4447704.670 7
  22899877.014    -6162613.018 5  -4508351.406 5
  20610368.904      -19554.667 7    -15237.288 8
  23140598.295    -4814465.375 5  -3751529.986 5
 95  2  7 16 27 59.9980000  0  6 15  1 14 22 25 29
  20930870.264     -119497.763 7    -93116.364 7
  23634035.271     1782018.793 5   1388583.975 5
  21552766.084    -5821064.249 7  -4535893.657 7
  22876245.311    -6286787.979 5  -4605111.051 5
  20612400.436       -8898.886 7     -6934.097 8
  23122295.709    -4910654.385 5  -3826482.447 5
 95  2  7 16 28 29.9980000  0  6 15  1 14 22 25 29
  20933126.365     -107669.116 7    -83899.262 7
  23640768.607     1817411.463 5   1416162.632 5
  21531267.162    -5934041.473 7  -4623927.850 7
  22852649.029    -6410800.080 5  -4701743.768 4
  20614507.709        2195.958 7      1711.224 9
  23104005.904    -5006755.681 5  -3901366.558 5
 95  2  7 16 28 59.9980000  0  6 15  1 14 22 25 29
  20935475.904      -95290.278 7    -74253.440 7
  23647513.834     1852841.267 5   1443770.222 5
  21509809.717    -6046801.680 7  -4711792.938 7
  22829075.115    -6534653.744 5  -4798253.034 5
  20616706.420       13738.646 7     10705.513 8
  23085734.693    -5102775.078 5  -3976186.839 5
 95  2  7 16 29 29.9980000  0  6 15  1 14 22 25 29
  20937943.725      -82356.429 7    -64175.141 7
  23654263.498     1888323.099 5   1471418.356 5
  21488393.803    -6159339.602 7  -4799484.816 7
  22805539.084    -6658346.622 5  -4894637.016 5
  20618989.279       25747.852 7     20063.318 9
  23067483.271    -5198699.586 5  -4050933.190 5
 95  2  7 16 29 59.9980000  0  6 15  1 14 22 25 29
  20940507.373      -68868.288 6    -53664.926 7
  23661025.740     1923861.081 5   1499110.232 5
  21467021.428    -6271653.616 7  -4887002.218 7
  22782029.107    -6781900.579 5  -4990912.745 5
  20621361.037       38209.097 7     29773.367 9
  23049248.982    -5294521.335 5  -4125599.482 5
 95  2  7 16 30 29.9980000  0  6 15  1 14 22 25 29
  20943177.928      -54815.213 7    -42714.507 7
  23667802.428     1959455.611 5   1526846.188 5
  21445695.529    -6383725.325 7  -4974330.822 7
  22758542.451    -6905314.106 5  -5087079.017 5
  20623820.037       51120.158 7     39833.920 9
  23031034.084    -5390225.561 5  -4200174.175 5
 95  2  7 16 30 59.9980000  0  6 15  1 14 22 25 29
  20945959.904      -40209.224 7    -31333.249 7
  23674574.842     1995072.631 5   1554599.643 4
  21424411.076    -6495576.831 7  -5061487.834 7
  22735088.787    -7028570.049 5  -5183122.532 5
  20626359.818       64466.995 7     50234.037 9
  23012845.240    -5485822.196 5  -4274665.043 5
 95  2  7 16 31 29.9980000  0  6 15  1 14 22 25 29
  20948846.936      -25049.862 7    -19520.782 7
  23681351.787     2030680.244 5   1582345.797 4
  21403164.779    -6607217.003 7  -5148480.169 7
  22711669.217    -7151643.346 5  -5279023.719 5
  20628979.998       78236.879 7     60963.801 9
  22994674.381    -5581302.197 5  -4349065.015 5
 95  2  7 16 31 59.9980000  0  6 15  1 14 22 25 29
  20951835.092       -9340.952 7     -7280.097 7
  23688126.990     2066282.924 5   1610088.096 3
  21381962.506    -6718639.095 7  -5235302.585 7
  22688284.498    -7274515.982 5  -5374768.562 5
  20631679.131       92426.021 8     72020.253 9
  22976529.959    -5676660.339 5  -4423370.054 5
 95  2  7 16 32 29.9980000  0  6 15  1 14 22 25 29
  20954929.748        6925.934 7      5395.369 7
  23694909.170     2101907.359 5   1637847.359 4
  21360802.256    -6829839.430 7  -5321952.196 7
  22664949.732    -7397159.543 5  -5470334.908 5
  20634465.225      107061.241 8     83424.308 9
  22958409.936    -5771884.233 5  -4497570.462 5
 95  2  7 16 32 59.9980000  0  6 15  1 14 22 25 29
  20958130.654       23752.385 7     18506.854 7
  23701690.521     2137571.915 5   1665637.861 3
  21339684.834    -6940814.121 7  -5408425.978 7
  22641651.514    -7519571.640 5  -5565720.901 5
  20637337.389      122153.418 8     95184.433 9
  22940315.889    -5866965.741 5  -4571659.935 5
 95  2  7 16 33 29.9980000  0  6 15  1 14 22 25 29
  20961435.240       41120.996 7     32040.807 7
  23708482.693     2173277.228 5   1693460.118 3
  21318609.904    -7051559.693 7  -5494721.222 7
  22618398.936    -7641790.221 5  -5660956.094 5
  20640293.498      137688.445 7    107289.635 9
  22922245.459    -5961924.595 5  -4645653.822 5
 95  2  7 16 33 59.9980000  0  6 15  1 14 22 25 29
  20964849.967       59041.919 7     46005.136 7
  23715296.584     2209057.024 5   1721340.455 2
  21297584.404    -7162053.942 7  -5580820.631 7
  22595171.967    -7763828.324 5  -5756050.673 5
  20643334.732      153681.809 7    119751.985 9
  22904199.139    -6056764.260 5  -4719554.836 5
 95  2  7 16 34 29.9980000  0  6 15  1 14 22 25 29
  20968363.889       77510.119 7     60395.911 7
  23722115.443     2244885.807 5   1749258.938 3
  21276605.545    -7272292.429 7  -5666720.746 7
  22571983.396    -7885693.389 5  -5851010.415 4
  20646461.506      170110.523 8    132553.569 9
  22886171.014    -6151504.384 5  -4793378.287 5
 95  2  7 16 34 59.9980000  0  6 15  1 14 22 25 29
  20971977.896       96523.855 7     75211.786 7
  23728935.467     2280744.557 5   1777200.804 3
  21255680.498    -7382259.935 7  -5752409.705 7
  22548826.326    -8007373.601 5  -5945826.126 5
  20649669.553      186959.155 7    145682.364 9
  22868161.936    -6246147.219 6  -4867125.926 5
 95  2  7 16 35 29.9980000  0  6 15  1 14 22 25 29
  20975704.381      116080.426 7     90450.639 7
  23735764.654     2316617.347 5   1805153.578 4
  21234803.146    -7491962.638 7  -5837892.327 7
  22525706.951    -8128863.630 5  -6040493.631 5
  20652952.365      204226.498 8    159137.422 9
  22850169.412    -6340696.561 6  -4940800.719 5
 95  2  7 16 35 59.9980000  0  6 15  1 14 22 25 29
  20979524.959      136175.276 7    106108.935 7
  23742591.404     2352494.475 5   1833109.715 2
  21213976.764    -7601407.992 7  -5923174.410 7
  22502631.514    -8250143.487 5  -6134997.365 5
  20656317.912      221899.604 8    172908.663 9
  22832195.092    -6435142.622 6  -5014395.029 5
 95  2  7 16 36 29.9980000  0  6 15  1 14 22 25 29
  20983451.389      156806.924 7    122185.514 7
  23749421.693     2388374.419 5   1861068.070 3
  21193200.717    -7710598.903 7  -6008258.233 8
  22479592.889    -8371192.721 5  -6229321.394 5
  20659759.326      239986.870 7    187002.620 9
  22814243.732    -6529465.230 6  -5087893.154 5
 95  2  7 16 36 59.9980000  0  6 15  1 14 22 25 29
  20987478.881      177953.767 7    138663.531 7
  23756251.021     2424255.021 5   1889026.945 3
  21172462.006    -7819569.122 7  -6093170.081 8
  22456600.318    -8492029.329 5  -6323479.732 5
  20663277.600      258484.042 7    201415.987 9
  22796318.779    -6623679.203 6  -5161306.634 5
 95  2  7 16 37 29.9980000  0  6 15  1 14 22 25 29
  20991601.115      199625.820 7    155550.822 7
  23763082.592     2460156.372 5   1917001.966 3
  21151768.912    -7928312.117 7  -6177904.878 8
  22433646.467    -8612653.465 5  -6417472.533 5
  20666879.717      277406.949 7    216161.095 9
  22778411.397    -6717769.977 6  -5234624.098 5
 95  2  7 16 37 59.9980000  0  6 15  1 14 22 25 29
  20995820.553      221820.497 6    172845.344 7
  23769920.428     2496092.527 5   1945004.128 3
  21131120.545    -8036820.577 7  -6262456.922 8
  22410735.326    -8733054.267 6  -6511291.296 5
  20670562.139      296757.592 7    231239.504 9
  22760532.678    -6811732.580 6  -5307841.691 5
 95  2  7 16 38 29.9980000  0  6 15  1 14 22 25 29
  21000144.576      244538.777 6    190547.867 7
  23776763.264     2532073.341 5   1973041.053 5
  21110517.982    -8145095.991 7  -6346827.360 8
  22387864.365    -8853236.740 6  -6604939.919 5
  20674328.943      316542.513 7    246656.313 9
  22742674.240    -6905567.444 6  -5380959.748 5
 95  2  7 16 38 59.9980000  0  6 15  1 14 22 25 29
  21004568.045      267784.807 6    208661.620 7
  23783619.693     2568100.352 5   2001113.997 5
  21089962.865    -8253116.575 7  -6430999.238 8
  22365038.951    -8973191.759 6  -6698411.307 5
  20678173.326      336749.767 7    262402.204 9
  22724843.061    -6999269.342 6  -5453974.196 5
 95  2  7 16 39 29.9980000  0  6 15  1 14 22 25 29
  21009089.115      291546.325 6    227177.049 7
  23790480.279     2604158.772 5   2029211.401 5
  21069455.701    -8360870.676 7  -6514963.467 8
  22342256.045    -9092923.604 6  -6791708.777 5
  20682097.076      357364.355 7    278465.504 9
  22707039.482    -7092840.446 6  -5526886.733 5
 95  2  7 16 39 59.9980000  0  6 15  1 14 22 25 29
  21013709.959      315816.973 6    246089.207 7
  23797347.522     2640245.318 5   2057330.732 5
  21049001.834    -8468359.220 7  -6598720.764 8
  22319514.271    -9212423.419 6  -6884825.435 5
  20686094.818      378378.067 7    294839.810 9
  22689257.287    -7186288.985 6  -5599703.762 5
 95  2  7 16 40 29.9980000  0  6 15  1 14 22 25 29
  21018430.029      340600.666 6    265401.150 7
  23804227.521     2676370.055 5   2085479.821 5
  21028600.607    -8575563.333 7  -6682256.429 8
  22296819.561    -9331681.862 5  -6977754.022 6
  20690166.982      399787.082 7    311522.143 9
  22671497.295    -7279618.776 6  -5672428.256 5
 95  2  7 16 40 59.9980000  0  6 15  1 14 22 25 29
  21023242.795      365898.231 6    285113.500 7
  23811106.857     2712536.791 5   2113661.625 5
  21008260.568    -8682461.993 7  -6765554.080 8
  22274171.178    -9450690.842 5  -7070488.216 5
  20694318.365      421601.694 7    328520.522 9
  22653759.389    -7372834.081 6  -5745063.538 5
 95  2  7 16 41 29.9980000  0  6 15  1 14 22 25 29
  21028147.576      391697.113 6    305216.490 7
  23817992.662     2748745.349 5   2141876.023 4
  20987972.600    -8789075.081 7  -6848629.208 8
  22251570.725    -9569454.366 5  -7163031.148 5
  20698548.959      443820.677 7    345834.004 9
  22636036.092    -7465954.301 6  -5817624.718 5
 95  2  7 16 41 59.9980000  0  6 15  1 14 22 25 29
  21033154.951      417991.581 6    325705.655 7
  23824897.037     2784995.879 5   2170123.119 4
  20967735.631    -8895411.674 7  -6931488.889 8
  22229018.584    -9687970.385 6  -7255381.209 6
  20702851.240      466437.991 7    363457.870 9
  22618336.100    -7558989.471 6  -5890119.625 5
 95  2  7 16 42 29.9980000  0  6 15  1 14 22 25 29
  21038252.771      444790.499 6    346587.894 6
  23831801.943     2821291.317 5   2198405.213 3
  20947556.529    -9001457.535 7  -7014122.023 7
  22206515.725    -9806229.945 6  -7347531.438 5
  20707233.100      489462.755 7    381399.229 9
  22600647.146    -7651922.808 6  -5962535.205 5
 95  2  7 16 42 59.9980000  0  6 15  1 14 22 25 29
  21043449.295      472088.296 6    367858.872 6
  23838714.436     2857623.097 5   2226715.622 4
  20927428.389    -9107232.136 7  -7096543.798 8
  22184059.771    -9924239.058 6  -7439486.521 5
  20711690.045      512887.603 7    399652.338 9
  22582986.732    -7744747.569 6  -6034866.172 5
 95  2  7 16 43 29.9980000  0  6 15  1 14 22 25 29
  21048735.803      499883.909 6    389517.764 6
  23845631.365     2893979.768 5   2255045.437 4
  20907349.943    -9212747.022 7  -7178763.190 7
  22161653.818   -10041987.141 5  -7531238.198 5
  20716222.771      536698.487 7    418206.252 9
  22565342.396    -7837459.799 6  -6107109.454 5
 95  2  7 16 43 59.9980000  0  6 15  1 14 22 25 29
  21054123.123      528166.739 6    411556.300 6
  23852553.365     2930341.475 5   2283379.162 4
  20887320.475    -9317999.483 7  -7260778.093 8
  22139295.287   -10159486.751 6  -7622796.266 5
  20720823.084      560889.451 7    437056.341 9
  22547717.521    -7930068.040 6  -6179271.706 5
 95  2  7 16 44 29.9980000  0  6 15  1 14 22 25 29
  21059595.436      556944.392 6    433980.410 7
  23859481.865     2966724.290 4   2311729.332 4
  20867345.061    -9422973.285 7  -7342575.861 8
  22116987.725   -10276717.810 6  -7714145.075 5
  20725499.826      585464.087 7    456205.391 9
  22530117.037    -8022572.749 6  -6251353.280 5
 95  2  7 16 44 59.9980000  0  6 15  1 14 22 25 29
  21065160.686      586204.347 6    456780.337 7
  23866397.631     3003118.706 5   2340088.553 2
  20847419.357    -9527678.360 7  -7424164.232 8
  22094731.748   -10393673.282 6  -7805279.129 6
  20730249.662      610411.451 7    475644.879 9
  22512529.209    -8114985.427 6  -6323363.146 5
 95  2  7 16 45 29.9980000  0  6 15  1 14 22 25 29
  21070821.482      615944.593 6    479954.525 6
  23873329.053     3039510.640 5   2368445.838 2
  20827549.615    -9632098.660 7  -7505530.695 8
  22072529.662   -10510344.705 6  -7896191.859 5
  20735069.904      635740.317 7    495381.645 9
  22494958.748    -8207315.415 6  -6395308.581 5
 95  2  7 16 45 59.9980000  0  6 15  1 14 22 25 29
  21076573.631      646169.048 6    503506.017 6
  23880254.811     3075916.330 5   2396813.832 3
  20807736.162    -9736221.303 7  -7586665.220 8
  22050382.850   -10626721.072 6  -7986874.676 6
  20739964.146      661461.459 7    515424.080 9
  22477409.271    -8299552.646 6  -6467181.728 5
 95  2  7 16 46 29.9980000  0  6 15  1 14 22 25 29
  21082415.834      676869.433 6    527428.360 6
  23887186.373     3112334.928 5   2425191.894 2
  20787975.850    -9840057.296 7  -7667576.384 8
  22028293.092   -10742807.009 6  -8077331.191 6
  20744930.803      687561.727 7    535761.937 8
  22459877.693    -8391684.735 6  -6538972.952 5
 95  2  7 16 46 59.9980000  0  6 15  1 14 22 25 29
  21088345.053      708037.212 6    551714.920 6
  23894115.029     3148749.033 5   2453566.477 4
  20768271.131    -9943611.408 7  -7748267.895 8
  22006250.271   -10858633.102 6  -8167585.224 6
  20749970.217      714044.765 7    556398.056 8
  22442366.982    -8483696.012 6  -6610670.039 5
 95  2  7 16 47 29.9980000  0  6 15  1 14 22 25 29
  21094365.131      739674.284 6    576367.145 7
  23901051.764     3185175.034 5   2481950.285 2
  20748621.311   -10046866.215 7  -7828726.187 8
  21984257.123   -10974213.756 6  -8257648.004 6
  20755082.436      740908.848 8    577331.098 8
  22424880.717    -8575588.458 6  -6682274.530 5
 95  2  7 16 47 59.9980000  0  6 15  1 14 22 25 29
  21100473.811      771770.980 6    601377.517 7
  23907986.850     3221630.172 5   2510356.835 3
  20729028.998   -10149829.004 7  -7908956.927 9
  21962307.256   -11089563.094 6  -8347530.539 6
  20760264.420      768143.425 8    598552.830 8
  22407419.654    -8667354.514 6  -6753780.533 5
 95  2  7 16 48 29.9980000  0  6 15  1 14 22 25 29
  21106674.865      804329.229 6    626747.539 7
  23914926.826     3258120.656 5   2538790.917 1
  20709491.975   -10252490.091 7  -7988952.578 8
  21940400.131   -11204679.866 6  -8437231.847 6
  20765515.920      795742.383 8    620058.496 9
  22389981.865    -8758993.255 6  -6825187.316 5
 95  2  7 16 48 59.9980000  0  6 15  1 14 22 25 29
  21112956.162      837345.681 6    652474.613 6
  23921882.006     3294653.794 5   2567258.232 1
  20690015.646   -10354844.785 7  -8068709.482 9
  21918543.146   -11319538.827 6  -8526732.270 6
  20770837.092      823702.195 8    641845.344 9
  22372563.631    -8850524.010 6  -6896509.965 5
 95  2  7 16 49 29.9980000  0  6 15  1 14 22 25 29
  21119323.084      870826.905 6    678563.846 6
  23928844.100     3331249.782 5   2595774.545 1
  20670596.092   -10456887.174 7  -8148223.033 9
  21896741.521   -11434096.470 6  -8615997.908 6
  20776226.537      852016.232 7    663908.214 8
  22355166.131    -8941955.316 6  -6967755.118 5
 95  2  7 16 49 59.9970000  0  6 15  1 14 22 25 29
  21125787.103      904765.842 6    705009.743 6
  23935818.259     3367896.067 5   2624330.043 1
  20651235.618   -10558627.947 7  -8227501.554 9
  21875004.329   -11548325.057 6  -8705007.135 6
  20781677.157      880674.411 7    686239.247 8
  22337785.696    -9033280.214 6  -7038917.360 5
 95  2  7 16 50 29.9970000  0  6 15  1 14 22 25 29
  21132327.314      939164.689 6    731814.003 7
  23942803.673     3404591.571 5   2652923.861 3
  20631937.071   -10660061.608 7  -8306540.774 8
  21853331.626   -11662218.964 6  -8793755.578 6
  20787197.649      909676.585 7    708838.324 9
  22320420.415    -9124521.414 6  -7110014.382 5
 95  2  7 16 50 59.9970000  0  6 15  1 14 22 25 29
  21138965.017      974015.290 6    758970.271 7
  23949789.290     3441332.686 5   2681553.253 4
  20612691.642   -10761185.106 7  -8385338.302 9
  21831722.603   -11775768.661 6  -8882235.814 6
  20792779.290      939019.545 7    731702.948 9
  22303078.212    -9215682.584 6  -7181049.043 5
 95  2  7 16 51 29.9970000  0  6 15  1 14 22 25 29
  21145678.782     1009312.464 6    786474.523 7
  23956790.157     3478108.424 4   2710209.599 3
  20593508.267   -10861996.430 7  -8463892.578 8
  21810177.759   -11888989.186 6  -8970459.551 6
  20798428.126      968696.607 7    754827.926 9
  22285746.017    -9306749.688 6  -7252010.408 5
 95  2  7 16 51 59.9970000  0  6 15  1 14 22 25 29
  21152478.907     1045060.993 6    814330.480 6
  23963796.540     3514918.515 5   2738892.726 2
  20574388.571   -10962476.176 7  -8542188.486 8
  21788693.845   -12001886.338 6  -9058431.306 6
  20804143.009      998722.879 7    778224.998 9
  22268434.587    -9397705.983 6  -7322885.425 5
 95  2  7 16 52 29.9970000  0  6 15  1 14 22 25 29
  21159371.110     1081251.808 6    842531.076 7
  23970806.306     3551763.366 4   2767602.921 2
  20555329.689   -11062629.514 7  -8620230.047 8
  21767270.470   -12114468.643 6  -9146157.749 6
  20809922.712     1029098.267 7    801894.116 9
  22251147.649    -9488556.545 6  -7393678.061 5
 95  2  7 16 52 59.9970000  0  5 15 14 22 25 29
  21166341.251     1117879.871 6    871072.201 1
  20536330.501   -11162470.334 7  -8698028.078 1
  21745910.095   -12226723.462 6  -9233629.192 1
  20815767.907     1059817.990 7    825831.345 1
  22233884.423    -9579284.211 6  -7464374.825 1
 95  2  7 16 53 29.9970000  0  6 15  1 14 22 25 29
  21173392.837     1154939.510 6
  23984834.853          -0.06014
  20517389.509   -11261997.420 7  -8775581.669 8
  21724609.470   -12338661.772 6
  20821680.048     1090887.684 7
  22216644.064    -9669883.905 6  -7534972.074 5
 95  2  7 16 53 59.9970000  0  6 15  1 14 22 25 29
  21180526.595     1192433.770 6        -0.23216
  23991856.735       36876.028 4        -0.19012
  20498511.649   -11361198.603 7  -8852881.296 8
  21703372.204   -12450277.289 6        -0.22316
  20827661.751     1122321.617 7        -0.36519
  22199424.423    -9760369.576 6  -7605480.392 5
 95  2  7 16 54 29.9970000  0  6 15  1 14 22 25 29
  21187743.157     1230356.244 6     29549.707 6
  23998870.478       73763.313 3     28743.063 2
  20479697.501   -11460075.613 7  -8929928.321 8
  21682194.439   -12561564.792 6    -86717.734 6
  20833711.899     1154120.377 7     24777.865 9
  22182227.509    -9850744.106 6  -7675902.100 6
 95  2  7 16 54 59.9970000  0  6 15  1 14 22 25 29
  21195041.103     1268704.896 6     59431.731 6
  24005892.774      110660.203 3     57493.820 2
  20460945.634   -11558610.073 7  -9006708.421 8
  21661077.274   -12672538.746 6   -173190.904 6
  20839832.649     1186284.781 7     49841.018 9
  22165049.415    -9941012.622 6  -7746241.199 6
 95  2  7 16 55 29.9970000  0  6 15  1 14 22 25 29
  21202419.329     1307476.664 6     89643.467 6
  24012920.759      147580.480 3     86262.780 3
  20442260.751   -11656796.151 7  -9083217.061 8
  21640014.228   -12783215.514 6   -259432.513 6
  20846022.110     1218808.208 7     75183.928 9
  22147889.313   -10031194.359 6  -7816512.669 6
 95  2  7 16 55 59.9970000  0  6 15  1 14 22 25 29
  21209875.759     1346663.117 6    120178.328 6
  24019955.017      184533.996 3    115057.645 4
  20423642.563   -11754639.110 7  -9159458.333 8
  21619007.782   -12893591.763 6   -345439.960 6
  20852275.649     1251671.411 7    100791.602 9
  22130743.618   -10121305.328 6  -7886729.008 5
 95  2  7 16 56 29.9970000  0  6 15  1 14 22 25 29
  21217412.673     1386266.362 6    151037.954 6
  24026996.384                          -0.89014
  20405089.407   -11852138.565 7  -9235431.941 8
  21598062.587   -13003651.778 6   -431200.980 6
  20858592.384     1284861.664 7    126654.119 9
  22113612.626   -10211325.963 6  -7956874.950 5
 95  2  7 16 56 59.9970000  0  6 15  1 14 22 25 29
  21225025.368     1426281.021 6    182218.173 6
  24034042.509       37038.781 4        -0.02113
  20386601.673   -11949303.362 7  -9311144.773 8
  21577180.993   -13113394.709 6   -516714.941 6
  20864967.774     1318359.478 7    152756.291 8
  22096492.954   -10301263.681 6  -8026956.279 6
 95  2  7 16 57 29.9970000  0  6 15  1 14 22 25 29
  21232715.009     1466696.934 6    213711.060 6
  24041098.712       74110.072 5     28886.624 4
  20368168.767   -12046151.670 7  -9386610.987 8
  21556364.243   -13222800.043 6   -601965.830 6
  20871398.001     1352150.333 7    179086.805 8
  22079398.048   -10391120.244 6  -8096974.372 5
 95  2  7 16 57 59.9970000  0  5 15 14 22 25 29
  21240486.876     1507520.488 6    245521.576 6
  20349804.392   -12142664.493 7  -9461815.787 8
  21535613.024   -13331841.513 6   -686933.186 6
  20877885.751     1386252.827 7    205660.156 8
  22062316.384   -10480877.664 6  -8166915.211 6
 95  2  7 16 58 29.9970000  0  5 15 14 22 25 29
  21248325.853     1548745.339 6    277644.789 6
  20331501.524   -12238846.690 7  -9536762.955 9
  21514935.181   -13440522.773 6   -771619.856 6
  20884435.149     1420664.472 7    232474.409 8
  22045253.532   -10570536.098 6  -8236778.923 5
 95  2  7 16 58 59.9970000  0  5 15 14 22 25 29
  21256251.243     1590366.400 6    310076.748 6
  20313261.384   -12334696.349 7  -9611451.008 9
  21494321.938   -13548842.348 6   -856024.710 6
  20891041.649     1455385.919 7    259530.059 8
  22028210.095   -10660105.457 6  -8306573.213 6
 95  2  7 16 59 29.9970000  0  5 15 14 22 25 29
  21264245.110     1632381.081 6    342815.419 6
  20295087.665   -12430197.918 7  -9685867.812 9
  21473775.415   -13656803.601 6   -940150.340 6
  20897710.110     1490418.299 7    286827.995 8
  22011183.720   -10749583.433 6  -8376296.305 6
 95  2  7 16 59 59.9970000  0  5 15 14 22 25 29
  21272314.282     1674779.531 6    375853.125 6
  20276982.485   -12525348.443 7  -9760011.082 9
  21453295.165   -13764432.061 6  -1024016.655 6
  20904432.649     1525753.857 7    314362.176 8
  21994169.712   -10838982.301 6  -8445957.739 6
 95  2  7 17  0 29.9970000  0  5 15 14 22 25 29
  21280454.064     1717556.039 6    409185.431 6
  20258942.470   -12620148.146 7  -9833880.980 9
  21432874.290   -13871724.463 6  -1107621.107 6
  20911211.767     1561380.598 7    342123.255 8
  21977178.478   -10928298.141 6  -8515554.477 6
 95  2  7 17  0 59.9970000  0  5 15 14 22 25 29
  21288665.188     1760713.694 6    442814.729 6
  20240974.048   -12714581.499 7  -9907465.411 9
  21412525.431   -13978663.124 6  -1190949.924 6
  20918049.571     1597307.585 7    370118.289 8
  21960196.298   -11017513.848 6  -8585073.199 6
 95  2  7 17  1 29.9970000  0  5 15 14 22 25 29
  21296950.946     1804244.679 6    476734.933 6
  20223072.509   -12808655.038 7  -9980769.468 9
  21392242.009   -14085252.881 6  -1274006.864 6
  20924943.704     1633540.386 7    398351.621 8
  21943239.392   -11106625.470 6  -8654510.802 6
 95  2  7 17  1 59.9970000  0  5 15 14 22 25 29
  21305307.751     1848150.114 6    510946.918 6
  20205237.392   -12902374.387 7 -10053797.536 9
  21372030.228   -14191471.442 6  -1356774.566 6
  20931899.704     1670098.998 7    426838.829 8
  21926305.204   -11195623.099 6  -8723859.595 6
 95  2  7 17  2 29.9970000  0  5 15 14 22 25 29
  21313731.329     1892426.030 6    545447.608 6
  20187468.438   -12995740.581 7 -10126550.414 9
  21351892.970   -14297302.958 6  -1439240.685 6
  20938918.868     1706980.679 7    455577.780 8
  21909390.509   -11284501.724 6  -8793115.648 6
 95  2  7 17  2 59.9970000  0  5 15 14 22 25 29
  21322221.056     1937058.777 6    580226.325 6
  20169766.243   -13088774.621 7 -10199044.480 9
  21331824.696   -14402765.786 6  -1521419.500 6
  20945997.501     1744172.462 7    484558.372 7
  21892496.892   -11373277.459 6  -8862291.517 6
 95  2  7 17  3 29.9970000  0  5 15 14 22 25 29
  21330783.282     1982050.525 6    615284.793 6
  20152124.126   -13181470.757 7 -10271275.233 9
  21311824.423   -14507866.605 6  -1603316.233 6
  20953133.462     1781670.015 7    513777.226 7
  21875622.610   -11461965.569 6  -8931399.132 6
 95  2  7 17  3 59.9970000  0  5 15 14 22 25 29
  21339412.907     2027391.107 6    650615.084 6
  20134552.063   -13273824.152 7 -10343238.918 9
  21291889.970   -14612617.701 6  -1684940.453 6
  20960321.259     1819443.249 7    543210.889 7
  21858758.446   -11550581.191 6  -9000450.239 6
 95  2  7 17  4 29.9970000  0  5 15 14 22 25 29
  21348106.712     2073079.863 6    686216.682 6
  20117044.259   -13365823.991 7 -10414927.106 9
  21272024.196   -14717025.178 6  -1766296.917 6
  20967556.829     1857467.297 7    572839.994 7
  21841908.501   -11639119.740 6  -9069441.305 6
 95  2  7 17  4 59.9970000  0  5 15 14 22 25 29
  21356863.673     2119099.261 6    722075.916 6
  20099602.634   -13457480.083 7 -10486347.438 9
  21252218.087   -14821104.844 6  -1847397.941 6
  20974836.571     1895720.876 7    602647.959 7
  21825071.985   -11727596.014 6  -9138383.839 6
 95  2  7 17  5 29.9970000  0  5 15 14 22 25 29
  21365683.290     2165453.142 6    758195.792 6
  20082230.321   -13548775.987 7 -10557487.100 9
  21232477.345   -14924831.756 6  -1928224.090 6
  20982159.618     1934207.750 7    632637.709 7
  21808248.017   -11816000.982 6  -9207270.820 6
 95  2  7 17  5 59.9970000  0  5 15 14 22 25 29
  21374570.493     2212143.781 6    794578.071 6
  20064928.399   -13639700.196 7 -10628337.143 9
  21212812.774   -15028171.588 6  -2008748.627 6
  20989530.157     1972939.101 7    662817.958 7
  21791445.267   -11904310.685 6  -9276083.567 6
 95  2  7 17  6 29.9970000  0  5 15 14 22 25 29
  21383521.149     2259163.705 6    831216.936 6
  20047695.173   -13730255.743 7 -10698899.909 9
  21193221.079   -15131110.792 6  -2088960.978 6
  20996948.149     2011925.357 7    693196.836 8
  21774658.321   -11992535.303 6  -9344830.013 6
 95  2  7 17  6 59.9970000  0  5 15 14 22 25 29
  21392530.368     2306506.995 6    868107.766 6
  20030532.142   -13820444.050 7 -10769176.512 9
  21173710.446   -15233640.666 6  -2168854.371 6
  21004418.235     2051176.815 7    723782.360 8
  21757881.235   -12080705.886 6  -9413534.353 6
 95  2  7 17  7 29.9970000  0  5 15 14 22 25 29
  21401595.407     2354170.498 6    905248.122 6
  20013441.806   -13910263.453 7 -10839165.665 9
  21154280.048   -15335752.417 6  -2248421.947 6
  21011941.274     2090704.491 7    754583.122 8
  21741109.610   -12168836.195 6  -9482207.307 6
 95  2  7 17  7 59.9970000  0  5 15 14 22 25 29
  21410726.204     2402142.573 6    942628.917 6
  19996419.017   -13999712.133 7 -10908865.934 9
  21134923.071   -15437471.501 6  -2327683.547 7
  21019513.860     2130500.173 7    785592.716 8
  21724347.587   -12256938.746 6  -9550858.641 6
 95  2  7 17  8 29.9970000  0  5 15 14 22 25 29
  21419918.079     2450426.993 6    980253.101 6
  19979466.946   -14088797.367 7 -10978283.000 9
  21115640.962   -15538808.024 6  -2406647.039 7
  21027135.157     2170557.448 7    816806.154 8
  21707580.079   -12345023.678 6  -9619496.256 6
 95  2  7 17  8 59.9970000  0  5 15 14 22 25 29
  21429157.079     2499010.947 6   1018110.694 6
  19962582.251   -14177527.743 7 -11047423.556 9
  21096427.728   -15639778.289 6  -2485325.141 7
  21034803.329     2210855.077 7    848206.881 8
  21690826.610   -12433082.119 6  -9688113.223 6
 95  2  7 17  9 29.9970000  0  5 15 14 22 25 29
  21438463.603     2547894.477 6   1056201.717 6
  19945767.813   -14265896.068 7 -11116282.000 9
  21077282.360   -15740391.592 6  -2563725.083 7
  21042515.790     2251388.380 7    879791.245 8
  21674077.235   -12521073.032 6  -9756677.554 6
 95  2  7 17  9 59.9970000  0  5 15 14 22 25 29
  21447818.813     2597070.141 6   1094520.384 6
  19929019.079   -14353908.830 7
  21058202.688   -15840660.157 6  -2641856.394 7
  21050270.306     2292127.364 7    911535.885 8
  21657348.415   -12608986.926 6
 95  2  7 17 10 29.9970000  0  5 15 14 22 25 29
  21457233.517     2646532.622 6   1133062.538 6
  19912337.610   -14441573.659 7 -11253173.635 9
  21039189.509   -15940575.589 6  -2719712.530 7
  21058061.978     2333082.188 7    943448.714 8
  21640637.110   -12696814.189 6  -9893618.211 6
 95  2  7 17 10 59.9970000  0  5 15 14 22 25 29
  21466698.157     2696276.286 6   1171823.795 6
  19895722.774   -14528873.859 7 -11321199.773 9
  21020244.587   -16040133.608 6  -2797290.158 6
  21065899.532     2374260.952 7    975536.034 8
  21623945.220   -12784545.113 6  -9961979.959 6
 95  2  7 17 11 29.9970000  0  5 15 14 22 25 29
  21476219.306     2746295.819 6   1210800.012 6
  19879179.149   -14615815.748 7 -11388946.703 9
  21001367.462   -16139328.440 6  -2874584.785 7
  21073777.024     2415659.735 7   1007794.802 8
  21607260.415   -12872198.137 6 -10030281.002 6
 95  2  7 17 11 59.9970000  0  5 15 14 22 25 29
  21485787.689     2796587.649 6   1249988.406 6
  19862701.923   -14702401.988 7 -11456416.505 9
  20982562.923   -16238149.144 6  -2951587.875 7
  21081698.392     2457284.955 7   1040230.012 8
  21590595.189   -12959787.154 6 -10098532.180 6
 95  2  7 17 12 29.9970000  0  5 15 14 22 25 29
  21495406.587     2847139.344 6   1289379.284 6
  19846291.634   -14788640.419 7 -11523615.291 9
  20963829.142   -16336588.589 6  -3028293.893 6
  21089662.587     2499135.372 7   1072840.698 8
  21573939.845   -13047321.483 6 -10166740.731 6
 95  2  7 17 12 59.9960000  0  5 15 14 22 25 29
  21505078.465     2897955.456 6   1328976.214 6
  19829950.113   -14874515.988 7 -11590531.320 9
  20945172.652   -16434624.706 6  -3104685.631 6
  21097664.801     2541190.309 7   1105610.752 8
  21557290.777   -13134808.018 6 -10234912.044 6
 95  2  7 17 13 29.9960000  0  5 15 14 22 25 29
  21514793.676     2949022.947 6   1368769.010 6
  19813676.309   -14960046.502 7 -11657178.475 9
  20926587.480   -16532275.604 6  -3180777.185 7
  21105701.824     2583426.227 7   1138521.829 8
  21540648.574   -13222266.269 6 -10303061.318 6
 95  2  7 17 13 59.9960000  0  5 15 14 22 25 29
  21524559.301     3000348.494 6   1408762.908 6
  19797471.356   -15045209.575 7 -11723539.315 9
  20908084.449   -16629524.647 6  -3256555.613 7
  21113777.449     2625860.539 7   1171587.495 8
  21524010.238   -13309680.520 6 -10371176.310 6
 95  2  7 17 14 29.9960000  0  5 15 14 22 25 29
  21534376.293     3051922.929 6   1448950.721 6
  19781332.082   -15130010.743 7 -11789618.149 9
  20889655.340   -16726370.855 6  -3332020.138 7
  21121887.598     2668482.551 7   1204799.429 8
  21507381.230   -13397071.463 6 -10439273.137 6
 95  2  7 17 14 59.9960000  0  5 15 14 22 25 29
  21544236.379     3103726.353 6   1489316.980 6
  19765260.090   -15214457.349 7 -11855420.701 9
  20871300.434   -16822838.770 6  -3407189.885 7
  21130032.293     2711282.100 7   1238149.703 8
  21490751.926   -13484458.085 6 -10507366.599 6
 95  2  7 17 15 29.9960000  0  5 15 14 22 25 29
  21554138.973     3155769.343 6   1529869.911 6
  19749262.918   -15298535.014 7 -11920935.770 9
  20853014.762   -16918916.564 6  -3482055.646 6
  21138215.137     2754287.460 7   1271660.342 8
  21474131.738   -13571804.900 6 -10575429.035 6
 95  2  7 17 15 59.9960000  0  5 15 14 22 25 29
  21564088.770     3208044.570 6   1570603.799 6
  19733333.363   -15382251.262 7 -11986169.211 9
  20834804.121   -17014608.249 6  -3556620.555 6
  21146438.473     2797496.213 7   1305329.474 8
  21457515.488   -13659115.482 6 -10643463.226 6
 95  2  7 17 16 29.9960000  0  5 15 14 22 25 29
  21574078.777     3260551.420 6   1611518.179 6
  19717472.176   -15465594.130 7 -12051111.710 9
  20816666.668   -17109911.388 7  -3630882.712 7
  21154696.652     2840895.920 7   1339147.399 8
  21440913.191   -13746378.658 6 -10711460.493 6
 95  2  7 17 16 59.9960000  0  5 15 14 22 25 29
  21584113.340     3313287.969 6   1652611.546 6
  19701684.613   -15548545.037 7 -12115748.782 9
  20798609.254   -17204817.792 7  -3704835.723 6
  21162992.434     2884487.358 7   1373114.718 8
  21424321.340   -13833575.452 6 -10779406.039 6
 95  2  7 17 17 29.9960000  0  5 15 14 22 25 29
  21594193.074     3366255.509 6   1693884.908 5
  19685973.801   -15631106.898 7 -12180082.707 9
  20780630.012   -17299313.743 7  -3778468.908 7
  21171322.457     2928268.416 7   1407229.791 8
  21407738.449   -13920712.440 6 -10847304.980 6
 95  2  7 17 17 59.9960000  0  5 15 14 22 25 29
  21604316.395     3419454.067 6   1735338.292 5
  19670340.770   -15713275.371 7 -12244110.091 9
  20762724.590   -17393389.816 7  -3851774.908 7
  21179691.066     2972237.646 7   1441491.492 8
  21391166.270   -14007801.392 6 -10915166.486 6
 95  2  7 17 18 29.9960000  0  5 15 14 22 25 29
  21614480.582     3472880.723 6   1776969.408 5
  19654780.020   -15795049.853 7 -12307830.473 9
  20744904.434   -17487032.953 7  -3924743.560 7
  21188092.754     3016395.260 7   1475899.984 8
  21374598.129   -14094845.533 6 -10982993.078 6
 95  2  7 17 18 59.9960000  0  5 15 14 22 25 29
  21624688.465     3526521.027 6   1818766.999 5
  19639287.184   -15876455.213 7 -12371263.223 9
  20727171.988   -17580247.283 7  -3997378.080 7
  21196529.066     3060729.180 7   1510445.854 7
  21358041.488   -14181862.771 6 -11050798.713 6
 95  2  7 17 19 29.9960000  0  5 15 14 22 25 29
  21634937.324     3580367.565 6   1860725.291 6
  19623867.020   -15957494.147 7 -12434410.447 9
  20709507.098   -17673051.054 7  -4069692.693 7
  21204995.738     3105218.162 7   1545112.559 7
  21341487.395   -14268861.180 6 -11118589.668 6
 95  2  7 17 19 59.9960000  0  5 15 14 22 25 29
  21645223.707     3634419.698 6   1902843.802 5
  19608519.504   -16038145.337 7 -12497255.535 8
  20691924.473   -17765443.897 7  -4141687.107 7
  21213488.895     3149852.256 7   1579892.334 7
  21324937.223   -14355828.511 6 -11186356.409 6
 95  2  7 17 20 29.9960000  0  5 15 14 22 25 29
  21655548.184     3688672.891 6   1945118.964 6
  19593248.449   -16118396.256 7 -12559788.721 8
  20674423.652   -17857426.578 7  -4213361.914 7
  21222008.621     3194623.444 7   1614778.935 7
  21308393.504   -14442759.753 6 -11254095.026 6
 95  2  7 17 20 59.9960000  0  5 15 14 22 25 29
  21665905.566     3743120.780 6   1987545.836 5
  19578056.004   -16198240.057 7 -12622004.675 8
  20656992.199   -17949007.047 7  -4284723.303 7
  21230551.996     3239516.203 7   1649760.265 7
  21291861.293   -14529656.319 6 -11321806.620 6
 95  2  7 17 21 29.9960000  0  5 15 14 22 25 29
  21676302.598     3797757.533 6   2030119.885 5
  19562937.098   -16277673.459 7 -12683900.841 8
  20639644.730   -18040185.860 7  -4355771.718 7
  21239118.137     3284531.681 7   1684837.216 7
  21275334.106   -14616513.736 6 -11389487.717 6
 95  2  7 17 21 59.9960000  0  5 15 14 22 25 29
  21686739.410     3852583.830 6   2072841.625 5
  19547896.285   -16356711.088 7 -12745488.612 9
  20622376.926   -18130933.717 7  -4426484.318 7
  21247712.496     3329694.428 7   1720028.929 7
  21258811.106   -14703326.284 6 -11457133.835 6
 95  2  7 17 22 29.9960000  0  5 15 14 22 25 29
  21697206.231     3907589.458 6   2115703.105 5
  19532929.512   -16435374.060 7 -12806784.436 9
  20605186.363   -18221254.880 7  -4496864.430 7
  21256335.348     3375005.855 7   1755336.494 7
  21242299.402   -14790095.039 6 -11524745.838 6
 95  2  7 17 22 59.9960000  0  5 15 14 22 25 29
  21707703.848     3962770.007 6   2158700.881 5
  19518028.590   -16513670.470 7 -12867794.631 9
  20588083.340   -18311145.778 7  -4566909.266 7
  21264988.730     3420474.073 7   1790766.230 7
  21225797.715   -14876821.793 6 -11592325.107 6
 95  2  7 17 23 29.9960000  0  5 15 14 22 25 29
  21718238.738     4018120.341 6   2201830.961 5
  19503200.410   -16591608.342 7 -12928525.442 9
  20571058.027   -18400599.909 7  -4636613.751 7
  21273669.793     3466106.212 7   1826323.702 7
  21209294.738   -14963513.618 6 -11659877.175 6
 95  2  7 17 23 59.9960000  0  5 15 14 22 25 29
  21728802.973     4073632.873 6   2245087.431 5
  19488437.191   -16669183.979 7 -12988973.998 8
  20554116.621   -18489636.197 7  -4705992.668 7
  21282383.520     3511892.397 7   1862001.214 7
  21192806.066   -15050187.063 6 -11727414.907 6
 95  2  7 17 24 29.9960000  0  5 15 14 22 25 29
  21739395.207     4129302.035 6   2288465.944 5
  19473746.715   -16746382.611 7 -13049128.785 9
  20537250.645   -18578275.961 7  -4775062.585 7
  21291123.371     3557818.354 7   1897787.632 7
  21176312.746   -15136842.074 6 -11794938.281 6
 95  2  7 17 24 59.9960000  0  5 15 14 22 25 29
  21750019.777     4185130.388 6   2331968.502 5
  19459130.230   -16823187.656 7 -13108976.878 9
  20520458.559   -18666510.377 7  -4843816.649 7
  21299889.707     3603882.498 7   1933681.733 7
  21159826.926   -15223489.574 6 -11862455.801 6
 95  2  7 17 25 29.9960000  0  6 15 18 14 22 25 29
  21760671.496     4241105.199 6   2375585.168 5
  23579837.754          -0.87213
  19444588.559   -16899606.272 7 -13168523.852 9
  20503745.395   -18754351.086 7  -4912263.926 7
  21308676.832     3650065.105 7   1969668.144 7
  21143335.801   -15310141.280 6 -11929976.597 6
 95  2  7 17 25 59.9960000  0  6 15 18 14 22 25 29
  21771349.293     4297226.343 6   2419315.868 5
  23558379.723     -112786.544 3
  19430126.324   -16975624.530 7 -13227758.853 9
  20487101.293   -18841791.206 6  -4980399.046 6
  21317488.926     3696368.184 7   2005748.415 7
  21126848.465   -15396783.389 6 -11997489.922 7
 95  2  7 17 26 29.9960000  0  6 15 18 14 22 25 29
  21782058.082     4353493.206 6   2463160.131 5
  23536904.520     -225617.841 3
  19415736.441   -17051227.213 7 -13286670.046 9
  20470547.535   -18928797.550 7
  21326321.637     3742790.440 7   2041921.575 7
  21110366.832   -15483402.598 6
 95  2  7 17 26 59.9960000  0  6 15 18 14 22 25 29
  21792793.988     4409907.535 6   2507119.297 5
  23515425.215     -338495.875 3        -0.15011
  19401429.535   -17126402.283 7 -13345248.022 9
  20454074.402   -19015352.390 7  -5115641.469 7
  21335177.957     3789327.088 7   2078183.860 7
  21093889.926   -15570005.431 6 -12132468.111 6
 95  2  7 17 27 29.9960000  0  6 15 18 14 22 25 29
  21803552.371     4466456.027 6   2551183.019 5
  23493929.340     -451428.453 3    -87999.586 2
  19387206.098   -17201166.259 7 -13403505.675 9
  20437689.145   -19101458.643 7  -5182737.217 7
  21344053.184     3835972.717 7   2114531.062 7
  21077410.809   -15656582.548 7 -12199930.794 7
 95  2  7 17 27 59.9960000  0  6 15 18 14 22 25 29
  21814340.691     4523130.885 6   2595345.197 5
  23472432.887     -564417.527 3   -176042.977 1
  19373055.348   -17275519.916 7 -13461443.598 9
  20421390.871   -19187118.337 7  -5249485.007 7
  21352950.949     3882720.484 7   2150957.855 7
  21060941.316   -15743135.874 6 -12267374.936 7
 95  2  7 17 28 29.9960000  0  6 15 18 14 22 25 29
  21825145.973     4579931.483 5   2639605.348 5
  23450920.090     -677468.159 3   -264134.388 1
  19358982.895   -17349468.128 7 -13519065.589 9
  20405174.504   -19272328.773 7  -5315882.722 7
  21361864.410     3929559.659 7   2187455.877 7
  21044475.551   -15829673.768 7 -12334807.057 7
 95  2  7 17 28 59.9960000  0  6 15 18 14 22 25 29
  21835978.551     4636844.738 5   2683953.282 5
  23429390.941     -790591.238 3   -352282.227 1
  19344983.902   -17423039.222 7 -13576393.717 9
  20389041.332   -19357102.122 7  -5381939.861 7
  21370793.574     3976490.982 7   2224025.703 7
  21028009.207   -15916212.481 6 -12402239.812 7
 95  2  7 17 29 29.9960000  0  6 15 18 14 22 25 29
  21846831.395     4693882.679 5   2728398.363 5
  23407856.488     -903760.599 2   -440466.132 1
  19331055.832   -17496227.059 7 -13633423.207 9
  20372998.871   -19441423.142 7  -5447644.542 7
  21379748.902     4023549.681 6   2260694.785 7
  21011544.223   -16002724.088 7 -12469651.449 7
 95  2  7 17 29 59.9960000  0  6 15 18 14 22 25 29
  21857705.184     4751020.111 5   2772920.973 5
  23386309.324    -1017000.035 3   -528704.646 1
  19317199.277   -17569039.466 7 -13690160.157 9
  20357035.012   -19525313.361 7  -5513013.534 7
  21388720.809     4070698.186 6   2297433.839 7
  20995081.816   -16089237.927 7 -12537064.820 7
 95  2  7 17 30 29.9960000  0  6 15 18 14 22 25 29
  21868599.215     4808270.542 5   2817531.635 5
  23364750.410    -1130305.790 3   -616994.838 1
  19303418.387   -17641454.413 7 -13746587.393 9
  20341153.816   -19608759.591 7  -5578036.557 7
  21397712.582     4117949.189 6   2334252.764 6
  20978624.277   -16175733.130 7 -12604463.672 7
 95  2  7 17 30 59.9960000  0  6 15 18 14 22 25 29
  21879516.309     4865627.223 5   2862225.104 5
  23343169.246    -1243682.893 3   -705340.577 1
  19289714.832   -17713471.303 7 -13802704.455 9
  20325356.152   -19691777.428 7  -5642725.763 7
  21406725.824     4165311.484 6   2371158.406 6
  20962165.879   -16262203.771 7 -12671843.380 7
 95  2  7 17 31 29.9960000  0  6 15 18 14 22 25 29
  21890448.035     4923084.822 5   2906997.209 5
  23321580.785    -1357132.734 3   -793743.055 1
  19276089.730   -17785078.336 7 -13858502.151 9
  20309635.152   -19774383.211 7  -5707093.896 7
  21415755.785     4212762.619 6   2408133.280 6
  20945719.754   -16348635.447 7 -12739192.731 7
 95  2  7 17 31 59.9960000  0  6 15 18 14 22 25 29
  21901403.113     4980636.705 5   2951842.775 5
  23299974.645    -1470672.448 3   -882215.541 1
  19262544.230   -17856268.212 7 -13913974.785 9
  20293995.293   -19856576.503 7  -5771140.608 7
  21424794.957     4260275.850 6   2445156.534 6
  20929275.980   -16435035.313 7 -12806517.289 7
 95  2  7 17 32 29.9960000  0  6 15 18 14 22 25 29
  21912371.043     5038293.173 5   2996769.832 5
  23278362.746    -1584280.793 3   -970741.537 2
  19249076.059   -17927028.009 7 -13969112.294 9
  20278436.918   -19938347.739 7  -5834858.447 7
  21433856.613     4307888.199 6   2482257.026 6
  20912841.840   -16521402.851 7 -12873816.664 7
 95  2  7 17 32 59.9960000  0  6 15 18 14 22 25 29
  21923363.512     5096049.544 5   3041774.738 5
  23256729.395    -1697944.070 3  -1059310.303 1
  19235691.902   -17997361.453 7 -14023917.574 8
  20262960.527   -20019682.948 7  -5898236.530 7
  21442937.379     4355604.722 6   2519438.694 6
  20896411.496   -16607742.333 7 -12941094.167 7
 95  2  7 17 33 29.9960000  0  6 15 18 14 22 25 29
  21934371.387     5153899.885 5   3086852.859 5
  23235085.113    -1811667.930 3  -1147926.277 2
  19222385.762   -18067275.134 7 -14078395.767 8
  20247569.832   -20100557.439 7  -5961255.606 7
  21452034.707     4403415.071 6   2556693.460 6
  20879987.410   -16694063.741 7 -13008357.597 7
 95  2  7 17 33 59.9960000  0  6 15 18 14 22 25 29
  21945397.668     5211848.170 5   3132007.321 5
  23213437.816    -1925443.177 3  -1236582.271 2
  19209162.465   -18136765.641 7 -14132544.215 8
  20232271.957   -20180946.844 7  -6023896.692 7
  21461155.559     4451337.445 6   2594035.542 6
  20863563.676   -16780381.928 7 -13075618.507 7
 95  2  7 17 34 29.9960000  0  6 15 18 14 22 25 29
  21956442.840     5269892.255 5   3177236.424 5
  23191777.668    -2039250.706 3  -1325263.441 1
  19196018.926   -18205833.025 7 -14186362.967 8
  20217066.527   -20260850.824 7  -6086159.528 7
  21470298.434     4499379.860 6   2631471.138 6
  20847135.746   -16866694.490 7 -13142875.037 7
 95  2  7 17 34 59.9960000  0  6 15 18 14 22 25 29
  21967504.496     5328014.518 5   3222526.438 5
  23170112.902    -2153110.667 3  -1413985.490 1
  19182955.582   -18274492.796 7 -14239864.090 8
  20201954.277   -20340271.099 7  -6148045.449 8
  21479454.449     4547505.278 6   2668971.425 6
  20830710.566   -16953000.255 7 -13210126.277 7
 95  2  7 17 35 29.9960000  0  6 15 18 14 22 25 29
  21978577.863     5386218.163 5   3267879.856 5
  23148441.637    -2267005.176 3  -1502734.415 2
  19169969.449   -18342730.032 7 -14293035.963 8
  20186933.332   -20419211.269 7  -6209557.251 8
  21488627.668     4595709.908 6   2706533.430 6
  20814288.543   -17039296.725 7 -13277370.262 7
 95  2  7 17 35 59.9950000  0  6 15 18 14 22 25 29
  21989671.280     5444498.235 5   3313292.825 5
  23126766.241    -2380923.159 4  -1591501.674 1
  19157068.913   -18410521.494 7 -14345860.481 8
  20172001.101   -20497683.245 7  -6270704.240 8
  21497814.280     4643983.190 6   2744148.921 6
  20797868.562   -17125578.876 7 -13344603.094 7
 95  2  7 17 36 29.9950000  0  6 15 18 14 22 25 29
  22000775.148     5502857.421 5   3358767.463 5
  23105078.562    -2494881.365 3  -1680300.248 1
  19144254.210   -18477875.282 7 -14398343.957 8
  20157154.812   -20575679.924 7  -6331480.868 8
  21507011.780     4692316.301 6   2781811.047 6
  20781456.046   -17211832.054 7 -13411813.347 7
 95  2  7 17 36 59.9950000  0  6 15 18 14 22 25 29
  22011896.046     5561297.333 5   3404304.984 5
  23083383.647    -2608891.711 3  -1769139.456 1
  19131520.382   -18544790.043 7 -14450485.327 8
  20142409.265   -20653178.306 7  -6391869.200 8
  21516218.546     4740698.814 6   2819511.662 6
  20765052.358   -17298037.727 7 -13478986.583 7
 95  2  7 17 37 29.9950000  0  6 15 18 14 22 25 29
  22023032.679     5619815.914 5   3449903.815 5
  23061672.757    -2722958.638 3  -1858022.779 2
  19118871.327   -18611268.398 7 -14502286.645 8
  20127753.796   -20730183.601 7  -6451873.312 8
  21525433.929     4789124.942 6   2857246.264 6
  20748657.640   -17384195.101 7 -13546122.201 7
 95  2  7 17 37 59.9950000  0  6 15 18 14 22 25 29
  22034180.819     5678400.223 5   3495553.871 5
  23039952.015    -2837119.846 3  -1946979.577 1
  19106299.257   -18677331.614 7 -14553764.483 8
  20113192.390   -20806698.691 7  -6511495.441 8
  21534656.944     4837590.695 6   2895011.740 6
  20732273.210   -17470303.682 7 -13613219.779 7
 95  2  7 17 38 29.9950000  0  6 15 18 14 22 25 29
  22045340.937     5737044.999 5   3541251.024 5
  23018211.718    -2951372.252 3  -2036007.415 1
  19093799.835   -18742997.558 7 -14604932.753 8
  20098725.929   -20882727.128 7  -6570738.363 8
  21543888.562     4886107.921 6   2932817.332 6
  20715897.601   -17556356.556 7 -13680273.966 7
 95  2  7 17 38 59.9950000  0  6 15 18 14 22 25 29
  22056511.366     5795751.843 5   3586996.560 5
  22996456.351    -3065694.295 3  -2125089.479 2
  19081391.030   -18808230.762 7 -14655763.830 8
  20084346.171   -20958286.829 7  -6629616.028 8
  21553136.249     4934700.881 6   2970681.935 6
  20699531.171   -17642363.464 7 -13747292.327 7
 95  2  7 17 39 29.9950000  0  6 15 18 14 22 25 29
  22067695.155     5854527.702 5   3632795.846 5
  22974689.374    -3180052.809 3  -2214199.996 2
  19069065.210   -18873011.002 7 -14706241.940 8
  20070053.288   -21033380.810 7  -6688130.798 8
  21562404.663     4983408.051 6   3008635.528 6
  20683169.437   -17728338.767 7 -13814286.066 7
 95  2  7 17 39 59.9950000  0  6 15 18 14 22 25 29
  22078891.218     5913370.105 5   3678646.991 5
  22952927.171    -3294435.216 4  -2303329.132 1
  19056822.671   -18937330.041 7 -14756360.682 8
  20055861.515   -21107995.111 7  -6746271.793 8
  21571696.780     5032238.436 6   3046685.135 6
  20666810.780   -17814289.337 7 -13881260.531 7
 95  2  7 17 40 29.9950000  0  6 15 18 14 22 25 29
  22090104.155     5972267.074 5   3724540.666 5
  22931155.530    -3408832.882 4  -2392470.153 3
  19044671.155   -19001186.776 7 -14806119.177 8
  20041750.890   -21182132.810 7  -6804041.408 8
  21581006.913     5081171.717 6   3084814.923 6
  20650458.796   -17900242.461 7 -13948236.986 7
 95  2  7 17 40 59.9950000  0  6 15 18 14 22 25 29
  22101319.038     6031214.907 5   3770473.960 5
  22909386.882    -3523253.721 4  -2481629.233 2
  19032612.983   -19064570.438 7 -14855509.052 8
  20027731.280   -21255790.045 7  -6861436.638 8
  21590338.062     5130191.751 6   3123012.301 6
  20634097.366   -17986211.927 7 -14015226.174 7
 95  2  7 17 41 29.9950000  0  6 15 18 14 22 25 29
  22112545.788     6090216.430 5   3816449.095 5
  22887604.765    -3637701.629 4  -2570809.410 4
  19020634.499   -19127502.202 7 -14904546.797 8
  20013814.882   -21328945.858 7  -6918441.153 8
  21599677.398     5179282.695 6   3161264.928 6
  20617737.218   -18072176.369 7 -14082211.452 7
 95  2  7 17 41 59.9950000  0  6 15 18 14 22 25 29
  22123785.499     6149275.876 5   3862469.370 5
  22865824.679    -3752174.288 4  -2660008.845 1
  19008748.077   -19189974.306 7 -14953226.365 8
  19999989.843   -21401584.143 7  -6975042.408 8
  21609029.726     5228424.238 6   3199556.989 6
  20601389.187   -18158100.995 7 -14149165.700 7
 95  2  7 17 42 29.9950000  0  6 15 18 14 22 25 29
  22135032.944     6208383.561 5   3908527.206 5
  22844032.499    -3866679.105 4  -2749233.373 2
  18996946.007   -19251984.729 7 -15001546.185 8
  19986260.608   -21473716.859 7  -7031249.708 8
  21618390.374     5277608.199 6   3237882.100 6
  20585049.804   -18243983.345 7 -14216087.007 7
 95  2  7 17 42 59.9950000  0  6 15 18 14 22 25 29
  22146290.452     6267538.618 5   3954621.964 4
  22822233.397    -3981215.176 3  -2838482.230 2
  18985233.616   -19313525.184 7 -15049499.792 8
  19972636.327   -21545339.272 7  -7087059.373 8
  21627758.069     5326839.477 6   3276244.078 6
  20568716.358   -18329799.035 7 -14282956.370 7
 95  2  7 17 43 29.9950000  0  6 15 18 14 22 25 29
  22157558.382     6326743.632 5   4000755.669 5
  22800436.233    -4095775.768 4  -2927750.189 1
  18973614.999   -19374594.443 7 -15097086.236 8
  19959105.476   -21616433.305 7  -7142457.314 8
  21637138.858     5376129.430 6   3314651.781 6
  20552401.101   -18415537.874 7 -14349765.849 7
 95  2  7 17 43 59.9950000  0  6 15 18 14 22 25 29
  22168830.952     6385990.382 5   4046921.887 5
  22778630.327    -4210370.797 4  -3017044.967 2
  18962084.757   -19435176.941 7 -15144293.380 8
  19945681.898   -21686998.482 7  -7197443.163 8
  21646529.280     5425483.161 6   3353109.189 6
  20536095.468   -18501213.022 7 -14416525.703 7
 95  2  7 17 44 29.9950000  0  6 15 18 14 22 25 29
  22180113.976     6445276.550 5   4093118.826 5
  22756814.601    -4325016.528 4  -3106379.248 1
  18950652.983   -19495263.686 7 -15191114.222 8
  19932350.280   -21757036.406 7  -7252018.169 8
  21655935.757     5474913.205 6   3391626.048 6
  20519801.515   -18586844.779 7 -14483251.742 7
 95  2  7 17 44 59.9950000  0  6 15 18 14 22 25 29
  22191402.476     6504598.717 5   4139343.811 4
  22734985.171    -4439729.613 4  -3195766.061 2
  18939311.280   -19554864.689 7 -15237556.569 8
  19919120.335   -21826555.349 7  -7306188.783 8
  21665355.562     5524414.758 6   3430198.639 6
  20503513.812   -18672440.911 7 -14549950.024 7
 95  2  7 17 45 29.9950000  0  6 15 18 14 22 25 29
  22202697.296     6563955.988 5   4185596.156 5
  22713141.085    -4554524.482 4  -3285216.580 2
  18928060.765   -19613976.356 7 -15283617.619 8
  19905991.358   -21895558.740 7  -7359957.669 8
  21674789.499     5573987.987 6   3468827.071 6
  20487233.116   -18758007.702 7 -14616625.444 7
 95  2  7 17 45 59.9950000  0  6 15 18 14 22 25 29
  22213996.351     6623335.562 5   4231865.873 5
  22691276.444    -4669412.744 4  -3374739.862 1
  18916909.187   -19672596.119 7 -15329295.373 8
  19892951.429   -21964067.797 7  -7413341.361 8
  21684232.077     5623607.497 6   3507491.563 6
  20470952.890   -18843551.453 7 -14683282.903 7
 95  2  7 17 46 29.9950000  0  6 15 18 14 22 25 29
  22225303.702     6682754.400 5   4278166.153 3
  22669403.593    -4784355.014 4  -3464305.212 2
  18905843.272   -19730720.071 7 -15374586.771 8
  19880017.663   -22032066.193 7  -7466327.127 8
  21693684.148     5673284.391 6   3546200.780 6
  20454681.827   -18929052.357 7 -14749906.972 7
 95  2  7 17 46 59.9950000  0  6 15 18 14 22 25 29
  22236617.046     6742200.563 5   4324487.780 4
  22647524.319    -4899336.509 5  -3553901.176 2
  18894877.218   -19788366.602 7 -15419506.158 8
  19867167.476   -22099559.834 7  -7518919.585 8
  21703144.968     5723003.955 6   3584943.237 6
  20438426.108   -19014490.610 7 -14816482.227 7
 95  2  7 17 47 29.9950000  0  6 15 18 14 22 25 29
  22247934.780     6801674.209 5   4370830.812 3
  22625641.108    -5014333.470 4  -3643509.137 1
  18883998.546   -19845530.935 7 -15464049.802 8
  19854427.132   -22166526.550 7  -7571101.445 8
  21712615.655     5772769.533 6   3623721.547 6
  20422177.780   -19099853.440 7 -14882998.712 7
 95  2  7 17 47 59.9950000  0  6 15 18 14 22 25 29
  22259256.952     6861177.118 5   4417196.637 3
  22603755.022    -5129313.512 4  -3733103.945 2
  18873206.858   -19902227.212 7 -15508228.728 8
  19841786.585   -22232955.882 7  -7622864.564 8
  21722096.624     5822590.736 6   3662543.211 6
  20405951.491   -19185138.981 7 -14949454.969 7
 95  2  7 17 48 29.9950000  0  6 15 18 14 22 25 29
  22270582.530     6920689.392 5   4463569.745 4
  22581878.718    -5244288.003 4  -3822694.432 2
  18862506.140   -19958481.067 7 -15552062.911 8
  19829246.319   -22298848.644 7  -7674209.575 8
  21731588.937     5872468.239 6   3701408.735 6
  20389733.733   -19270353.883 7 -15015856.183 7
 95  2  7 17 48 59.9950000  0  6 15 18 14 22 25 29
  22281910.140     6980213.870 5   4509952.385 4
  22560002.093    -5359264.360 4  -3912286.339 2
  18851890.358   -20014268.838 7 -15595533.913 8
  19816811.913   -22364192.851 7  -7725127.136 7
  21741090.577     5922409.953 6   3740324.297 6
  20373533.772   -19355490.416 7 -15082196.339 7
 95  2  7 17 49 29.9950000  0  6 15 18 14 22 25 29
  22293237.913     7039751.075 5   4556344.924 4
  22538122.562    -5474247.160 5  -4001883.306 2
  18841365.913   -20069580.638 7 -15638634.033 8
  19804484.397   -22428975.863 7  -7775607.394 7
  21750606.577     5972414.595 6   3779288.887 6
  20357336.499   -19440581.380 7 -15148500.969 7
 95  2  7 17 49 59.9950000  0  6 15 18 14 22 25 29
  22304569.757     7099296.992 5   4602744.262 4
  22516238.741    -5589246.734 5  -4091493.319 2
  18830929.546   -20124403.262 7 -15681352.967 8
  19792264.194   -22493202.499 7  -7825654.115 8
  21760131.772     6022473.755 6   3818295.955 6
  20341155.257   -19525640.886 7 -15214781.095 8
 95  2  7 17 50 29.9950000  0  6 15 18 14 22 25 29
  22315901.444     7158850.706 5   4649149.682 5
  22494349.288    -5704279.318 5  -4181129.059 2
  18820593.515   -20178718.199 7 -15723676.307 8
  19780148.554   -22556873.706 7  -7875268.020 8
  21769667.257     6072577.326 6   3857337.630 6
  20324975.366   -19610667.037 7 -15281035.231 8
 95  2  7 17 50 59.9950000  0  6 15 18 14 22 25 29
  22327235.546     7218401.055 5   4695552.451 4
  22472451.530    -5819358.327 5  -4270800.988 2
  18810350.233   -20232538.214 7 -15765613.990 8
  19768133.163   -22620014.691 7  -7924468.776 8
  21779205.374     6122696.477 6   3896391.443 6
  20308798.077   -19695682.007 7 -15347280.654 8
 95  2  7 17 51 29.9950000  0  6 15 18 14 22 25 29
  22338565.929     7277943.003 5   4741948.680 4
  22450539.327    -5934490.853 4  -4360514.631 2
  18800203.554   -20285867.039 7 -15807168.931 8
  19756216.413   -22682633.482 7  -7973262.615 7
  21788745.241     6172832.582 6   3935458.468 5
  20292621.413   -19780685.203 7 -15413516.898 8
 95  2  7 17 51 59.9950000  0  6 15 18 14 22 25 29
  22349894.179     7337476.713 4   4788338.490 4
  22428622.163    -6049679.547 5  -4450272.032 2
  18790149.398   -20338705.136 7 -15848341.487 8
  19744400.187   -22744739.186 7  -8021656.656 7
  21798290.101     6222995.097 6   3974546.084 5
  20276452.835   -19865639.419 7 -15479714.982 8
 95  2  7 17 52 29.9950000  0  6 15 18 14 22 25 29
  22361223.366     7396998.779 4   4834719.202 4
  22406691.874    -6164923.684 5  -4540072.622 3
  18780187.023   -20391057.165 7 -15889135.286 8
  19732677.569   -22806335.247 7  -8069653.568 7
  21807842.554     6273190.036 6   4013658.974 5
  20260299.921   -19950531.712 7 -15545864.812 8
 95  2  7 17 52 59.9950000  0  6 15 18 14 22 25 29
  22372544.741     7456510.980 5   4881092.255 4
  22384753.421    -6280216.445 5  -4629911.097 3
  18770320.296   -20442898.094 7 -15929530.825 8
  19721056.280   -22867407.072 7  -8117241.981 8
  21817403.444     6323427.455 6   4052804.973 5
  20244161.054   -20035356.246 7 -15611961.845 8
 95  2  7 17 53 29.9950000  0  6 15 18 14 22 25 29
  22383868.257     7516004.533 5   4927450.772 4
  22362804.905    -6395553.133 5  -4719783.821 2
  18760555.835   -20494219.597 7 -15969521.617 8
  19709536.265   -22927936.364 7  -8164407.643 8
  21826973.655     6373719.277 6   4091993.363 5
  20228033.452   -20120104.489 7 -15677999.430 8
 95  2  7 17 53 59.9950000  0  6 15 18 14 22 25 29
  22395185.054     7575484.337 5   4973798.568 4
  22340849.804    -6510916.912 5  -4809677.655 2
  18750889.327   -20545018.986 7 -16009105.567 8
  19698122.616   -22987916.051 7  -8211145.040 8
  21836553.757     6424064.174 6   4131223.115 5
  20211921.194   -20204772.202 7 -15743974.262 8
 95  2  7 17 54 29.9950000  0  6 15 18 14 22 25 29
  22406501.210     7634945.290 5   5020131.676 5
  22318891.577    -6626308.921 5  -4899593.468 2
  18741321.804   -20595289.484 7 -16048277.378 8
  19686818.179   -23047331.594 7  -8257442.854 8
  21846142.312     6474450.933 6   4170485.471 6
  20195821.312   -20289375.541 7 -15809898.934 8
 95  2  7 17 54 59.9950000  0  6 15 18 14 22 25 29
  22417813.163     7694388.177 5   5066450.694 3
  22296929.499    -6741716.451 5  -4989521.387 3
  18731857.319   -20645038.621 7 -16087042.959 8
  19675619.202   -23106165.259 7  -8303287.250 7
  21855738.116     6524874.165 6   4209776.253 6
  20179734.030   -20373910.234 7 -15875770.125 8
 95  2  7 17 55 29.9950000  0  6 15 18 14 22 25 29
  22429118.437     7753814.077 5   5112756.476 3
  22274968.913    -6857125.370 5  -5079450.384 3
  18722487.523   -20694289.649 7 -16125420.392 8
  19664529.757   -23164427.205 7  -8348686.156 8
  21865340.663     6575336.813 6   4249097.728 6
  20163662.905   -20458367.966 7 -15941581.337 8
 95  2  7 17 55 59.9950000  0  6 15 18 14 22 25 29
  22440424.437     7813210.321 5   5159039.149 4
  22253004.983    -6972548.740 5  -5169390.637 4
  18713208.210   -20743054.324 7 -16163418.848 8
  19653548.163   -23222140.371 7  -8393657.441 8
  21874945.772     6625812.196 5   4288429.119 6
  20147597.116   -20542778.761 7 -16007355.983 8
 95  2  7 17 56 29.9950000  0  7 15 18 14 19 22 25 29
  22451723.632     7872584.460 5   5205304.589 3
  22231042.202    -7087970.805 5  -5259329.885 2
  18704019.991   -20791312.470 7 -16201022.588 7
  23146162.749          -0.95113
  19642674.116   -23279282.959 7  -8438184.121 8
  21884554.155     6676309.103 5   4327777.280 6
  20131549.187   -20627136.940 7 -16073089.629 7
 95  2  7 17 56 59.9950000  0  7 15 18 14 19 22 25 29
  22463017.015     7931927.282 5   5251545.623 4
  22209079.140    -7203391.027 5  -5349267.685 3
  18694932.733   -20839063.533 7 -16238231.231 8
  23121754.835     -128268.051 3        -0.25411
  19631907.265   -23335878.277 7  -8482284.361 8
  21894167.226     6726821.042 5   4367137.155 6
  20115503.468   -20711454.459 7 -16138791.595 7
 95  2  7 17 57 29.9940000  0  7 15 18 14 19 22 25 29
  22474299.463     7991235.707 4   5297759.856 3
  22187109.635    -7318817.539 5  -5439210.391 3
  18685951.182   -20886281.396 7 -16275024.378 7
  23097369.260     -256422.251 3    -99860.655 2
  19621239.861   -23391931.669 7  -8525962.322 8
  21903783.174     6777354.866 5   4406514.077 6
  20099465.486   -20795728.805 7 -16204459.909 7
 95  2  7 17 57 59.9940000  0  7 15 18 14 19 22 25 29
  22485582.315     8050503.893 4   5343942.709 3
  22165144.838    -7434275.836 5  -5529177.861 3
  18677070.307   -20932953.313 7 -16311392.114 7
  23072999.650     -384473.884 3   -199641.084 1
  19610673.408   -23447434.943 7  -8569211.616 8
  21913401.322     6827898.607 5   4445898.740 6
  20083436.994   -20879966.282 7 -16270099.499 7
 95  2  7 17 58 29.9940000  0  7 15 18 14 19 22 25 29
  22496851.752     8109737.105 4   5390098.303 4
  22143165.643    -7549751.033 5  -5619158.517 2
  18668291.533   -20979067.563 7 -16347325.305 8
  23048656.221     -512403.088 3   -299326.106 1
  19600224.440   -23502367.941 7  -8612016.538 8
  21923023.057     6878464.671 6   4485300.799 6
  20067422.994   -20964121.065 7 -16335674.651 7
 95  2  7 17 58 59.9940000  0  7 15 18 14 19 22 25 29
  22508112.713     8168921.358 3   5436215.763 3
  22121188.447    -7665260.803 5  -5709166.105 2
  18659618.580   -21024644.504 7 -16382839.817 7
  23024331.947     -640206.053 3   -398912.789 1
  19589878.377   -23556743.190 7  -8654386.857 8
  21932649.182     6929047.169 6   4524715.664 5
  20051426.330   -21048179.132 7 -16401174.435 8
 95  2  7 17 59 29.9940000  0  7 15 18 14 19 22 25 29
  22519368.775     8228058.886 4   5482296.812 3
  22099196.080    -7780803.032 5  -5799198.973 2
  18651049.971   -21069693.050 7 -16417942.584 7
  23000043.252     -767874.471 3   -498394.637 1
  19579636.830   -23610545.694 7  -8696310.876 8
  21942277.775     6979643.761 6   4564141.529 5
  20035452.072   -21132128.522 7 -16466589.555 8
 95  2  7 17 59 59.9940000  0  7 15 18 14 19 22 25 29
  22530609.869     8287142.631 4   5528335.972 1
  22077202.221    -7896378.185 5  -5889257.524 3
  18642571.940   -21114233.711 7 -16452649.602 8
  22975771.596     -895411.041 3   -597773.755 2
  19569509.268   -23663776.803 7  -8737789.659 8
  21951906.119     7030238.185 6   4603565.701 5
  20019493.705   -21215977.763 7 -16531926.625 8
 95  2  7 18  0 29.9940000  0  7 15 18 14 19 22 25 29
  22541845.463     8346177.149 5   5574336.795 1
  22055207.838    -8011975.154 5  -5979333.053 4
  18634190.299   -21158281.904 7 -16486972.885 8
  22951526.166    -1022818.416 3   -697052.230 3
  19559489.963   -23716433.077 7  -8778820.516 8
  21961535.580     7080839.211 6   4642995.008 5
  20003556.877   -21299728.188 7 -16597186.698 8
 95  2  7 18  0 59.9940000  0  7 15 18 14 19 22 25 29
  22553068.033     8405147.826 5   5620287.883 1
  22033205.947    -8127612.762 5  -6069440.251 4
  18625899.791   -21201854.016 7 -16520925.195 7
  22927305.244    -1150118.936 3   -796247.426 4
  19549575.127   -23768527.046 7  -8819413.208 8
  21971163.127     7131439.654 5   4682423.870 5
  19987627.393   -21383418.736 7 -16662400.114 8
 95  2  7 18  1 29.9940000  0  7 15 18 14 19 22 25 29
  22564275.252     8464053.128 4   5666187.968 2
  22011193.502    -8243283.403 5  -6159573.189 3
  18617699.072   -21244938.010 7 -16554497.145 8
  22903095.807    -1277310.390 3   -895357.614 4
  19539770.760   -23820061.848 7  -8859570.186 8
  21980791.377     7182040.707 5   4721853.199 5
  19971713.822   -21467067.129 7 -16727580.675 8
 95  2  7 18  1 59.9940000  0  7 15 18 14 19 22 25 29
  22575468.463     8522883.126 4   5712029.404 3
  21989175.315    -8358981.262 5  -6249727.338 4
  18609594.924   -21287532.189 7 -16587687.433 7
  22878912.275    -1404398.062 3   -994386.918 2
  19530067.072   -23871045.448 7  -8899297.668 8
  21990422.166     7232645.153 5   4761285.169 5
  19955800.822   -21550678.777 7 -16792732.604 8
 95  2  7 18  2 29.9940000  0  7 15 18 14 19 22 25 29
  22586652.244     8581636.590 4   5757811.174 3
  21967152.869    -8474699.834 5  -6339897.604 4
  18601586.010   -21329625.349 7 -16620487.310 7
  22854747.564    -1531376.411 4  -1093331.059 2
  19520466.424   -23921490.632 7  -8938605.601 8
  22000055.744     7283263.880 5   4800728.240 5
  19939899.486   -21634249.181 7 -16857852.398 8
 95  2  7 18  2 59.9940000  0  7 15 18 14 19 22 25 29
  22597819.408     8640314.170 4   5803533.774 3
  21945127.869    -8590432.724 5  -6430079.042 2
  18593675.393   -21371185.865 7 -16652872.146 8
  22830613.955    -1658232.473 3  -1192179.948 2
  19510972.260   -23971401.380 7  -8977497.088 8
  22009692.525     7333908.843 5   4840191.770 5
  19924005.143   -21717777.192 7 -16922939.152 8
 95  2  7 18  3 29.9940000  0  7 15 18 14 19 22 25 29
  22608971.549     8698917.851 4   5849198.810 3
  21923105.908    -8706167.688 5  -6520262.102 3
  18585874.338   -21412195.487 7 -16684827.708 8
  22806498.268    -1784946.472 3  -1290918.108 3
  19501571.502   -24020773.249 7  -9015968.683 8
  22019334.775     7384573.781 5   4879670.889 5
  19908120.135   -21801253.062 7 -16987985.283 8
 95  2  7 18  3 59.9940000  0  7 15 18 14 19 22 25 29
  22620108.041     8757449.407 4   5894807.680 3
  21901082.893    -8821909.665 5  -6610450.622 4
  18578169.244   -21452663.975 7 -16716361.608 7
  22782413.635    -1911520.567 4  -1389547.236 2
  19492288.690   -24069589.096 7  -9054007.003 8
  22028977.268     7435255.020 5   4919162.660 5
  19892246.416   -21884666.194 7 -17052982.527 8
 95  2  7 18  4 29.9940000  0  7 15 18 14 19 22 25 29
  22631232.791     8815907.650 5   5940359.431 3
  21879051.900    -8937679.528 5  -6700660.877 4
  18570573.994   -21492594.065 7 -16747475.982 7
  22758351.611    -2037954.762 4  -1488067.373 3
  19483102.697   -24117832.163 7  -9091599.003 8
  22038624.846     7485950.161 6   4958665.300 5
  19876385.119   -21968017.559 7 -17117931.637 8
 95  2  7 18  4 59.9940000  0  7 15 18 14 19 22 25 29
  22642343.385     8874286.622 5   5985849.383 2
  21857016.932    -9053471.570 5  -6790888.428 3
  18563077.416   -21531987.473 7 -16778172.160 7
  22734313.783    -2164261.203 3  -1586487.954 4
  19474037.799   -24165485.129 7  -9128731.193 8
  22048272.830     7536657.830 6   4998177.708 5
  19860537.244   -22051303.400 7 -17182829.689 8
 95  2  7 18  5 29.9940000  0  7 15 18 14 19 22 25 29
  22653434.697     8932576.371 4   6031269.830 1
  21834978.205    -9169293.128 5  -6881138.965 4
  18555674.979   -21570871.074 7 -16808471.088 7
  22710301.229    -2290457.064 3  -1684822.363 2
  19465083.158   -24212552.590 7  -9165407.135 8
  22057923.627     7587363.863 5   5037688.816 5
  19844701.463   -22134519.952 7 -17247673.745 8
 95  2  7 18  5 59.9940000  0  7 15 18 14 19 22 25 29
  22664509.775     8990778.888 4   6076622.289 2
  21812932.533    -9285146.336 5  -6971414.169 4
  18548376.424   -21609241.963 7 -16838370.494 7
  22686308.838    -2416549.648 3  -1783076.314 2
  19456234.385   -24259034.968 7  -9201627.172 8
  22067575.291     7638074.360 6   5077203.415 5
  19828881.002   -22217655.104 7 -17312454.370 8
 95  2  7 18  6 29.9940000  0  7 15 18 14 19 22 25 29
  22675566.932     9048886.496 4   6121900.805 3
  21790880.549    -9401026.613 5  -7061710.455 4
  18541178.111   -21647076.554 7 -16867852.011 7
  22662332.424    -2542550.212 3  -1881258.518 3
  19447496.541   -24304947.863 7  -9237403.457 8
  22077222.611     7688783.997 5   5116717.352 5
  19813076.619   -22300719.420 7 -17377179.802 8
 95  2  7 18  6 59.9940000  0  7 15 18 14 19 22 25 29
  22686608.760     9106905.740 4   6167110.434 4
  21768827.236    -9516908.555 5  -7152008.048 4
  18534080.955   -21684359.784 7 -16896903.898 7
  22638376.822    -2668431.520 3  -1979347.784 4
  19438871.174   -24350290.955 7  -9272735.737 8
  22086871.721     7739488.503 5   5156227.287 5
  19797284.994   -22383696.868 7 -17441837.544 9
 95  2  7 18  7 29.9940000  0  7 15 18 14 19 22 25 29
  22697629.533     9164823.786 4   6212241.225 4
  21746773.197    -9632821.546 5  -7242329.839 4
  18527086.908   -21721107.314 7 -16925538.352 8
  22614447.244    -2794180.116 3  -2077333.607 3
  19430351.861   -24395064.953 7  -9307624.569 8
  22096512.705     7790151.978 5   5195705.252 5
  19781508.783   -22466602.706 7 -17506439.486 9
 95  2  7 18  7 59.9940000  0  7 15 18 14 19 22 25 29
  22708635.697     9222652.025 4   6257302.008 4
  21724709.346    -9748743.536 5  -7332658.633 4
  18520199.440   -21757298.424 7 -16953739.229 7
  22590548.221    -2919774.899 4  -2175199.643 2
  19421943.018   -24439247.559 7  -9342052.565 8
  22106146.955     7840784.267 5   5235158.917 5
  19765749.533   -22549417.928 7 -17570970.822 9
 95  2  7 18  8 29.9940000  0  7 15 18 14 19 22 25 29
  22719620.182     9280384.462 4   6302288.127 4
  21702655.463    -9864662.924 5  -7422985.400 3
  18513419.072   -21792946.399 7 -16981516.893 8
  22566681.314    -3045195.845 4  -2272930.203 1
  19413646.260   -24482837.197 7  -9376018.509 8
  22115779.729     7891392.513 5   5274593.832 4
  19750006.861   -22632136.307 7 -17635426.695 9
 95  2  7 18  8 59.9940000  0  7 15 18 14 19 22 25 29
  22730590.971     9338038.384 3   6347213.061 4
  21680601.330    -9980554.712 5  -7513290.648 5
  18506738.861   -21828053.904 7 -17008873.404 7
  22542852.072    -3170407.525 3  -2370497.676 4
  19405466.525   -24525813.983 7  -9409506.906 8
  22125407.682     7941998.591 5   5314027.079 5
  19734292.729   -22714721.791 7 -17699779.015 9
 95  2  7 18  9 29.9940000  0  7 15 18 14 19 22 25 29
  22741542.229     9395585.050 3   6392054.410 2
  21658546.713   -10096442.451 5  -7603592.766 2
  18500156.775   -21862645.677 7 -17035828.049 7
  22519059.393    -3295453.868 4  -2467936.360 1
  19397397.041   -24568214.820 7  -9442546.516 8
  22135034.408     7992585.348 5   5353445.276 5
  19718596.979   -22797202.774 7 -17764049.911 9
 95  2  7 18  9 59.9940000  0  7 15 18 14 19 22 25 29
  22752473.440     9453022.479 3   6436810.641 2
  21636497.424   -10212314.778 5  -7693882.855 5
  18493672.346   -21896716.115 7 -17062376.461 7
  22495291.940    -3420349.084 3  -2565257.298 1
  19389435.252   -24610063.419 7  -9475155.813 8
  22144662.564     8043179.586 5   5392869.259 4
  19702920.190   -22879582.386 7 -17828241.814 9
 95  2  7 18 10 29.9940000  0  7 15 18 14 19 22 25 29
  22763374.236     9510347.096 2   6481478.973 2
  21614448.393   -10328187.174 5  -7784173.009 5
  18487289.322   -21930262.885 7 -17088516.820 7
  22471549.424    -3545097.773 3  -2662464.007 1
  19381576.650   -24651361.123 7  -9507335.831 8
  22154289.900     8093774.799 5   5432294.050 5
  19687259.221   -22961881.011 7 -17892370.609 9
 95  2  7 18 10 59.9940000  0  7 15 18 14 19 22 25 29
  22774270.182     9567549.276 3   6526051.887 3
  21592391.744   -10444086.589 5  -7874484.188 5
  18481005.869   -21963287.889 7 -17114250.602 7
  22447835.971    -3669728.551 4  -2759578.840 2
  19373821.736   -24692107.395 7  -9539086.163 8
  22163914.127     8144341.728 5   5471696.796 4
  19671608.932   -23044127.948 7 -17956459.128 9
 95  2  7 18 11 29.9940000  0  7 15 18 14 19 22 25 29
  22785130.502     9624634.733 2   6570533.823 2
  21570329.541   -10560016.875 5  -7964819.463 5
  18474821.580   -21995779.847 7 -17139569.028 7
  22424141.510    -3794244.847 4  -2856604.484 1
  19366176.775   -24732290.623 7  -9570397.753 8
  22173532.205     8194887.013 5   5511082.650 5
  19655965.502   -23126328.254 7 -18020511.315 8
 95  2  7 18 11 59.9940000  0  7 15 18 14 19 22 25 29
  22795965.736     9681587.832 3   6614912.662 3
  21548262.049   -10675992.385 5  -8055189.962 5
  18468737.971   -22027754.918 7 -17164484.685 7
  22400465.283    -3918662.983 4  -2953553.617 2
  19358634.924   -24771914.643 7  -9601273.597 8
  22183141.252     8245391.552 5   5550436.764 5
  19640331.838   -23208491.617 7 -18084534.724 8
 95  2  7 18 12 29.9940000  0  7 15 18 14 19 22 25 29
  22806780.439     9738411.276 3   6659190.466 2
  21526189.971   -10791997.630 5  -8145583.640 4
  18462752.775   -22059204.803 7 -17188991.100 7
  22376813.143    -4042967.555 4  -3050414.293 2
  19351205.596   -24810957.681 7  -9631696.734 8
  22192744.807     8295848.321 5   5589753.659 5
  19624709.447   -23290590.759 7 -18148508.081 8
 95  2  7 18 12 59.9940000  0  7 15 18 14 19 22 25 29
  22817566.979     9795103.175 3   6703365.758 2
  21504109.674   -10908017.224 5  -8235988.488 5
  18456867.119   -22090132.920 7 -17213090.938 7
  22353179.205    -4167151.389 4  -3147180.901 2
  19343887.650   -24849417.350 7  -9661665.294 8
  22202339.604     8346266.913 5   5629040.794 5
  19609102.143   -23372603.470 7 -18212414.096 8
 95  2  7 18 13 29.9940000  0  7 15 18 14 19 22 25 29
  22828331.377     9851648.968 3   6747427.184 1
  21482033.432   -11024041.413 5  -8326396.918 5
  18451078.690   -22120544.991 7 -17236788.688 7
  22329572.658    -4291211.356 4  -3243850.980 3
  19336675.713   -24887318.726 7  -9691198.823 8
  22211927.252     8396653.488 5   5668302.972 5
  19593514.893   -23454514.855 7 -18276241.149 8
 95  2  7 18 13 59.9940000  0  7 15 18 14 19 22 25 29
  22839065.018     9908056.406 3   6791380.827 1
  21459958.307   -11140048.444 5  -8416791.990 4
  18445391.580   -22150415.260 7 -17260064.236 8
  22305995.791    -4415116.928 3  -3340400.725 3
  19329576.158   -24924645.546 7  -9720284.662 8
  22221511.369     8447020.313 5   5707549.757 5
  19577949.604   -23536308.563 7 -18339976.512 8
 95  2  7 18 14 29.9940000  0  7 15 18 14 19 22 25 29
  22849766.994     9964318.367 4   6835221.112 1
  21437880.252   -11256046.321 5  -8507179.924 4
  18439810.705   -22179746.483 7 -17282919.749 7
  22282445.033    -4538853.234 4  -3436818.570 4
  19322582.729   -24961394.321 7  -9748920.062 8
  22231093.846     8497372.508 5   5746785.144 5
  19562404.150   -23618002.770 7 -18403634.337 9
 95  2  7 18 14 59.9940000  0  7 15 18 14 19 22 25 29
  22860449.736    10020424.800 5   6878940.278 1
  21415807.893   -11372057.805 5  -8597578.456 5
  18434331.658   -22208550.806 7 -17305364.690 7
  22258929.932    -4662442.155 4  -3533121.619 3
  19315694.713   -24997581.654 7  -9777117.987 8
  22240672.611     8547705.800 5   5786005.767 4
  19546870.775   -23699626.852 7 -18467237.522 8
 95  2  7 18 15 29.9940000  0  7 15 18 14 19 22 25 29
  22871093.518    10076376.999 5
  21393726.479   -11488089.798 5  -8687992.971 4
  18428953.033   -22236821.381 7 -17327393.733 7
  22235439.041    -4785886.623 3  -3629312.059 4
  19308911.924   -25033213.959 7  -9804883.429 8
  22250248.252     8598020.521 5   5825211.971 5
  19531350.846   -23781185.311 7 -18530789.572 8
 95  2  7 18 15 59.9940000  0  7 15 18 14 19 22 25 29
  22881711.783    10132170.854 5
  21371636.471   -11604162.155 5  -8778438.937 5
  18423671.572   -22264566.575 7 -17349013.377 7
  22211970.080    -4909208.186 4  -3725406.712 4
  19302241.041   -25068282.191 7  -9832209.328 8
  22259812.432     8648306.501 5   5864395.768 5
  19515839.955   -23862692.904 7 -18594301.981 9
 95  2  7 18 16 29.9940000  0  7 15 18 14 19 22 25 29
  22892299.932    10187813.295 4        -0.09211
  21349540.994   -11720276.891 5  -8868917.939 5
  18418489.869   -22291787.897 7 -17370224.826 8
  22188524.190    -5032418.514 4  -3821414.748 3
  19295677.564   -25102785.112 7  -9859094.738 8
  22269382.533     8698566.919 5   5903559.626 5
  19500344.150   -23944129.850 7 -18657759.344 8
 95  2  7 18 16 59.9940000  0  7 15 18 14 19 22 25 29
  22902858.486    10243301.701 3     43237.424 1
  21327437.924   -11836435.833 5  -8959431.373 5
  18413412.627   -22318480.147 7 -17391024.001 8
  22165096.510    -5155527.758 3  -3917343.959 4
  19289214.338   -25136736.390 7  -9885550.300 8
  22278934.369     8748779.451 5   5942686.155 4
  19484864.955   -24025466.046 7 -18721138.210 9
 95  2  7 18 17 29.9930000  0  7 15 18 14 19 22 25 29
  22913386.036    10298621.603 3     86343.631 1
  21305321.231   -11952635.720 5  -9049976.719 5
  18408435.325   -22344643.513 7 -17411411.063 7
  22141692.646    -5278525.131 4  -4013186.031 4
  19282855.192   -25170145.926 7  -9911583.717 8
  22288476.138     8798921.449 5   5981757.765 4
  19469410.763   -24106686.474 7 -18784426.856 9
 95  2  7 18 17 59.9930000  0  7 15 18 14 19 22 25 29
  22923880.435    10353773.564 3    129318.979 2
  21283204.356   -12068879.281 5  -9140556.097 5
  18403553.380   -22370282.885 7 -17431389.815 8
  22118308.864    -5401401.116 4  -4108933.517 4
  19276605.317   -25203006.109 7  -9937189.076 8
  22298004.060     8848991.238 5   6020773.101 5
  19453974.911   -24187802.208 7 -18847633.919 9
 95  2  7 18 18 29.9930000  0  7 15 18 14 19 22 25 29
  22934343.161    10408754.824 3    172161.308 1
  21261082.356   -12185138.977 5  -9231148.040 5
  18398777.489   -22395389.477 7 -17450953.410 8
  22094956.794    -5524125.847 5  -4204563.149 4
  19270456.747   -25235315.262 7  -9962365.049 8
  22307519.989     8898987.213 5   6059730.890 5
  19438558.794   -24268813.774 7 -18910759.811 9
 95  2  7 18 18 59.9930000  0  7 15 18 14 19 22 25 29
  22944776.419    10463562.871 3    214868.667 3
  21238957.724   -12301404.899 5  -9321744.838 5
  18394102.208   -22419968.949 7 -17470106.269 8
  22071632.466    -5646692.688 4  -4300069.726 3
  19264411.263   -25267068.441 7  -9987107.797 8
  22317019.028     8948905.811 5   6098628.395 5
  19423159.646   -24349739.907 7 -18973819.138 9
 95  2  7 18 19 29.9930000  0  7 15 18 14 19 22 25 29
  22955172.560    10518184.438 3    257430.728 3
  21216829.247   -12417681.467 5  -9412349.931 5
  18389518.185   -22444034.391 7 -17488858.582 8
  22048336.692    -5769117.316 5  -4395465.514 3
  19258480.419   -25298260.104 7 -10011413.001 8
  22326502.419     8998753.828 5   6137470.914 5
  19407767.036   -24430627.016 7 -19036848.053 9
 95  2  7 18 19 59.9930000  0  6 18 14 19 22 25 29
  21194703.427   -12533962.703 5  -9502958.665 5
  18385038.841   -22467591.982 7 -17507215.172 8
  22025064.474    -5891412.143 5  -4490760.140 3
  19252650.122   -25328879.435 7 -10035272.230 8
  22335979.575     9048543.535 5   6176267.982 5
  19392378.794   -24511492.140 7 -19099859.841 9
 95  2  7 18 20 29.9930000  0  6 18 14 19 22 25 29
  21172578.185   -12650242.828 6  -9593566.529 5
  18380651.380   -22490636.163 7 -17525171.696 8
  22001813.747    -6013589.886 5  -4585963.529 4
  19246932.927   -25358931.847 7 -10058689.695 8
  22345440.286     9098272.044 5   6215017.373 5
  19376996.724   -24592319.682 7 -19162842.342 9
 95  2  7 18 20 59.9930000  0  6 18 14 19 22 25 29
  21150445.505   -12766542.553 6  -9684189.677 5
  18376365.981   -22513165.375 7 -17542726.950 8
  21978588.700    -6135657.134 5  -4681080.831 4
  19241319.310   -25388427.474 7 -10081673.303 8
  22354892.794     9147936.652 5   6253716.961 5
  19361624.216   -24673105.585 7 -19225792.404 9
 95  2  7 18 21 29.9930000  0  6 18 14 19 22 25 29
  21128309.716   -12882851.690 5  -9774820.141 5
  18372177.247   -22535168.128 7 -17559871.964 8
  21955381.169    -6257605.747 5  -4776105.670 5
  19235811.810   -25417371.322 7 -10104226.955 8
  22364334.544     9197542.227 5   6292370.548 5
  19346261.700   -24753834.680 7 -19288698.196 9
 95  2  7 18 21 59.9930000  0  6 18 14 19 22 25 29
  21106177.356   -12999167.304 6  -9865455.662 5
  18368090.021   -22556658.615 7 -17576617.824 8
  21932196.411    -6379421.618 5  -4871027.114 3
  19230405.044   -25445781.302 7 -10126364.602 8
  22373759.997     9247079.958 5   6330971.283 5
  19330916.419   -24834476.658 7 -19351536.104 9
 95  2  7 18 22 29.9930000  0  6 18 14 19 22 25 29
  21084037.677   -13115499.443 6  -9956104.067 5
  18364099.599   -22577618.090 7 -17592949.902 8
  21909045.864    -6501085.465 5  -4965830.047 4
  19225101.192   -25473657.806 7 -10148086.551 8
  22383168.786     9296538.128 5   6369510.016 5
  19315591.677   -24915016.743 7 -19414294.619 9
 95  2  7 18 22 59.9930000  0  6 18 14 19 22 25 29
  21061905.841   -13231815.117 6 -10046739.646 5
  18360220.857   -22598009.856 7 -17608839.614 8
  21885928.927    -6622563.540 5  -5060488.248 4
  19219906.849   -25500949.309 7 -10169352.656 8
  22392575.146     9345954.384 4   6408016.079 5
  19300289.911   -24995421.522 7 -19476947.696 9
 95  2  7 18 23 29.9930000  0  6 18 14 19 22 25 29
  21039780.552   -13348086.473 6 -10137340.682 5
  18356444.630   -22617836.562 7 -17624289.019 8
  21862851.200    -6743848.767 5  -5154996.153 5
  19214832.099   -25527628.453 7 -10190141.599 8
  22401975.099     9395342.856 4   6446500.513 4
  19285020.896   -25075660.911 7 -19539471.897 9
 95  2  7 18 23 59.9930000  0  6 18 14 19 22 25 29
  21017649.466   -13464390.486 6 -10227967.166 5
  18352775.021   -22637142.916 7 -17639332.950 8
  21839795.755    -6864992.063 5  -5249393.462 4
  19209859.005   -25553743.694 7 -10210491.144 8
  22411356.653     9444649.793 5   6484921.421 5
  19269774.974   -25155784.082 7 -19601905.543 9
 95  2  7 18 24 29.9930000  0  6 18 14 19 22 25 29
  20995511.419   -13580718.730 6 -10318612.523 5
  18349201.341   -22655905.023 7 -17653952.793 8
  21816772.247    -6985988.085 5  -5343676.022 4
  19205005.716   -25579270.467 7 -10230382.149 8
  22420724.802     9493892.965 5   6523292.632 4
  19254550.474   -25235789.940 7 -19664247.771 9
 95  2  7 18 24 59.9930000  0  6 18 14 19 22 25 29
  20973371.106   -13697067.054 6 -10409273.532 5
  18345731.200   -22674155.407 7 -17668173.888 8
  21793773.302    -7106854.619 5  -5437857.700 3
  19200253.396   -25604223.204 7 -10249825.851 8
  22430083.646     9543077.063 4   6561617.817 3
  19239345.411   -25315687.332 7 -19726505.482 9
 95  2  7 18 25 29.9930000  0  6 18 14 19 22 25 29
  20951230.356   -13813429.872 6 -10499945.834 5
  18342355.903   -22691894.108 7 -17681996.285 8
  21770800.239    -7227575.038 5  -5531925.495 3
  19195610.583   -25628618.675 7 -10268835.326 8
  22439436.294     9592208.415 5   6599901.882 3
  19224160.200   -25395480.802 7 -19788682.209 9
 95  2  7 18 25 59.9930000  0  6 18 14 19 22 25 29
  20929082.630   -13929798.922 6 -10590623.001 5
  18339075.708   -22709113.915 7 -17695414.339 8
  21747857.505    -7348141.438 5  -5625873.326 4
  19191077.919   -25652458.391 7 -10287411.743 8
  22448777.716     9641290.727 5   6638147.811 1
  19208994.466   -25475182.390 7 -19850787.347 9
 95  2  7 18 26 29.9930000  0  6 18 14 19 22 25 29
  20906941.122   -14046156.801 6 -10681291.447 5
  18335894.911   -22725836.281 7 -17708444.774 8
  21724939.044    -7468575.490 5  -5719717.993 5
  19186644.646   -25675747.437 7 -10305559.064 8
  22458103.974     9690316.211 5   6676349.415 2
  19193844.325   -25554798.845 7 -19912826.148 9
 95  2  7 18 26 59.9930000  0  6 18 14 19 22 25 29
  20884801.560   -14162498.631 6 -10771947.403 5
  18332810.817   -22742056.832 7 -17721084.192 8
  21702043.021    -7588882.426 5  -5813463.600 4
  19182312.856   -25698493.770 7 -10323283.496 8
  22467424.747     9739283.227 5   6714505.470 2
  19178710.450   -25634329.430 7 -19974798.026 9
 95  2  7 18 27 29.9930000  0  6 18 14 19 22 25 29
  20862664.606   -14278829.998 6 -10862595.199 5
  18329820.317   -22757773.407 7 -17733330.897 8
  21679177.638    -7709062.765 5  -5907110.563 4
  19178087.372   -25720705.633 7 -10340591.456 8
  22476726.927     9788177.864 5   6752605.142 2
  19163591.208   -25713776.961 7 -20036705.190 9
 95  2  7 18 27 59.9930000  0  6 18 14 19 22 25 29
  20840528.310   -14395148.381 6 -10953232.889 5
  18326924.685   -22772974.097 7 -17745175.617 8
  21656328.630    -7829126.688 5  -6000666.822 2
  19173965.427   -25742382.512 7 -10357482.546 8
  22486018.372     9837001.517 5   6790649.490 2
  19148492.513   -25793124.812 7 -20098534.681 9
 95  2  7 18 28 29.9930000  0  6 18 14 19 22 25 29
  20818395.653   -14511457.609 6 -11043863.427 6
  18324132.724   -22787639.540 7 -17756603.260 8
  21633504.888    -7949061.932 5  -6094122.833 4
  19169944.247   -25763522.008 7 -10373954.892 8
  22495295.474     9885758.975 5   6828642.232 2
  19133414.427   -25872359.870 7 -20160276.283 9
 95  2  7 18 28 59.9930000  0  6 18 14 19 22 25 29
  20796261.075   -14627781.373 6 -11134505.294 6
  18321443.755   -22801783.660 7 -17767624.669 8
  21610708.028    -8068860.156 5  -6187472.036 3
  19166017.669   -25784137.929 7 -10390019.252 8
  22504556.450     9934430.325 5   6866567.926 3
  19118354.544   -25951497.312 7 -20221941.813 9
 95  2  7 18 29 29.9930000  0  6 18 14 19 22 25 29
  20774122.997   -14744118.529 6 -11225157.603 6
  18318851.700   -22815409.980 7 -17778242.609 8
  21587939.896    -8188513.832 5  -6280708.627 4
  19162193.489   -25804220.053 7 -10405667.668 8
  22513803.021     9983013.176 4   6904424.637 1
  19103315.333   -26030534.521 7 -20283529.243 9
 95  2  7 18 29 59.9930000  0  6 18 14 19 22 25 29
  20751982.388   -14860473.164 6 -11315823.538 6
  18316360.958   -22828505.446 7 -17788446.898 8
  21565197.536    -8308016.374 5  -6373827.417 4
  19158477.810   -25823760.910 7 -10420894.309 8
  22523029.810    10031501.369 3   6942207.581 2
  19088293.911   -26109466.690 7 -20345034.838 9
 95  2  7 18 30 29.9930000  0  6 18 14 19 22 25 29
  20729837.403   -14976843.016 6 -11406501.325 6
  18313966.575   -22841072.608 7 -17798239.517 8
  21542487.575    -8427348.271 5  -6466813.231 5
  19154866.849   -25842740.637 7 -10435683.703 8
  22532240.716    10079883.604 4   6979907.928 4
  19073293.638   -26188298.920 7 -20406462.549 9
 95  2  7 18 30 59.9930000  0  6 18 14 19 22 25 29
  20707692.333   -15093223.231 6 -11497187.195 6
  18311671.427   -22853126.813 7 -17807632.434 8
  21519814.888    -8546513.253 5  -6559669.005 4
  19151363.341   -25861166.891 7 -10450041.824 8
  22541422.185    10128155.050 4   7017521.975 4
  19058309.208   -26267040.307 7 -20467819.471 9
 95  2  7 18 31 29.9930000  0  6 18 14 19 22 25 29
  20685544.146   -15209605.802 6 -11587874.891 6
  18309476.692   -22864662.308 7 -17816621.159 8
  21497166.638    -8665527.866 5  -6652407.581 5
  19147958.911   -25879052.685 7 -10463978.800 8
  22550586.849    10176320.808 3   7055053.634 3
  19043343.325   -26345685.136 7 -20529101.147 9
 95  2  7 18 31 59.9930000  0  5 18 14 19 22 29
  20663396.638   -15325997.309 6 -11678569.561 5
  18307377.849   -22875689.175 7 -17825213.552 8
  21474546.950    -8784396.368 5  -6745032.345 4
  19144654.411   -25896410.797 7 -10477504.595 8
  19028395.075   -26424239.161 7 -20590312.081 9
 95  2  7 18 32 29.9930000  0  5 18 14 19 22 29
  20641249.638   -15442378.791 6 -11769256.412 6
  18305378.919   -22886207.135 7 -17833409.395 8
  21451955.528    -8903118.592 5  -6837543.108 5
  19141454.356   -25913219.739 7 -10490602.463 8
  19013465.099   -26502698.320 7 -20651449.097 9
 95  2  7 18 32 59.9930000  0  5 18 14 19 22 29
  20619106.005   -15558739.297 6 -11859926.916 5
  18303475.606   -22896205.514 7 -17841200.370 8
  21429388.302    -9021695.777 5  -6929940.855 5
  19138361.021   -25929475.737 7 -10503269.467 8
  18998556.497   -26581043.963 7 -20712497.655 9
 95  2  7 18 33 29.9930000  0  5 18 14 19 22 29
  20596964.614   -15675093.993 6 -11950592.894 6
  18301676.935   -22905673.503 7 -17848578.055 8
  21406848.716    -9140139.358 5  -7022234.508 3
  19135373.903   -25945166.530 7 -10515496.048 8
  18983670.005   -26659271.463 7 -20773454.148 9
 95  2  7 18 33 59.9930000  0  5 18 14 19 22 29
  20574821.513   -15791467.823 6 -12041273.782 5
  18299970.591   -22914629.351 7 -17855556.666 8
  21384336.067    -9258458.063 5  -7114430.844 4
  19132494.841   -25960295.049 7 -10527284.499 8
  18968800.231   -26737408.103 7 -20834339.847 9
 95  2  7 18 34 29.9930000  0  5 18 14 19 22 29
  20552671.521   -15907856.370 6 -12131966.144 5
  18298365.802   -22923066.840 7 -17862131.363 8
  21361843.427    -9376651.738 5  -7206529.777 4
  19129723.349   -25974860.166 7 -10538633.938 8
  18953950.942   -26815445.146 7 -20895147.938 9
 95  2  7 18 34 59.9930000  0  5 18 14 19 22 29
  20530523.403   -16024248.511 6 -12222661.308 6
  18296859.856   -22930974.979 7 -17868293.573 8
  21339379.208    -9494707.753 5  -7298521.426 5
  19127058.685   -25988871.794 7 -10549552.091 8
  18939122.489   -26893372.135 7 -20955870.266 9
 95  2  7 18 35 29.9930000  0  5 18 14 19 22 29
  20508375.294   -16140637.883 6 -12313354.308 6
  18295454.021   -22938358.732 7 -17874047.180 8
  21316940.849    -9612619.545 5  -7390400.708 4
  19124496.005   -26002338.638 7 -10560045.740 8
  18924313.489   -26971194.773 7 -21016511.285 9
 95  2  7 18 35 59.9930000  0  5 18 14 19 22 29
  20486228.231   -16257023.197 6 -12404044.162 5
  18294144.817   -22945237.869 7 -17879407.582 8
  21294530.505    -9730385.224 5  -7482166.134 5
  19122031.122   -26015295.731 7 -10570142.179 8
  18909523.817   -27048913.731 7 -21077071.508 9
 95  2  7 18 36 29.9930000  0  5 18 14 19 22 29
  20464079.747   -16373402.748 6 -12494729.511 5
  18292928.271   -22951620.657 7 -17884381.215 8
  21272150.224    -9848006.666 5  -7573819.191 5
  19119659.466   -26027765.239 7 -10579858.683 8
  18894755.271   -27126523.243 7 -21137546.449 9
 95  2  7 18 36 59.9920000  0  5 18 14 19 22 29
  20441940.984   -16489756.830 6 -12585395.018 6
  18291813.664   -22957487.182 7 -17888952.568 8
  21249797.156    -9965456.803 5  -7665338.750 5
  19117380.422   -26039741.536 7 -10589190.875 8
  18880010.336   -27204007.826 7 -21197924.042 9
 95  2  7 18 37 29.9920000  0  5 18 14 19 22 29
  20419797.695   -16606109.927 6 -12676059.759 6
  18290791.523   -22962854.181 7 -17893134.679 8
  21227476.008   -10082760.191 5  -7756743.976 5
  19115193.977   -26051233.933 7 -10598146.004 8
  18865287.203   -27281369.162 7 -21258205.601 9
 95  2  7 18 37 59.9920000  0  5 18 14 19 22 29
  20397665.016   -16722424.090 6 -12766694.156 5
  18289871.430   -22967693.080 7 -17896905.286 8
  21205181.891   -10199893.850 5  -7848016.935 5
  19113107.852   -26062199.134 7 -10606690.328 8
  18850597.336   -27358568.106 7 -21318360.620 9
 95  2  7 18 38 29.9920000  0  5 18 14 19 22 29
  20375536.344   -16838708.561 6 -12857305.425 6
  18289045.594   -22972022.021 7 -17900278.511 8
  21182924.914   -10316874.266 5  -7939170.483 5
  19111124.188   -26072621.021 7 -10614811.298 8
  18835934.617   -27435631.466 7 -21378409.995 9
 95  2  7 18 38 59.9920000  0  5 18 14 19 22 29
  20353415.281   -16954963.722 6 -12947893.847 5
  18288317.195   -22975853.318 7 -17903263.973 8
  21160690.453   -10433714.987 5  -8030215.160 5
  19109246.414   -26082488.711 7 -10622500.439 8
  18821294.484   -27512564.574 7 -21438357.873 9
 95  2  7 18 39 29.9920000  0  5 18 14 19 22 29
  20331299.547   -17071179.603 6 -13038451.658 6
  18287680.649   -22979197.218 7 -17905869.642 8
  21138480.758   -10550422.323 5  -8121155.950 5
  19107476.297   -26091786.390 7 -10629745.404 8
  18806681.086   -27589357.810 7 -21498196.758 9
 95  2  7 18 39 59.9920000  0  5 18 14 19 22 29
  20309194.031   -17187334.326 6 -13128961.827 5
  18287143.602   -22982037.918 7 -17908083.210 8
  21116306.969   -10666960.334 5  -8211964.785 5
  19105815.641   -26100503.937 7 -10636538.327 8
  18792093.891   -27666011.959 7 -21557927.262 9
 95  2  7 18 40 29.9920000  0  5 18 14 19 22 29
  20287104.820   -17303417.133 6 -13219415.946 6
  18286702.211   -22984355.678 7 -17909889.296 8
  21094167.539   -10783299.847 5  -8302618.919 5
  19104264.055   -26108651.437 7 -10642887.055 8
  18777537.703   -27742504.623 7 -21617531.945 9
 95  2  7 18 40 59.9920000  0  5 18 14 19 22 29
  20265026.648   -17419443.817 6
  18286359.078   -22986154.475 7 -17911290.984 8
  21072062.227   -10899452.424 5
  19102818.844   -26116256.430 7 -10648813.032 8
  18763013.484   -27818829.948 7 -21677006.229 9
 95  2  7 18 41 29.9920000  0  5 18 14 19 22 29
  20242956.531   -17535411.978 6
  18286114.656   -22987415.588 7 -17912273.707 8
  21049998.766   -11015399.437 5
  19101476.281   -26123319.272 7 -10654316.578 8
  18748524.477   -27894975.244 7 -21736340.228 9
 95  2  7 18 41 59.9920000  0  5 18 14 19 22 29
  20220898.281   -17651334.611 6 -13490520.423 6
  18285986.148   -22988128.542 7 -17912829.286 8
  21027979.477   -11131129.367 5  -8573654.853 5
  19100233.320   -26129846.713 7 -10659402.913 8
  18734067.961   -27970943.597 7 -21795536.349 9
 95  2  7 18 42 29.9920000  0  5 18 14 19 22 29
  20198841.539   -17767237.719 6 -13580834.514 6
  18285953.375   -22988304.161 7
  21005990.531   -11246672.698 5  -8663688.596 5
  19099091.125   -26135841.043 7 -10664073.837 8
  18719644.438   -28046743.001 7 -21854600.824 9
 95  2  7 18 42 59.9920000  0  5 18 14 19 22 29
  20176789.852   -17883127.636 6 -13671138.323 6
  18286017.945   -22987956.188 7
  20984036.391   -11362043.344 5  -8753587.785 5
  19098052.977   -26141292.324 7 -10668321.608 8
  18705245.523   -28122400.528 7 -21913554.744 9
 95  2  7 18 43 29.9920000  0  5 18 14 19 22 29
  20154744.500   -17998984.325 6 -13761416.243 6
  18286178.867   -22987083.144 7 -17912014.780 8
  20962117.031   -11477234.038 5  -8843346.742 5
  19097121.570   -26146205.896 7 -10672150.384 8
  18690874.992   -28197922.950 7 -21972403.387 9
 95  2  7 18 43 59.9920000  0  5 18 14 19 22 29
  20132703.172   -18114800.954 6 -13851662.946 6
  18286444.774   -22985698.661 7 -17910936.000 8
  20940228.719   -11592253.298 5  -8932972.113 5
  19096286.125   -26150580.931 7 -10675559.508 8
  18676527.797   -28273317.330 7 -22031152.264 9
 95  2  7 18 44 29.9920000  0  5 18 14 19 22 29
  20110672.586   -18230574.908 6 -13941876.392 6
  18286803.289   -22983827.318 7 -17909477.838 8
  20918368.422   -11707122.134 5  -9022480.269 5
  19095552.328   -26154431.511 7 -10678559.981 8
  18662201.461   -28348596.132 7 -22089811.078 9
 95  2  7 18 44 59.9920000  0  5 18 14 19 22 29
  20088655.633   -18346279.284 6 -14032035.628 6
  18287247.273   -22981466.486 7 -17907638.265 8
  20896541.211   -11821832.884 5  -9111865.229 5
  19094920.031   -26157771.613 7 -10681162.663 8
  18647902.430   -28423745.584 7 -22148369.095 9
 95  2  7 18 45 29.9920000  0  5 18 14 19 22 29
  20066652.031   -18461909.796 6 -14122137.307 6
  18287793.836   -22978604.225 7 -17905407.963 8
  20874744.117   -11936378.690 5  -9201121.684 5
  19094381.320   -26160595.932 7 -10683363.443 8
  18633632.750   -28498730.344 7 -22206798.781 9
 95  2  7 18 45 59.9920000  0  5 18 14 19 22 29
  20044654.039   -18577503.895 6 -14212210.616 6
  18288437.563   -22975253.903 7 -17902797.367 8
  20852973.336   -12050783.269 5  -9290268.064 5
  19093938.492   -26162913.317 7 -10685169.220 8
  18619392.070   -28573565.211 7 -22265111.672 9
 95  2  7 18 46 29.9920000  0  5 18 14 19 22 29
  20022661.594   -18693067.612 6 -14302260.262 6
  18289164.883   -22971405.898 7 -17899798.951 8
  20831228.172   -12165050.641 5  -9379307.527 5
  19093593.664   -26164739.686 7 -10686592.378 9
  18605179.586   -28648249.739 7 -22323307.414 9
 95  2  7 18 46 59.9920000  0  5 18 14 19 22 29
  20000679.649   -18808598.973 6 -14392284.689 6
  18289995.219   -22967039.476 7 -17896396.576 8
  20809512.117   -12279169.039 5  -9468230.928 5
  19093344.945   -26166057.979 7 -10687619.640 8
  18590998.266   -28722779.510 7 -22381382.563 9
 95  2  7 18 47 29.9920000  0  5 18 14 19 22 29
  19978698.070   -18924105.852 6 -14482290.037 6
  18290929.625   -22962144.377 7 -17892582.245 8
  20787824.664   -12393127.021 5  -9557029.320 5
  19093193.524   -26166837.584 7 -10688227.144 8
  18576843.602   -28797159.121 7 -22439340.706 9
 95  2  7 18 47 59.9920000  0  5 18 14 19 22 29
  19956722.820   -19039576.155 6 -14572266.887 6
  18291959.008   -22956728.418 7 -17888362.056 8
  20766174.344   -12506913.816 5  -9645694.337 5
  19093148.977   -26167070.068 7
  18562716.500   -28871400.677 7 -22497191.272 9
 95  2  7 18 48 29.9920000  0  5 18 14 19 22 29
  19934761.391   -19154990.952 6 -14662200.481 6
  18293085.188   -22950806.524 7 -17883747.620 8
  20744555.649   -12620522.496 5  -9734220.552 5
  19093210.234   -26166745.507 7
  18548616.719   -28945493.033 7 -22554925.575 9
 95  2  7 18 48 59.9920000  0  5 18 14 19 22 29
  19912811.180   -19270356.652 6 -14752095.822 6
  18294306.875   -22944396.384 7 -17878752.741 8
  20722971.055   -12733952.867 5  -9822607.820 5
  19093379.875   -26165859.739 7 -10687465.255 8
  18534547.672   -29019429.169 7 -22612538.150 9
 95  2  7 18 49 29.9920000  0  5 18 14 19 22 29
  19890866.641   -19385666.505 6 -14841947.639 6
  18295615.727   -22937505.147 7 -17873382.977 8
  20701418.922   -12847202.489 5  -9910854.262 5
  19093651.727   -26164434.352 7 -10686354.583 8
  18520511.281   -29093184.428 7 -22670009.787 9
 95  2  7 18 49 59.9920000  0  5 18 14 19 22 29
  19868937.406   -19500901.915 6 -14931741.456 6
  18297020.602   -22930134.312 7 -17867639.500 8
  20679905.836   -12960269.574 5  -9998958.451 5
  19094017.922   -26162493.263 7 -10684842.068 8
  18506514.258   -29166739.153 7 -22727325.160 9
 95  2  7 18 50 29.9920000  0  5 18 14 19 22 29
  19847021.203   -19616078.780 6 -15021489.652 6
  18298514.672   -22922271.924 7 -17861512.999 8
  20658417.359   -13073168.097 6 -10086931.308 5
  19094483.742   -26160063.435 7 -10682948.724 8
  18492556.133   -29240091.247 7 -22784482.638 9
 95  2  7 18 50 59.9920000  0  5 18 14 19 22 29
  19825114.711   -19731194.108 6 -15111189.897 6
  18300110.906   -22913896.880 7 -17854987.032 8
  20636970.688   -13185887.096 6 -10174764.281 5
  19095035.727   -26157152.703 7 -10680680.637 8
  18478637.844   -29313238.971 7 -22841480.872 9
 95  2  7 18 51 29.9920000  0  5 18 14 19 22 29
  19803222.836   -19846238.302 6 -15200834.708 6
  18301801.078   -22905004.479 7 -17848057.930 8
  20615555.258   -13298423.380 6 -10262454.867 5
  19095683.320   -26153758.114 7 -10678035.527 9
  18464756.328   -29386179.412 7 -22898317.588 9
 95  2  7 18 51 59.9920000  0  5 18 14 19 22 29
  19781340.219   -19961227.697 6 -15290436.817 6
  18303589.641   -22895610.528 7 -17840738.012 8
  20594171.875   -13410791.040 6 -10350014.069 5
  19096424.836   -26149867.768 7 -10675004.105 8
  18450912.141   -29458936.588 7 -22955011.501 9
 95  2  7 18 52 29.9920000  0  5 18 14 19 22 29
  19759471.281   -20076165.232 6 -15379998.511 6
  18305473.117   -22885720.806 7 -17833031.766 8
  20572824.266   -13522978.079 5 -10437432.522 5
  19097259.836   -26145463.268 7 -10671572.049 8
  18437100.734   -29531513.396 7 -23011564.861 9
 95  2  7 18 52 59.9920000  0  5 18 14 19 22 29
  19737610.227   -20191025.865 6 -15469500.287 6
  18307443.992   -22875345.759 7 -17824947.352 8
  20551516.141   -13634965.901 6 -10524695.754 5
  19098201.594   -26140528.505 7 -10667726.807 8
  18423325.516   -29603902.588 7 -23067972.029 9
 95  2  7 18 53 29.9920000  0  5 18 14 19 22 29
  19715771.102   -20305800.625 6 -15558935.149 6
  18309513.930   -22864487.040 7 -17816486.052 8
  20530243.344   -13746750.651 5 -10611800.745 5
  19099238.688   -26135063.788 7 -10663468.607 8
  18409586.586   -29676101.908 7 -23124231.256 9
 95  2  7 18 53 59.9920000  0  5 18 14 19 22 29
  19693950.617   -20420472.985 6 -15648290.226 6
  18311672.781   -22853133.848 7 -17807639.447 8
  20509010.672   -13858319.476 5 -10698737.468 5
  19100382.883   -26129069.555 7 -10658797.798 8
  18395882.234   -29748116.977 7 -23180346.902 9
 95  2  7 18 54 29.9920000  0  5 18 14 19 22 29
  19672149.125   -20535029.848 6 -15737555.303 6
  18313931.539   -22841267.780 7 -17798393.203 8
  20487824.680   -13969661.871 6 -10785497.767 5
  19101618.992   -26122556.601 7 -10653722.794 8
  18382213.234   -29819951.866 7 -23236322.140 9
 95  2  7 18 54 59.9920000  0  5 18 14 19 22 29
  19650372.727   -20649469.722 6 -15826729.211 6
  18316285.242   -22828892.940 7 -17788750.510 8
  20466671.477   -14080804.108 6 -10872102.094 5
  19102955.016   -26115549.747 7 -10648262.923 8
  18368574.961   -29891615.779 7 -23292164.156 9
 95  2  7 18 55 29.9910000  0  5 18 14 19 22 29
  19628617.480   -20763799.721 6 -15915817.507 6
  18318738.183   -22816007.149 7 -17778709.678 8
  20445560.456   -14191748.919 6 -10958552.577 5
  19104379.800   -26108046.289 7 -10642416.096 8
  18354972.019   -29963104.503 7 -23347869.664 9
 95  2  7 18 55 59.9910000  0  5 18 14 19 22 29
  19606881.456   -20878018.411 6 -16004819.063 6
  18321288.503   -22802598.267 7 -17768261.236 8
  20424484.401   -14302501.209 6 -11044853.051 5
  19105911.347   -26100019.069 7 -10636161.138 8
  18341402.370   -30034410.380 7 -23403432.692 9
 95  2  7 18 56 29.9910000  0  5 18 14 19 22 29
  19585166.542   -20992127.880 6 -16093735.522 6
  18323941.316   -22788671.474 7 -17757409.228 8
  20403447.378   -14413066.569 6 -11131007.851 5
  19107533.644   -26091473.752 7 -10629502.464 8
  18327870.815   -30105517.342 7 -23458840.719 9
 95  2  7 18 56 59.9910000  0  5 18 14 19 22 29
  19563471.292   -21106144.170 6 -16182579.376 6
  18326683.511   -22774254.574 7 -17746175.328 8
  20382439.550   -14523451.952 6 -11217022.421 5
  19109259.667   -26082418.579 7 -10622446.499 8
  18314379.917   -30176417.325 7 -23514087.465 9
 95  2  7 18 57 29.9910000  0  5 18 14 19 22 29
  19541788.620   -21220080.034 6 -16271360.556 6
  18329521.972   -22759344.183 7 -17734556.892 8
  20361471.761   -14633638.140 6 -11302881.759 5
  19111081.089   -26072841.553 7 -10614983.901 8
  18300926.315   -30247112.088 7 -23569174.304 9
 95  2  7 18 57 59.9910000  0  5 18 14 19 22 29
  19520125.112   -21333927.058 6 -16360072.510 6
  18332451.940   -22743943.687 7 -17722556.552 8
  20340538.534   -14743633.548 6 -11388592.450 5
  19113000.948   -26062758.356 7 -10607126.879 7
  18287513.144   -30317601.072 7 -23624100.790 9
 95  2  7 18 58 29.9910000  0  5 18 14 19 22 29
  19498476.097   -21447684.081 6 -16448714.342 6
  18335472.987   -22728061.466 7 -17710180.838 8
  20319648.534   -14853424.079 6 -11474143.488 5
  19115010.370   -26052190.516 7 -10598892.213 7
  18274142.511   -30387870.619 7 -23678856.289 9
 95  2  7 18 58 59.9910000  0  5 18 14 19 22 29
  19476846.394   -21561355.783 6 -16537289.688 6
  18338587.690   -22711705.082 7 -17697435.651 8
  20298793.690   -14963010.338 6 -11559535.348 5
  19117112.948   -26041132.531 7 -10590275.608 8
  18260811.878   -30457922.568 7 -23733442.230 9
 95  2  7 18 59 29.9910000  0  5 18 14 19 22 29
  19455232.456   -21674935.412 6 -16625793.285 6
  18341787.120   -22694875.194 7 -17684321.501 8
  20277975.433   -15072412.058 6 -11644783.401 5
  19119313.651   -26029587.629 7 -10581279.589 8
  18247520.667   -30527761.134 7 -23787861.900 9
 95  2  7 18 59 59.9910000  0  5 18 14 19 22 29
  19433636.878   -21788416.747 6 -16714220.297 6
  18345082.308   -22677580.136 7 -17670844.878 8
  20257190.550   -15181647.389 6 -11729901.815 5
  19121597.058   -26017572.049 7 -10571916.810 7
  18234275.948   -30597369.518 7 -23842102.211 9
 95  2  7 19  0 29.9910000  0  5 18 14 19 22 29
  19412059.737   -21901813.859 6 -16802581.676 6
  18348458.370   -22659819.508 7 -17657005.476 8
  20236435.472   -15290712.523 6 -11814887.592 6
  19123977.050   -26005083.979 7 -10562185.861 7
  18221072.136   -30666752.438 7 -23896166.823 9
 95  2  7 19  0 59.9910000  0  5 18 14 19 22 29
  19390497.542   -22015123.935 7 -16890875.237 7
  18351931.323   -22641581.900 7 -17642794.403 8
  20215712.331   -15399620.896 6 -11899751.215 5
  19126442.042   -25992115.625 7 -10552080.661 8
  18207911.175   -30735917.874 7 -23950061.989 9
 95  2  7 19  1 29.9910000  0  5 18 14 19 22 29
  19368956.940   -22128316.959 7 -16979077.588 7
  18355499.261   -22622823.312 7 -17628177.367 8
  20195018.808   -15508346.623 6 -11984472.529 6
  19129006.237   -25978651.069 7 -10541588.811 7
  18194795.644   -30804841.268 7 -24003768.536 9
 95  2  7 19  1 59.9910000  0  5 18 14 19 22 29
  19347440.026   -22241394.748 7 -17067190.142 6
  18359169.151   -22603542.178 7 -17613153.160 8
  20174366.120   -15616880.797 6 -12069044.570 5
  19131657.948   -25964705.336 7 -10530722.013 8
  18181723.448   -30873532.388 7 -24057294.092 9
 95  2  7 19  2 29.9910000  0  5 18 14 19 22 29
  19325941.901   -22354370.114 7 -17155222.889 7
  18362935.862   -22583753.415 7 -17597733.395 8
  20153747.987   -15725224.785 6 -12153468.418 5
  19134403.276   -25950284.235 7 -10519484.805 8
  18168690.425   -30942013.740 7 -24110656.195 9
 95  2  7 19  2 59.9910000  0  5 18 14 19 22 29
  19304462.808   -22467241.130 7 -17243174.320 7
  18366794.901   -22563468.942 7 -17581927.367 8
  20133167.190   -15833377.368 6 -12237743.115 5
  19137237.800   -25935383.541 7 -10507873.886 8
  18155703.042   -31010277.827 7 -24163848.998 9
 95  2  7 19  3 29.9910000  0  5 18 14 19 22 29
  19283003.378   -22580006.246 7 -17331043.230 7
  18370744.753   -22542716.164 7 -17565756.421 8
  20112625.839   -15941328.459 6 -12321860.830 5
  19140165.097   -25920005.187 7 -10495890.774 8
  18142753.659   -31078320.857 7 -24216869.551 9
 95  2  7 19  3 59.9910000  0  5 18 14 19 22 29
  19261562.019   -22692679.795 7 -17418840.790 7
  18374771.722   -22521547.923 7 -17549261.739 8
  20092121.120   -16049090.093 6 -12405830.903 6
  19143181.339   -25904159.541 7 -10483543.545 8
  18129843.565   -31146163.643 7 -24269734.065 9
 95  2  7 19  4 29.9910000  0  5 18 14 19 22 29
  19240139.472   -22805254.770 6 -17506561.536 7
  18378882.151   -22499960.804 7 -17532440.652 8
  20071653.714   -16156644.201 6 -12489639.251 5
  19146287.191   -25887819.019 6 -10470810.691 8
  18116974.308   -31213789.589 7 -24322429.616 9
 95  2  7 19  4 59.9910000  0  5 18 14 19 22 29
  19218748.847   -22917677.748 7 -17594163.844 7
  18383075.253   -22477912.344 7 -17515260.085 8
  20051230.948   -16263948.403 6 -12573252.897 5
  19149502.831   -25870940.370 6 -10457658.518 8
  18104151.972   -31281164.405 7 -24374929.484 9
 95  2  7 19  5 29.9910000  0  5 18 14 19 22 29
  19197376.120   -23029980.370 7 -17681672.377 7
  18387352.237   -22455441.863 7 -17497750.660 8
  20030855.511   -16371045.000 6 -12656704.760 6
  19152804.144   -25853584.262 6 -10444134.304 8
  18091369.972   -31348342.291 7 -24427275.896 9
 95  2  7 19  5 59.9910000  0  5 18 14 19 22 29
  19176031.206   -23142156.605 7 -17769082.421 7
  18391716.003   -22432518.575 7 -17479888.410 8
  20010514.769   -16477933.613 6 -12739994.563 6
  19156196.737   -25835748.779 6 -10430236.557 8
  18078624.370   -31415321.639 7 -24479467.597 9
 95  2  7 19  6 29.9910000  0  5 18 14 19 22 29
  19154705.526   -23254218.484 7 -17856403.350 7
  18396162.253   -22409140.164 7 -17461671.520 8
  19990210.308   -16584635.803 6 -12823139.104 6
  19159677.597   -25817466.323 7 -10415990.521 8
  18065912.573   -31482121.356 7 -24531519.336 9
 95  2  7 19  6 59.9910000  0  5 18 14 19 22 29
  19133406.409   -23366145.715 7 -17943619.364 7
  18400700.347   -22385297.229 7 -17443092.655 8
  19969938.394   -16691159.576 6 -12906144.617 6
  19163240.433   -25798745.883 7 -10401403.194 8
  18053237.995   -31548721.794 7 -24583415.786 9
 95  2  7 19  7 29.9910000  0  6 28 18 14 19 22 29
  22089200.542          -0.84013
  19112134.573   -23477931.843 7 -18030725.428 7
  18405330.870   -22360977.900 7 -17424142.585 8
  19949703.472   -16797497.481 6 -12989005.290 6
  19166884.878   -25779582.885 7 -10386471.015 7
  18040611.073   -31615084.970 7 -24635127.351 9
 95  2  7 19  7 59.9910000  0  6 28 18 14 19 22 29
  22067720.808     -112890.548 3        -0.49412
  19090886.839   -23589590.391 7 -18117732.077 7
  18410043.550   -22336193.390 7 -17404830.029 8
  19929498.730   -16903669.945 6 -13071737.051 6
  19170618.698   -25759982.285 7 -10371197.858 7
  18028028.487   -31681205.615 7 -24686649.932 9
 95  2  7 19  8 29.9910000  0  6 28 18 14 19 22 29
  22046248.612     -225727.489 3    -87925.235 1
  19069660.073   -23701135.303 7 -18204650.181 7
  18414844.495   -22310969.734 7 -17385175.283 8
  19909323.401   -17009692.484 6 -13154352.003 6
  19174426.636   -25739961.613 7 -10355597.366 7
  18015491.503   -31747079.133 7 -24737979.956 9
 95  2  7 19  8 59.9910000  0  6 28 18 14 19 22 29
  22024789.097     -338506.776 4   -175805.058 2
  19048454.620   -23812572.515 7 -18291484.362 7
  18419727.550   -22285314.724 7 -17365184.414 8
  19889176.722   -17115555.648 6 -13236842.747 5
  19178316.597   -25719512.126 7 -10339662.733 7
  18003009.073   -31812681.296 7 -24789098.524 9
 95  2  7 19  9 29.9910000  0  6 28 18 14 19 22 29
  22003335.339     -451227.411 4   -263639.138 3
  19027267.933   -23923910.319 7 -18378241.087 7
  18424686.589   -22259242.063 7 -17344868.107 8
  19869066.105   -17221249.957 6 -13319201.924 6
  19182292.073   -25698633.117 7 -10323393.403 7
  17990575.620   -31878022.223 7 -24840013.536 9
 95  2  7 19  9 59.9910000  0  6 28 18 14 19 22 29
  21981902.222     -563868.816 3   -351411.515 2
  19006102.659   -24035120.821 7 -18464898.616 7
  18429733.526   -22232737.691 7 -17324215.397 8
  19848990.355   -17326748.635 6 -13401408.656 6
  19186349.019   -25677302.885 7 -10306772.472 7
  17978193.073   -31943093.169 7 -24890718.172 9
 95  2  7 19 10 29.9910000  0  6 28 18 14 19 22 29
  21960481.761     -676427.450 3   -439119.418 3
  18984967.011   -24146204.189 7 -18551457.081 7
  18434856.745   -22205806.381 7 -17303230.003 8
  19828953.980   -17432036.502 6 -13483451.130 6
  19190495.628   -25655522.308 7 -10289800.618 7
  17965861.214   -32007897.120 7 -24941214.757 9
 95  2  7 19 10 59.9910000  0  6 28 18 14 19 22 29
  21939076.409     -788903.480 2   -526762.953 1
  18963853.620   -24257155.258 7 -18637912.453 7
  18440059.792   -22178450.545 7 -17281913.821 8
  19808957.144   -17537113.429 6 -13565329.214 6
  19194724.870   -25633293.811 7 -10272479.743 7
  17953575.980   -32072459.897 7 -24991523.420 9
 95  2  7 19 11 29.9910000  0  6 28 18 14 19 22 29
  21917690.925     -901300.909 3   -614345.251 2
  18942765.675   -24367973.584 7 -18724264.397 7
  18445352.237   -22150661.460 7 -17260260.025 8
  19788999.409   -17641984.098 6 -13647046.603 6
  19199038.862   -25610620.334 7 -10254812.125 7
  17941330.464   -32136804.646 7 -25041662.187 9
 95  2  7 19 11 59.9910000  0  6 28 18 14 19 22 29
  21896320.542    -1013609.273 3   -701858.168 1
  18921703.612   -24478656.081 7 -18810510.494 7
  18450727.355   -22122410.861 7 -17238246.620 7
  19769085.112   -17746646.025 6 -13728601.321 6
  19203440.425   -25587492.686 7 -10236790.609 7
  17929131.550   -32200915.751 7 -25091618.885 9
 95  2  7 19 12 29.9910000  0  6 28 18 14 19 22 29
  21874964.058    -1125825.156 3   -789299.003 1
  18900664.308   -24589211.279 7 -18896657.404 7
  18456190.292   -22093693.952 7 -17215869.852 8
  19749207.636   -17851104.849 6 -13809997.784 6
  19207930.097   -25563907.371 7 -10218412.463 7
  17916976.198   -32264790.610 7 -25141391.504 9
 95  2  7 19 12 59.9910000  0  6 28 18 14 19 22 29
  21853628.269    -1237946.510 3   -876666.198 1
  18879653.339   -24699631.818 7 -18982699.381 7
  18461746.480   -22064507.145 7 -17193126.937 8
  19729367.159   -17955367.601 6 -13891241.463 6
  19212503.565   -25539858.165 7 -10199672.835 7
  17904867.425   -32328427.965 7 -25190979.048 9
 95  2  7 19 13 29.9910000  0  6 28 18 14 19 22 29
  21832312.183    -1349967.383 3   -963955.107 1
  18858665.456   -24809918.570 7 -19068637.107 7
  18467388.620   -22034852.733 7 -17170019.644 7
  19709564.159   -18059437.861 6 -13972335.153 6
  19217166.675   -25515359.296 7 -10180582.829 7
  17892807.745   -32391803.170 7 -25240362.326 9
 95  2  7 19 13 59.9900000  0  6 28 18 14 19 22 29
  21811017.732    -1461894.155 3  -1051170.681 1
  18837703.779   -24920077.380 7 -19154475.135 7
  18473111.568   -22004767.564 7 -17146576.703 8
  19689790.842   -18163337.894 6 -14053296.184 6
  19221909.787   -25490441.290 6 -10161166.217 7
  17880796.084   -32454922.250 7 -25289546.026 9
 95  2  7 19 14 29.9900000  0  6 28 18 14 19 22 29
  21789727.264    -1573725.954 2  -1138312.239 1
  18816767.756   -25030094.439 7 -19240202.715 7
  18478919.490   -21974265.928 7 -17122809.247 7
  19670053.303   -18267059.236 6 -14134117.987 6
  19226726.467   -25465116.083 7 -10141432.304 7
  17868830.131   -32517798.655 7 -25338540.626 9
 95  2  7 19 14 59.9900000  0  6 28 18 14 19 22 29
  21768463.022    -1685448.160 1  -1225368.405 1
  18795864.779   -25139947.724 7 -19325802.675 7
  18484799.943   -21943353.346 7 -17098721.567 7
  19650351.740   -18370591.478 6 -14214792.438 6
  19231624.225   -25439396.561 7 -10121391.138 7
  17856912.998   -32580424.744 7 -25387340.179 9
 95  2  7 19 15 29.9900000  0  5 18 14 19 22 29
  18774985.553   -25249660.019 7 -19411292.770 7
  18490755.803   -21912053.366 7 -17074332.012 7
  19630685.248   -18473945.711 6 -14295328.174 6
  19236586.990   -25413306.448 6 -10101061.202 7
  17845041.342   -32642807.854 7 -25435950.394 9
 95  2  7 19 15 59.9900000  0  5 18 14 19 22 29
  18754134.553   -25359230.840 7 -19496672.623 7
  18496785.482   -21880372.027 7 -17049645.301 7
  19611055.482   -18577106.362 6 -14375713.070 6
  19241624.647   -25386829.174 6 -10080429.576 7
  17833214.576   -32704961.907 7 -25484382.121 9
 95  2  7 19 16 29.9900000  0  6 28 18 14 19 22 29
  21704804.670          -0.28912
  18733311.397   -25468657.121 7 -19581939.853 7
  18502883.615   -21848315.505 7 -17024666.232 7
  19591462.897   -18680068.998 6 -14455943.666 6
  19246741.920   -25359953.778 6 -10059487.737 7
  17821430.662   -32766886.302 7 -25532634.897 9
 95  2  7 19 16 59.9900000  0  6 28 18 14 19 22 29
  21683627.342     -111302.328 2
  18712517.483   -25577934.469 7 -19667091.029 7
  18509058.701   -21815873.358 7 -16999386.678 7
  19571906.779   -18782833.502 6 -14536019.873 6
  19251934.287   -25332650.158 6 -10038212.215 7
  17809696.256   -32828549.514 7 -25580684.155 9
 95  2  7 19 17 29.9900000  0  5 18 14 19 22 29
  18691752.459   -25687062.324 7 -19752125.713 7
  18515310.654   -21783031.078 7 -16973795.332 7
  19552388.170   -18885390.786 6 -14615934.623 6
  19257215.217   -25304899.113 6 -10016588.058 8
  17798015.358   -32889939.711 7 -25628520.676 9
 95  2  7 19 17 59.9900000  0  5 18 14 19 22 29
  18671016.701   -25796018.123 7 -19837026.327 7
  18521635.600   -21749782.571 7 -16947887.453 7
  19532910.467   -18987748.294 6 -14695693.691 6
  19262582.967   -25276700.957 6  -9994615.501 7
  17786383.639   -32951065.257 7 -25676150.970 9
 95  2  7 19 18 29.9900000  0  6 28 18 14 19 22 29
  21620233.967          -0.97012
  18650312.818   -25904816.352 7 -19921804.157 8
  18528038.475   -21716129.385 7 -16921664.237 7
  19513468.201   -19089931.279 6 -14775316.767 6
  19268029.967   -25248079.118 6  -9972312.804 8
  17774802.662   -33011915.498 7 -25723566.744 9
 95  2  7 19 18 59.9900000  0  6 28 18 14 19 22 29
  21599156.818     -110763.675 2
  18629643.318   -26013446.936 7 -20006451.354 8
  18534527.436   -21682046.900 7 -16895106.494 7
  19494055.162   -19191929.283 6 -14854795.702 6
  19273554.623   -25219035.846 6  -9949681.711 8
  17763278.162   -33072474.424 7 -25770755.519 9
 95  2  7 19 19 29.9900000  0  6 28 18 14 19 22 29
  21578100.670     -221397.672 3        -0.06111
  18609001.772   -26121912.602 7 -20090970.047 8
  18541090.373   -21647555.338 7 -16868230.004 7
  19474681.568   -19293748.062 6 -14934134.978 6
  19279156.061   -25189608.534 6  -9926751.377 8
  17751802.436   -33132769.761 7 -25817738.902 9
 95  2  7 19 19 59.9900000  0  6 28 18 14 19 22 29
  21557075.561     -331903.325 2    -86108.228 1
  18588394.084   -26230201.762 7 -20175351.199 8
  18547730.779   -21612652.028 7 -16841032.663 7
  19455342.295   -19395382.468 6 -15013330.592 6
  19284829.529   -25159799.861 6  -9903523.873 7
  17740381.733   -33192797.866 7 -25864514.051 9
 95  2  7 19 20 29.9900000  0  6 28 18 14 19 22 29
  21536069.506     -442271.929 3   -172109.604 1
  18567822.186   -26338316.224 7 -20259596.224 8
  18554454.764   -21577332.356 6 -16813510.885 7
  19436037.256   -19496817.168 6 -15092370.580 6
  19290574.162   -25129603.108 6  -9879993.965 7
  17729010.506   -33252549.884 7 -25911074.072 9
 95  2  7 19 20 59.9900000  0  6 28 18 14 19 22 29
  21515100.670     -552501.648 3   -258002.784 1
  18547283.350   -26446241.602 7 -20343693.918 7
  18561251.201   -21541604.459 6 -16785671.014 7
  19416776.436   -19598043.759 6 -15171248.406 6
  19296396.693   -25099009.302 6  -9856154.661 7
  17717689.842   -33312049.578 7 -25957437.470 9
 95  2  7 19 21 29.9900000  0  6 28 18 14 19 22 29
  21494148.779     -662586.415 3   -343782.981 2
  18526780.553   -26553984.413 7 -20427649.342 8
  18568125.436   -21505473.820 6 -16757517.320 7
  19397555.764   -19699058.108 6 -15249960.849 6
  19302297.631   -25068009.576 6  -9831999.065 7
  17706414.787   -33371295.446 7 -26003603.085 9
 95  2  7 19 21 59.9900000  0  6 28 18 14 19 22 29
  21473229.443     -772529.275 3   -429452.621 3
  18506309.326   -26661572.488 7 -20511484.197 8
  18575076.803   -21468947.645 6 -16729055.403 7
  19378366.428   -19799881.297 6 -15328524.345 6
  19308269.483   -25036607.497 6  -9807529.935 7
  17695190.248   -33430288.980 7 -26049572.078 9
 95  2  7 19 22 29.9900000  0  6 28 18 14 19 22 29
  21452335.404     -882311.235 3   -514996.902 2
  18485864.568   -26768996.850 7 -20595191.489 7
  18582104.420   -21432029.375 6 -16700287.975 7
  19359223.342   -19900497.340 6 -15406926.423 6
  19314322.115   -25004802.813 6  -9782747.083 7
  17684013.873   -33489013.647 7 -26095331.556 9
 95  2  7 19 22 59.9900000  0  6 28 18 14 19 22 29
  21431477.881     -991914.561 3   -600401.966 1
  18465457.232   -26876244.691 7 -20678761.228 7
  18589202.982   -21394712.839 6 -16671210.201 7
  19340115.436   -20000895.242 6 -15485158.530 6
  19320455.170   -24972590.652 6  -9757646.709 7
  17672897.311   -33547432.785 7 -26140852.967 9
 95  2  7 19 23 29.9900000  0  6 28 18 14 19 22 29
  21410653.490    -1101344.442 3   -685671.899 2
  18445077.662   -26983333.526 7 -20762207.070 7
  18596379.943   -21357007.094 6 -16641829.134 7
  19321048.858   -20101097.743 6 -15563238.370 6
  19326655.381   -24939998.265 6  -9732250.065 7
  17661840.373   -33605535.811 7 -26186128.054 9
 95  2  7 19 23 59.9900000  0  6 28 18 14 19 22 29
  21389862.717    -1210603.957 3   -770809.128 4
  18424731.561   -27090255.415 7 -20845522.820 7
  18603626.959   -21318915.624 6 -16612147.509 7
  19302015.975   -20201112.640 6 -15641172.017 6
  19332927.459   -24907035.850 6  -9706565.080 7
  17650844.131   -33663325.174 7 -26231158.726 9
 95  2  7 19 24 29.9900000  0  6 28 18 14 19 22 29
  21369105.693    -1319685.969 3   -855807.982 1
  18404420.748   -27196985.581 7 -20928689.176 7
  18610947.615   -21280436.493 6 -16582163.818 7
  19283021.381   -20300932.315 6 -15718953.563 6
  19339273.006   -24873695.658 6  -9680585.716 7
  17639908.115   -33720791.536 7 -26275937.708 9
 95  2  7 19 24 59.9900000  0  6 28 18 14 19 22 29
  21348383.037    -1428579.841 3   -940660.225 3
  18384150.342   -27303513.684 7 -21011698.080 7
  18618347.014   -21241563.463 6 -16551873.180 7
  19264062.240   -20400560.343 6 -15796585.769 6
  19345691.662   -24839958.415 6  -9654296.967 6
  17629035.943   -33777926.947 7 -26320458.801 9
 95  2  7 19 25 29.9900000  0  6 28 18 14 19 22 29
  21327698.568    -1537288.038 3  -1025367.832 2
  18363915.443   -27409844.754 7 -21094553.454 7
  18625815.561   -21202315.996 6 -16521290.784 7
  19245137.053   -20500005.188 6 -15874075.238 6
  19352186.139   -24805827.831 6  -9627701.724 6
  17618221.717   -33834759.229 7 -26364743.687 9
 95  2  7 19 25 59.9900000  0  6 28 18 14 19 22 29
  21307045.834    -1645804.598 3  -1109926.088 3
  18343721.615   -27515964.302 7 -21177243.998 8
  18633353.029   -21162711.783 6 -16490430.393 7
  19226252.381   -20599249.696 6 -15951408.596 6
  19358755.084   -24771310.028 6  -9600804.735 6
  17607463.076   -33891292.857 7 -26408795.858 9
 95  2  7 19 26 29.9900000  0  6 28 18 14 19 22 29
  21286436.318    -1754120.639 3  -1194328.090 2
  18323568.990   -27621864.816 7 -21259763.868 8
  18640956.014   -21122754.596 6 -16459294.963 7
  19207407.334   -20698281.703 6 -16028576.370 6
  19365396.725   -24736408.646 6  -9573608.864 6
  17596762.311   -33947523.211 7 -26452611.714 9
 95  2  7 19 26 59.9900000  0  6 28 18 14 19 22 29
  21265858.928    -1862237.318 3  -1278574.740 2
  18303457.475   -27727559.905 7 -21342123.678 8
  18648628.225   -21082446.271 6 -16427885.924 7
  19188602.654   -20797103.332 6 -16105580.224 6
  19372108.131   -24701137.904 6  -9546125.178 6
  17586115.850   -34003471.159 7 -26496207.516 8
 95  2  7 19 27 29.9900000  0  6 28 18 14 19 22 29
  21245328.436    -1970159.470 3  -1362669.845 1
  18283382.170   -27833054.545 7 -21424327.268 8
  18656365.959   -21041776.207 6 -16396195.006 7
  19169838.904   -20895705.395 6 -16182412.989 6
  19378889.162   -24665512.724 6  -9518365.314 6
  17575521.475   -34059146.749 7 -26539591.086 8
 95  2  7 19 27 59.9900000  0  6 28 18 14 19 22 29
  21224824.568    -2077877.489 3  -1446605.830 2
  18263349.889   -27938324.863 7 -21506356.076 8
  18664179.412   -21000712.065 6 -16364197.005 7
  19151123.147   -20994065.872 6 -16259057.506 6
  19385738.428   -24629520.796 6  -9490319.677 6
  17564982.311   -34114528.208 7 -26582745.472 8
 95  2  7 19 28 29.9900000  0  6 28 18 14 19 22 29
  21204369.514    -2185388.458 3  -1530380.522 1
  18243360.162   -28043376.591 7 -21588214.547 8
  18672075.014   -20959229.623 6 -16331873.066 7
  19132447.678   -21092195.876 6 -16335522.446 6
  19392658.443   -24593139.643 6  -9461970.748 6
  17554503.662   -34169603.044 7 -26625660.924 8
 95  2  7 19 28 59.9900000  0  6 28 18 14 19 22 29
  21183951.725    -2292688.113 3  -1613990.558 1
  18223408.873   -28148212.642 7 -21669904.963 8
  18680046.936   -20917329.629 6 -16299223.762 7
  19113819.248   -21190099.941 6 -16411811.306 6
  19399659.287   -24556352.991 6  -9433305.839 6
  17544080.787   -34224364.037 7 -26668331.827 9
 95  2  7 19 29 29.9900000  0  6 28 18 14 19 22 29
  21163565.318    -2399786.562 3  -1697443.774 2
  18203501.162   -28252836.637 7 -21751430.140 8
  18688092.623   -20875039.304 6 -16266270.304 7
  19095227.561   -21287790.981 6 -16487934.186 6
  19406735.154   -24519176.634 6  -9404337.272 6
  17533724.912   -34278794.445 7 -26710745.134 8
 95  2  7 19 29 59.9900000  0  6 28 18 14 19 22 29
  21143234.108    -2506664.837 3  -1780725.469 1
  18183635.670   -28357225.266 7 -21832771.916 8
  18696215.303   -20832366.026 6 -16233018.434 7
  19076679.920   -21385273.235 6 -16563894.380 6
  19413884.701   -24481606.067 6  -9375061.522 7
  17523431.850   -34332876.779 7 -26752887.219 8
 95  2  7 19 30 29.9900000  0  6 28 18 14 19 22 29
  21122932.420    -2613317.059 4  -1863831.016 1
  18163814.904   -28461395.609 7 -21913943.597 8
  18704406.053   -20789328.448 6 -16199482.700 7
  19058163.709   -21482555.043 6 -16639698.371 6
  19421107.412   -24443646.870 6  -9345482.947 7
  17513206.240   -34386611.615 7 -26794758.521 8
 95  2  7 19 30 59.9900000  0  7 28 18 14 19 31 22 29
  21102685.358    -2719731.526 4  -1946751.344 2
  18144034.584   -28565327.988 7 -21994929.857 8
  18712661.943   -20745939.083 6 -16165672.851 7
  19039696.670   -21579621.996 6 -16715334.946 6
  21594955.967     -129738.117 3
  19428401.357   -24405318.978 6  -9315617.085 7
  17503048.686   -34439994.581 7 -26836355.645 8
 95  2  7 19 31 29.9890000  0  7 28 18 14 19 31 22 29
  21082485.462    -2825917.829 4  -2029493.820 4
  18124302.626   -28669026.318 7 -22075733.737 8
  18720980.110   -20702221.053 6 -16131606.906 7
  19021259.946   -21676486.924 6 -16790814.100 6
  21570256.923     -259544.130 3        -0.38112
  19435757.400   -24366663.991 6  -9285496.335 7
  17492952.907   -34493047.880 7 -26877695.876 8
 95  2  7 19 31 59.9890000  0  7 28 18 14 19 31 22 29
  21062311.095    -2931880.941 4  -2112062.367 3
  18104610.235   -28772506.625 7 -22156367.726 8
  18729365.743   -20658167.266 6 -16097279.326 7
  19002867.634   -21773162.334 6 -16866145.572 6
  21545539.439     -389433.722 3   -101212.856 1
  19443173.126   -24327684.624 6  -9255122.825 7
  17482918.485   -34545785.959 7 -26918790.489 8
 95  2  7 19 32 29.9890000  0  7 28 18 14 19 31 22 29
  21042195.446    -3037607.608 4  -2194446.693 4
  18084961.829   -28875764.831 7 -22236828.649 8
  18737812.095   -20613769.156 6 -16062683.438 6
  18984505.892   -21869634.552 6 -16941318.713 6
  21520813.157     -519393.035 4   -202479.669 1
  19450658.189   -24288368.511 6  -9224486.916 7
  17472942.720   -34598199.848 7 -26959632.481 8
 95  2  7 19 32 59.9890000  0  7 28 18 14 19 31 22 29
  21022118.321    -3143104.101 3  -2276651.667 4
  18065354.743   -28978797.687 7 -22317113.977 8
  18746325.923   -20569032.731 6 -16027823.936 6
  18966185.970   -21965910.764 6 -17016339.126 6
  21496064.282     -649430.984 4   -303807.757 1
  19458200.337   -24248729.021 6  -9193599.026 7
  17463028.681   -34650297.737 7 -27000228.242 8
 95  2  7 19 33 29.9890000  0  7 28 18 14 19 31 22 29
  21002088.446    -3248360.893 3  -2358669.847 5
  18045791.040   -29081604.277 7 -22397222.986 8
  18754908.298   -20523937.989 6 -15992685.225 6
  18947904.493   -22061987.876 6 -17091204.390 6
  21471307.704     -779530.585 3   -405183.933 1
  19465807.821   -24208748.416 6  -9162445.328 7
  17453176.321   -34702070.879 7 -27040570.963 8
 95  2  7 19 33 59.9890000  0  7 28 18 14 19 31 22 29
  20982107.478    -3353378.569 4  -2440501.718 3
  18026272.431   -29184182.138 7 -22477153.773 8
  18763558.790   -20478477.719 6 -15957261.691 7
  18929656.392   -22157864.380 6 -17165913.335 6
  21446536.259     -909697.805 3   -506612.720 1
  19473481.978   -24168416.080 6  -9131017.560 7
  17443387.462   -34753514.885 7 -27080657.196 8
 95  2  7 19 34 29.9890000  0  7 28 18 14 19 31 22 29
  20962166.954    -3458143.501 4  -2522136.672 3
  18006796.829   -29286510.680 7 -22556890.285 8
  18772281.110   -20432636.762 6 -15921541.519 7
  18911455.400   -22253516.995 6 -17240447.808 7
  21421759.782    -1039911.785 3   -608077.932 1
  19481228.009   -24127719.338 6  -9099305.849 7
  17433661.275   -34804625.516 7 -27120483.661 8
 95  2  7 19 34 59.9890000  0  7 28 18 14 19 31 22 29
  20942287.696    -3562639.935 5  -2603562.395 3
  17987375.485   -29388569.529 7 -22636416.652 8
  18781080.306   -20386403.413 6 -15885515.581 7
  18893302.314   -22348924.429 6 -17314791.240 7
  21396975.470    -1170149.788 4   -709561.860 1
  19489041.064   -24086656.691 6  -9067309.013 7
  17424002.470   -34855386.526 7 -27160037.696 8
 95  2  7 19 35 29.9890000  0  7 28 18 14 19 31 22 29
  20922448.704    -3666873.326 5  -2684783.140 3
  17968007.181   -29490365.310 7 -22715738.022 8
  18789947.868   -20339797.049 6 -15849198.993 7
  18875187.806   -22444097.600 6 -17388952.126 7
  21372186.689    -1300406.318 4   -811060.256 1
  19496924.290   -24045233.779 6  -9035031.457 7
  17414406.001   -34905812.580 7 -27199330.724 8
 95  2  7 19 35 59.9890000  0  7 28 18 14 19 31 22 29
  20902666.556    -3770834.908 5  -2765792.093 4
  17948684.524   -29591902.848 7 -22794858.174 8
  18798884.712   -20292832.697 6 -15812603.458 7
  18857125.790   -22539017.019 6 -17462915.291 7
  21347395.946    -1430671.854 3   -912565.644 1
  19504875.634   -24003446.176 6  -9002469.723 6
  17404874.821   -34955903.542 7 -27238362.643 8
 95  2  7 19 36 29.9890000  0  7 28 18 14 19 31 22 29
  20882935.032    -3874530.536 5  -2846593.802 4
  17929408.064   -29693193.496 7 -22873785.940 8
  18807886.392   -20245536.121 6 -15775749.029 6
  18839113.126   -22633695.207 6 -17536690.478 6
  21322605.657    -1560944.792 3  -1014076.832 1
  19512892.329   -23961312.637 6  -8969638.432 6
  17395403.978   -35005671.361 7 -27277142.762 8
 95  2  7 19 36 59.9890000  0  7 28 18 14 19 31 22 29
  20863252.923    -3977955.331 5  -2927184.467 3
  17910180.399   -29794239.043 7 -22952522.716 8
  18816945.407   -20197924.346 6 -15738649.003 6
  18821137.939   -22728151.051 6 -17610292.413 6
  21297815.673    -1691232.192 3  -1115599.285 2
  19520977.345   -23918832.657 6  -8936537.192 6
  17385997.204   -35055101.405 7 -27315659.681 8
 95  2  7 19 37 29.9890000  0  7 28 18 14 19 31 22 29
  20843622.173    -4081110.236 4  -3007564.807 4
  17890999.821   -29895046.325 7 -23031073.832 8
  18826062.923   -20150007.728 6 -15701311.445 6
  18803198.142   -22822403.170 6 -17683735.609 6
  21273016.079    -1821543.569 3  -1217140.425 1
  19529128.814   -23876001.115 6  -8903161.998 6
  17376656.399   -35104184.628 7 -27353906.348 8
 95  2  7 19 37 59.9890000  0  7 28 18 14 19 31 22 29
  20824046.446    -4183988.022 4  -3087729.186 5
  17871861.673   -29995608.671 7 -23109434.098 8
  18835244.298   -20101776.044 6 -15663728.367 6
  18785303.720   -22916452.889 6 -17757021.085 7
  21248220.267    -1951874.211 3  -1318696.595 1
  19537343.095   -23832827.506 6  -8869520.271 6
  17367385.501   -35152906.241 7 -27391871.247 8
 95  2  7 19 38 29.9890000  0  7 28 18 14 19 31 22 29
  20804522.298    -4286590.724 5  -3167679.230 4
  17852773.720   -30095909.278 7 -23187590.403 8
  18844482.204   -20053223.768 6 -15625895.487 6
  18767438.884   -23010333.605 6 -17830174.869 6
  21223409.853    -2082225.476 3  -1420268.820 1
  19545621.056   -23789322.087 6  -8835619.979 6
  17358185.235   -35201260.620 7 -27429549.993 8
 95  2  7 19 38 59.9890000  0  7 28 18 14 19 31 22 29
  20785045.845    -4388925.646 5  -3247420.598 4
  17833733.079   -30195966.429 7 -23265557.003 8
  18853776.767   -20004370.621 6 -15587828.156 6
  18749605.368   -23104059.606 6 -17903208.096 7
  21198601.868    -2212600.978 3  -1521860.004 2
  19553962.196   -23745499.298 6  -8801472.391 6
  17349051.353   -35249253.816 7 -27466947.290 8
 95  2  7 19 39 29.9890000  0  7 28 18 14 19 31 22 29
  20765626.337    -4490995.659 5  -3326955.540 5
  17814739.915   -30295774.612 7 -23343329.604 9
  18863131.720   -19955215.345 6 -15549525.409 6
  18731801.884   -23197618.412 6 -17976111.033 7
  21173790.892    -2342996.364 3  -1623466.684 2
  19562358.860   -23701370.707 6  -8767086.517 6
  17339982.728   -35296909.691 7 -27504081.745 8
 95  2  7 19 39 59.9890000  0  7 28 18 14 19 31 22 29
  20746251.821    -4592790.853 5  -3406276.355 5
  17795797.642   -30395321.892 7 -23420898.903 8
  18872547.860   -19905743.720 6 -15510976.149 6
  18714036.564   -23290982.373 7 -18048862.156 7
  21148973.368    -2473392.603 4  -1725074.017 2
  19570810.743   -23656941.896 6  -8732466.698 6
  17330976.384   -35344243.349 7 -27540965.123 8
 95  2  7 19 40 29.9890000  0  7 28 18 14 19 31 22 29
  20726931.665    -4694319.009 5  -3485389.054 5
  17776904.696   -30494609.156 7 -23498265.594 9
  18882017.259   -19855973.063 6 -15472193.889 6
  18696307.157   -23384142.514 6 -18121454.457 7
  21124156.243    -2603806.137 3  -1826694.803 2
  19579324.884   -23612213.477 6  -8697613.413 6
  17322029.181   -35391259.967 7 -27577601.449 8
 95  2  7 19 40 59.9890000  0  7 28 18 14 19 31 22 29
  20707665.728    -4795576.556 5  -3564290.900 5
  17758058.892   -30593645.159 7 -23575436.496 9
  18891543.048   -19805911.987 6 -15433185.328 6
  18678626.212   -23477066.479 6 -18193862.723 7
  21099336.251    -2734236.883 3  -1928329.065 2
  19587891.485   -23567194.139 6  -8662533.438 6
  17313141.790   -35437958.590 7 -27613989.996 8
 95  2  7 19 41 29.9890000  0  7 28 18 14 19 31 22 29
  20688447.665    -4896555.631 5  -3642975.740 5
  17739263.907   -30692413.420 7 -23652398.765 9
  18901130.251   -19755533.746 6 -15393929.613 6
  18660989.946   -23569738.724 6 -18266074.842 7
  21074516.767    -2864673.816 3  -2029968.136 3
  19596516.103   -23521878.548 6  -8627222.623 6
  17304319.024   -35484324.328 7 -27650119.146 8
 95  2  7 19 41 59.9890000  0  7 28 18 14 19 31 22 29
  20669287.478    -4997244.089 5  -3721434.135 5
  17720519.501   -30790908.474 7 -23729148.150 9
  18910778.829   -19704838.922 6 -15354427.216 6
  18643403.071   -23662153.115 6 -18338086.042 7
  21049696.360    -2995100.466 4  -2131599.187 1
  19605194.290   -23476264.264 6  -8591679.057 6
  17295567.571   -35530317.964 7 -27685958.355 8
 95  2  7 19 42 29.9890000  0  7 28 18 14 19 31 22 29
  20650179.767    -5097644.581 4  -3799668.148 5
  17701826.650   -30889141.352 7 -23805693.243 9
  18920480.939   -19653844.058 6 -15314691.023 6
  18625861.907   -23754337.342 6 -18409917.876 7
  21024879.071    -3125522.534 4  -2233226.730 2
  19613931.907   -23430360.638 6  -8555910.030 6
  17286888.978   -35575919.874 7 -27721492.319 8
 95  2  7 19 42 59.9890000  0  8 28 18 14 19 31 22 27 29
  20631130.509    -5197757.519 5  -3877678.090 5
  17683180.345   -30987128.085 7 -23882046.533 9
  18930241.376   -19602550.084 6 -15274721.755 6
  18608353.923   -23846323.504 6 -18481595.390 7
  21000063.837    -3255925.087 4  -2334839.013 2
  19622718.314   -23384179.047 6  -8519924.403 6
  21745565.868          -0.23013
  17278284.189   -35621144.539 7 -27756732.326 8
 95  2  7 19 43 29.9890000  0  8 28 18 14 19 31 22 27 29
  20612135.048    -5297575.056 5  -3955457.871 5
  17664587.743   -31084847.330 7 -23958191.384 9
  18940062.821   -19550951.308 6 -15234514.983 6
  18590882.470   -23938130.605 6 -18553133.369 7
  20975257.228    -3386295.964 5  -2436426.588 2
  19631559.907   -23337715.220 6  -8483718.853 6
  21722471.087     -121351.900 3        -0.00812
  17269748.189   -35665994.530 7 -27791680.379 8
 95  2  7 19 43 59.9890000  0  8 28 18 14 19 31 22 27 29
  20593200.892    -5397087.409 5  -4032999.849 5
  17646044.095   -31182289.945 7 -24034120.681 9
  18949935.829   -19499059.750 6 -15194080.064 6
  18573445.407   -24029763.982 7 -18624535.987 7
  20950454.024    -3516633.939 5  -2537988.511 2
  19640458.548   -23290962.663 6  -8447288.321 6
  21699389.415     -242647.117 3    -94515.754 1
  17261284.853   -35710471.330 7 -27826337.632 8
 95  2  7 19 44 29.9890000  0  8 28 18 14 19 31 22 27 29
  20574322.079    -5496295.057 5  -4110304.425 3
  17627551.579   -31279454.971 7 -24109833.677 9
  18959869.548   -19446867.492 6 -15153410.845 6
  18556042.189   -24121235.664 7 -18695812.608 7
  20925653.720    -3646949.057 4  -2639532.581 1
  19649409.321   -23243917.167 6  -8410629.535 6
  21676317.985     -363874.098 3   -188978.311 2
  17252887.095   -35754602.785 7 -27860725.791 8
 95  2  7 19 44 59.9890000  0  8 28 18 14 19 31 22 27 29
  20555506.509    -5595178.445 5  -4187356.335 4
  17609122.540   -31376314.589 7 -24185308.691 9
  18969860.048   -19394361.166 6 -15112496.886 6
  18538671.267   -24212511.223 7 -18766936.407 7
  20900859.181    -3777231.054 4  -2741050.865 2
  19658423.267   -23196552.286 6  -8373721.868 7
  21653273.923     -484998.339 3   -283360.844 1
  17244556.384   -35798382.074 7 -27894839.537 8
 95  2  7 19 45 29.9890000  0  8 28 18 14 19 31 22 27 29
  20536743.806    -5693754.329 5  -4264168.644 4
  17590747.079   -31472878.349 7 -24260553.164 9
  18979906.907   -19341561.471 6 -15071354.341 6
  18521341.243   -24303588.822 7 -18837905.941 7
  20876067.181    -3907512.050 4  -2842568.340 2
  19667493.360   -23148889.395 6  -8336581.988 6
  21630238.665     -606034.763 3   -377674.934 1
  17236290.048   -35841817.352 7 -27928685.219 8
 95  2  7 19 45 59.9890000  0  8 28 18 14 19 31 22 27 29
  20518044.759    -5792020.503 5  -4340739.624 5
  17572423.634   -31569163.178 7 -24335580.288 9
  18990010.064   -19288471.972 6 -15029985.964 6
  18504047.150   -24394463.418 7 -18908717.295 7
  20851276.806    -4037794.862 4  -2944087.220 2
  19676621.118   -23100915.852 6  -8299200.041 6
  21607230.712     -726974.935 3   -471914.027 3
  17228093.720   -35884895.000 7 -27962252.222 8
 95  2  7 19 46 29.9890000  0  8 28 18 14 19 31 22 27 29
  20499409.587    -5889966.258 5  -4417060.927 5
  17554153.610   -31665170.261 7 -24410390.985 9
  19000168.829   -19235089.152 6 -14988389.026 6
  18486794.298   -24485124.613 7 -18979362.355 7
  20826488.415    -4168062.683 4  -3045594.368 2
  19685811.274   -23052621.212 6  -8261567.888 6
  21584228.212     -847815.745 3   -566075.691 1
  17219965.142   -35927604.289 7 -27995532.194 8
 95  2  7 19 46 59.9890000  0  8 28 18 14 19 31 22 27 29
  20480829.306    -5987597.477 5  -4493137.152 5
  17535937.275   -31760904.748 7 -24484989.272 9
  19010378.446   -19181436.812 6 -14946582.076 6
  18469582.704   -24575572.087 7 -19049840.895 7
  20801701.493    -4298315.184 4  -3147089.585 1
  19695060.407   -23004026.980 6  -8223702.280 6
  21561240.767     -968585.475 3   -660181.917 2
  17211909.376   -35969940.861 7 -28028521.733 8
 95  2  7 19 47 29.9890000  0  8 28 18 14 19 31 22 27 29
  20462308.048    -6084915.131 5  -4568969.030 5
  17517767.673   -31856374.843 7 -24559381.538 9
  19020633.798   -19127533.089 6 -14904579.240 6
  18452411.032   -24665826.533 7 -19120169.011 7
  20776922.728    -4428541.375 4  -3248564.293 1
  19704359.407   -22955155.690 6  -8185620.782 6
  21538274.548    -1089306.047 3   -754249.919 2
  17203922.571   -36011912.183 7 -28061226.663 8
 95  2  7 19 47 59.9890000  0  8 28 18 14 19 31 22 27 29
  20443853.243    -6181911.512 5  -4644550.593 5
  17499655.353   -31951575.329 7 -24633563.723 9
  19030938.267   -19073395.696 6 -14862394.344 6
  18435268.360   -24755887.610 7 -19190346.445 7
  20752145.798    -4558717.711 3  -3350000.163 1
  19713712.509   -22906003.508 6  -8147320.412 6
  21515310.540    -1209988.187 3   -848287.889 2
  17196005.329   -36053519.520 7 -28093647.966 8
 95  2  7 19 48 29.9890000  0  8 28 18 14 19 31 22 27 29
  20425457.540    -6278575.849 5  -4719873.431 4
  17481592.431   -32046485.388 7 -24707519.599 8
  19041286.251   -19019019.538 6 -14820023.375 6
  18418173.196   -24845731.884 7 -19260354.948 7
  20727383.907    -4688830.005 3  -3451386.136 1
  19723115.321   -22856584.951 6  -8108812.479 6
  21492358.954    -1330627.673 3   -942292.664 2
  17188157.251   -36094760.739 7 -28125783.984 8
 95  2  7 19 48 59.9890000  0  8 28 18 14 19 31 22 27 29
  20407130.009    -6374905.692 5  -4794935.641 4
  17463587.032   -32141099.266 7 -24781244.688 9
  19051678.665   -18964401.266 6 -14777463.751 6
  18401119.517   -24935354.849 7 -19330191.007 7
  20702640.704    -4818876.294 4  -3552720.654 2
  19732566.360   -22806924.037 5  -8070115.692 6
  21469406.704    -1451213.910 3  -1036255.926 2
  17180379.079   -36135636.823 7 -28157635.488 8
 95  2  7 19 49 29.9880000  0  8 28 18 14 19 31 22 27 29
  20388863.340    -6470885.379 5  -4869724.981 4
  17445640.426   -32235409.632 7 -24854733.269 9
  19062120.442   -18909531.565 6 -14734708.219 6
  18384109.965   -25024743.175 7 -19399844.221 7
  20677913.184    -4948834.701 4  -3653986.695 4
  19742064.543   -22757015.925 5  -8031226.283 6
  21446475.895    -1571726.801 3  -1130162.045 2
  17172672.910   -36176132.276 7 -28189190.390 8
 95  2  7 19 49 59.9880000  0  8 28 18 14 19 31 22 27 29
  20370661.379    -6566537.193 5  -4944258.856 5
  17427750.777   -32329426.283 7 -24927992.982 9
  19072611.660   -18854402.370 6 -14691750.466 6
  18367141.965   -25113908.558 7 -19469323.722 7
  20653187.957    -5078738.601 3  -3755210.284 3
  19751604.738   -22706872.959 5  -7992153.872 6
  21423553.074    -1692169.120 3  -1224013.163 1
  17165036.238   -36216262.936 7 -28220461.033 8
 95  2  7 19 50 29.9880000  0  8 28 18 14 19 31 22 27 29
  20352523.926    -6661844.774 5  -5018524.483 5
  17409920.168   -32423131.167 7 -25001009.758 9
  19083156.426   -18798983.644 6 -14648567.112 6
  18350214.254   -25202848.404 7 -19538627.476 7
  20628479.254    -5208593.330 3  -3856395.555 2
  19761192.488   -22656495.357 6  -7952898.620 6
  21400658.402    -1812497.225 3  -1317775.287 2
  17157472.137   -36256014.829 7 -28251436.538 8
 95  2  7 19 50 59.9880000  0  8 28 18 14 19 31 22 27 29
  20334455.559    -6756804.666 5  -5092519.171 5
  17392149.426   -32516518.903 7 -25073779.410 9
  19093756.598   -18743279.208 6 -14605161.133 6
  18333331.293   -25291575.784 7 -19607765.664 7
  20603781.645    -5338397.354 4  -3957541.312 2
  19770824.535   -22605878.555 6  -7913456.997 6
  21377783.090    -1932693.191 3  -1411434.459 1
  17149978.606   -36295391.111 7 -28282119.353 8
 95  2  7 19 51 29.9880000  0  8 28 18 14 19 31 22 27 29
  20316453.770    -6851408.508 5  -5166236.419 5
  17374442.613   -32609568.016 7 -25146285.195 9
  19104412.356   -18687284.859 6 -14561529.255 6
  18316488.074   -25380091.023 7 -19676738.557 7
  20579092.723    -5468144.494 4  -4058642.771 4
  19780507.918   -22554991.509 6  -7873804.781 6
  21354935.129    -2052750.770 3  -1504985.770 2
  17142559.176   -36334380.736 7 -28312500.888 8
 95  2  7 19 51 59.9880000  0  8 28 18 14 19 31 22 27 29
  20298520.082    -6945651.976 5  -5239672.859 5
  17356800.176   -32702273.887 7 -25218523.523 9
  19115123.996   -18630999.976 6 -14517670.973 6
  18299685.559   -25468403.987 7 -19745553.837 7
  20554406.317    -5597841.499 4  -4159705.173 3
  19790245.199   -22503828.771 6  -7833937.747 6
  21332118.434    -2172667.783 3  -1598427.569 2
  17135212.746   -36372982.169 7 -28342579.934 8
 95  2  7 19 52 29.9880000  0  8 28 18 14 19 31 22 27 29
  20280653.738    -7039534.925 5  -5312828.337 5
  17339217.043   -32794661.577 7 -25290513.914 9
  19125886.246   -18574441.294 6 -14473599.342 6
  18282918.106   -25556517.461 7 -19814213.659 7
  20529740.863    -5727476.257 4  -4260719.082 4
  19800031.293   -22452395.771 6  -7793860.127 6
  21309324.574    -2292467.057 3  -1691777.599 2
  17127942.129   -36411190.565 7 -28372352.719 8
 95  2  7 19 52 59.9880000  0  8 28 18 14 19 31 22 27 29
  20262860.652    -7133043.380 5  -5385692.013 5
  17321699.340   -32886729.110 7 -25362254.831 9
  19136699.231   -18517617.607 6 -14429321.238 6
  18266187.637   -25644418.493 7 -19882707.953 7
  20505088.895    -5857005.595 5  -4361650.845 2
  19809870.348   -22400689.382 6  -7753569.467 6
  21286542.012    -2412168.449 3  -1785051.376 3
  17120751.113   -36448986.334 7 -28401803.978 8
 95  2  7 19 53 29.9880000  0  8 28 18 14 19 31 22 27 29
  20245137.106    -7226170.476 5  -5458258.510 5
  17304239.441   -32978487.768 7 -25433755.070 9
  19147561.543   -18460533.925 6 -14384840.521 6
  18249500.981   -25732112.943 7 -19951041.273 7
  20480461.598    -5986424.682 4  -4462496.693 2
  19819763.910   -22348705.075 6  -7713062.272 6
  21263781.066    -2531792.079 3  -1878264.562 3
  17113639.535   -36486354.705 7 -28430922.189 8
 95  2  7 19 53 59.9880000  0  8 28 18 14 19 31 22 27 29
  20227485.793    -7318927.375 5  -5530536.538 5
  17286830.965   -33069959.849 7 -25505032.008 9
  19158469.832   -18403216.680 6 -14340177.825 6
  18232852.574   -25819610.819 7 -20019221.419 7
  20455853.231    -6115746.441 4  -4563266.730 2
  19829701.746   -22296477.499 5  -7672365.518 6
  21241028.231    -2651357.369 3  -1971432.290 2
  17106606.731   -36523311.176 7 -28459719.446 8
 95  2  7 19 54 29.9880000  0  8 28 18 14 19 31 22 27 29
  20209906.395    -7411304.095 5  -5602518.302 5
  17269485.238   -33161128.153 7 -25576072.226 9
  19169420.363   -18345672.148 6 -14295338.001 5
  18216239.231   -25906894.957 7 -20087235.013 7
  20431266.887    -6244946.340 4  -4663941.847 2
  19839690.113   -22243998.807 5  -7631473.078 5
  21218281.199    -2770866.091 3  -2064555.932 1
  17099651.723   -36559858.206 7 -28488197.662 8
 95  2  7 19 54 59.9880000  0  8 28 18 14 19 31 22 27 29
  20192402.035    -7503299.803 5  -5674203.159 5
  17252195.801   -33251966.569 7 -25646855.391 9
  19180412.301   -18287910.943 6 -14250329.351 6
  18199674.887   -25993963.160 7 -20155080.340 7
  20406701.402    -6374042.913 5  -4764536.407 2
  19849721.973   -22191260.453 5  -7590378.307 5
  21195557.106    -2890313.799 3  -2157632.042 1
  17092772.371   -36596006.810 7 -28516365.418 8
 95  2  7 19 55 29.9880000  0  8 28 18 14 19 31 22 27 29
  20174966.035    -7594913.368 5  -5745590.235 5
  17234977.168   -33342457.022 7 -25717367.431 9
  19191445.215   -18229925.846 6 -14205146.238 5
  18183147.285   -26080803.261 7 -20222747.927 7
  20382153.926    -6503051.136 5  -4865062.134 2
  19859811.910   -22138250.064 5  -7549071.558 5
  21172842.707    -3009677.780 3  -2250642.914 2
  17085968.801   -36631763.737 7 -28544227.966 8
 95  2  7 19 55 59.9880000  0  8 28 18 14 19 31 22 27 29
  20157606.426    -7686126.135 5  -5816664.983 5
  17217831.723   -33432564.373 7 -25787580.943 9
  19202529.691   -18171686.655 6 -14159765.140 6
  18166668.918   -26167385.682 7 -20290214.732 7
  20357626.559    -6631941.536 5  -4965496.079 1
  19869952.934   -22084962.125 5  -7507548.516 5
  21150147.449    -3128928.363 3  -2343565.393 2
  17079242.418   -36667116.742 7 -28571775.771 8
 95  2  7 19 56 29.9880000  0  8 28 18 14 19 31 22 27 29
  20140328.520    -7776929.327 5  -5887420.579 5
  17200757.301   -33522285.799 7 -25857493.731 9
  19213659.941   -18113184.680 6 -14114179.277 5
  18150244.559   -26253709.826 7 -20357480.276 7
  20333120.426    -6760700.303 5  -5065827.474 3
  19880147.301   -22031394.123 6  -7465807.255 5
  21127483.402    -3248045.815 3  -2436384.112 3
  17072592.668   -36702059.391 7 -28599003.817 8
 95  2  7 19 56 59.9880000  0  8 28 18 14 19 31 22 27 29
  20123129.152    -7867323.749 5  -5957857.650 5
  17183754.309   -33611627.488 7 -25927110.624 9
  19224844.434   -18054411.229 6 -14068381.864 5
  18133863.442   -26339796.674 7 -20424560.923 7
  20308645.715    -6889331.114 5  -5166059.136 1
  19890391.270   -21977559.899 6  -7423858.539 5
  21104838.934    -3367017.737 3  -2529089.461 2
  17066021.965   -36736583.811 7 -28625905.975 8
 95  2  7 19 57 29.9880000  0  8 28 18 14 19 31 22 27 29
  20106012.637    -7957259.390 5  -6027937.240 5
  17166833.301   -33700550.968 7 -25996401.638 9
  19236092.316   -17995309.862 5 -14022328.953 5
  18117532.723   -26425620.330 7 -20491436.487 7
  20284207.020    -7017758.894 5  -5266132.640 1
  19900690.981   -21923431.390 6  -7381680.518 5
  21082236.098    -3485805.282 4  -2621651.132 2
  17059543.066   -36770634.908 7 -28652439.303 8
 95  2  7 19 57 59.9880000  0  8 28 18 14 19 31 22 27 29
  20088981.598    -8046750.083 5  -6097670.127 5
  17149987.590   -33789081.604 7 -26065386.533 9
  19247397.356   -17935909.953 6 -13976043.409 5
  18101245.059   -26511202.379 7 -20558123.776 7
  20259803.059    -7145990.760 5  -5366053.460 2
  19911041.137   -21869037.592 6  -7339295.777 5
  21059662.926    -3604440.465 3  -2714094.098 2
  17053150.356   -36804231.163 7 -28678618.212 8
 95  2  7 19 58 29.9880000  0  8 28 18 14 19 31 22 27 29
  20072037.660    -8135812.041 5  -6167068.937 5
  17133212.871   -33877242.078 7 -26134082.998 9
  19258750.168   -17876241.768 6 -13929548.799 5
  18085000.863   -26596557.340 7 -20624634.116 7
  20235435.613    -7274048.890 5  -5465838.895 2
  19921441.004   -21814394.657 6  -7296716.910 6
  21037109.301    -3722951.587 3  -2806440.342 2
  17046838.496   -36837395.684 7 -28704460.711 8
 95  2  7 19 58 59.9880000  0  8 28 18 14 19 31 22 27 29
  20055166.770    -8224458.662 5  -6236144.113 5
  17116504.887   -33965040.939 7 -26202497.683 9
  19270153.348   -17816321.284 6 -13882857.600 5
  18068799.410   -26681697.840 7 -20690977.345 7
  20211098.012    -7401947.429 5  -5565499.967 3
  19931883.145   -21759518.302 5  -7253956.167 6
  21014577.051    -3841365.265 3  -2898710.702 2
  17040607.606   -36870143.030 7 -28729978.126 8
 95  2  7 19 59 29.9880000  0  8 28 18 14 19 31 22 27 29
  20038369.395    -8312732.089 5  -6304928.492 5
  17099854.129   -34052528.481 7 -26270669.793 9
  19281591.379   -17756212.703 6 -13836019.840 5
  18052638.356   -26766645.260 7 -20757170.124 7
  20186780.004    -7529736.909 5  -5665076.073 4
  19942360.465   -21704451.147 5  -7211046.757 6
  20992052.402    -3959723.060 3  -2990937.499 2
  17034445.152   -36902519.951 7 -28755206.913 8
 95  2  7 19 59 59.9880000  0  8 28 18 14 19 31 22 27 29
  20021643.207    -8400614.943 5  -6373408.504 5
  17083271.082   -34139689.050 7 -26338587.103 9
  19293067.418   -17695910.414 6 -13789031.128 5
  18036512.770   -26851365.348 7 -20823185.763 7
  20162484.973    -7657413.392 5  -5764564.150 3
  19952877.793   -21649178.831 5  -7167977.483 6
  20969544.895    -4077996.778 3  -3083098.775 4
  17028357.176   -36934511.390 7 -28780135.311 8
 95  2  7 20  0 29.9880000  0  8 28 18 14 19 31 22 27 29
  20005002.442    -8488082.737 5  -6441565.113 5
  17066747.668   -34226499.178 7 -26406231.352 9
  19304581.567   -17635392.128 6 -13741874.107 5
  18020437.629   -26935855.971 7 -20889022.585 7
  20138210.527    -7784965.900 5  -5863955.589 3
  19963439.043   -21593682.690 5  -7124733.809 6
  20947059.270    -4196149.639 3  -3175165.905 1
  17022349.988   -36966083.947 7 -28804737.317 8
 95  2  7 20  0 59.9880000  0  8 28 18 14 19 31 22 27 29
  19988434.207    -8575144.011 5  -6509404.954 5
  17050299.277   -34312955.464 7 -26473599.878 9
  19316135.738   -17574679.268 5 -13694565.475 5
  18004393.973   -27020146.273 7 -20954703.324 7
  20113960.254    -7912406.385 5  -5963259.753 2
  19974041.387   -21537978.342 5  -7081327.917 6
  20924601.270    -4314186.736 3  -3267142.782 1
  17016421.871   -36997235.736 7 -28829011.439 8
 95  2  7 20  1 29.9880000  0  8 28 18 14 19 31 22 27 29
  19971942.527    -8661792.259 5  -6576922.982 5
  17033914.449   -34399047.655 7 -26540684.689 9
  19327724.848   -17513775.458 5 -13647108.063 5
  17988394.832   -27104233.304 7 -21020225.660 7
  20089732.152    -8039723.963 5  -6062468.135 3
  19984678.082   -21482062.163 5  -7037756.939 6
  20902160.512    -4432111.132 3  -3359031.891 3
  17010576.965   -37027955.340 7 -28852948.801 8
 95  2  7 20  1 59.9880000  0  8 28 18 14 19 31 22 27 29
  19955539.340    -8748019.738 5  -6644113.146 5
  17017603.215   -34484752.740 7 -26607467.863 9
  19339354.520   -17452666.048 5 -13599490.436 5
  17972433.887   -27188122.377 7 -21085593.759 7
  20065529.512    -8166907.320 5  -6161571.923 4
  19995361.738   -21425934.513 5  -6994021.174 6
  20879736.863    -4549933.054 3  -3450841.134 2
  17004814.832   -37058232.656 7 -28876541.525 8
 95  2  7 20  2 29.9880000  0  8 28 18 14 19 31 22 27 29
  19939203.840    -8833829.560 5  -6710977.874 5
  17001368.090   -34570073.321 7 -26673951.426 9
  19351018.762   -17391370.412 5 -13551727.693 5
  17956504.902   -27271830.106 7 -21150820.541 7
  20041355.379    -8293947.363 5  -6260564.039 5
  20006083.285   -21369592.833 5  -6950118.632 6
  20857330.637    -4667676.296 3  -3542589.095 1
  16999134.965   -37088079.600 7 -28899798.892 8
 95  2  7 20  2 59.9880000  0  8 28 18 14 19 31 22 27 29
  19922957.363    -8919223.988 5  -6777518.911 5
  16985204.934   -34655009.422 7 -26740135.391 9
  19362716.231   -17329892.319 5 -13503822.802 5
  17940614.910   -27355330.116 7 -21215885.466 7
  20017212.207    -8420822.333 5  -6359427.530 5
  20016846.762   -21313033.357 5  -6906046.369 5
  20834940.731    -4785358.617 3  -3634289.557 3
  16993534.543   -37117507.814 7 -28922729.976 8
 95  2  7 20  3 29.9880000  0  8 28 18 14 19 31 22 27 29
  19906785.379    -9004218.417 5  -6843748.267 5
  16969107.129   -34739605.449 7 -26806054.367 9
  19374448.504   -17268240.057 5 -13455782.162 5
  17924764.309   -27438619.662 7 -21280786.389 7
  19993096.793    -8547540.452 5  -6458168.794 5
  20027645.918   -21256278.036 5  -6861821.490 5
  20812555.770    -4902997.830 3  -3725956.467 2
  16988010.238   -37146542.548 7 -28945354.452 8
 95  2  7 20  3 59.9880000  0  8 28 18 14 19 31 22 27 29
  19890692.879    -9088781.004 5  -6909641.110 5
  16953080.754   -34823841.978 7 -26871693.218 9
  19386220.285   -17206385.275 5 -13407583.738 6
  17908957.613   -27521665.145 7 -21345497.125 7
  19969016.691    -8674079.990 5  -6556770.910 3
  20038488.285   -21199302.214 6  -6817424.788 5
  20790180.957    -5020553.988 3  -3817558.617 1
  16982563.660   -37175164.771 7 -28967657.498 8
 95  2  7 20  4 29.9880000  0  8 28 18 14 19 31 22 27 29
  19874680.816    -9172916.706 5
  16937113.402   -34907744.166 7
  19398027.449   -17144338.831 5 -13359235.956 5
  17893201.934   -27604471.845 7 -21410021.805 7
  19944971.176    -8800445.170 5  -6655237.174 4
  20049370.332   -21142117.679 6  -6772865.449 5
  20767826.996    -5138024.809 3  -3909094.327 2
  16977193.137   -37203385.016 7 -28989647.313 8
 95  2  7 20  4 59.9880000  0  8 28 18 14 19 31 22 27 29
  19858748.676    -9256623.663 5
  16921207.996   -34991316.039 7
  19409876.699   -17082085.844 5 -13310727.241 6
  17877493.449   -27687035.197 7 -21474356.852 7
  19920956.512    -8926644.618 5  -6753574.271 5
  20060288.496   -21084735.153 5  -6728151.834 5
  20745491.543    -5255395.698 3  -4000552.135 2
  16971900.652   -37231193.744 7 -29011316.466 8
 95  2  7 20  5 29.9880000  0  8 28 18 14 19 31 22 27 29
  19842908.715    -9339895.109 5
  16905373.402   -35074543.390 7
  19421759.043   -17019629.219 5 -13262059.847 5
  17861820.449   -27769365.886 7 -21538510.616 7
  19896970.434    -9052688.376 5  -6851790.030 5
  20071250.621   -21027148.727 5  -6683279.345 5
  20723182.582    -5372662.870 4  -4091929.145 3
  16966689.981   -37258580.388 7 -29032656.715 8
 95  2  7 20  5 59.9880000  0  8 28 18 14 19 31 22 27 29
  19827136.863    -9422742.474 5
  16889601.191   -35157409.537 7 -27131615.967 9
  19433677.191   -16957000.270 5 -13213258.177 6
  17846198.652   -27851492.775 7 -21602505.564 7
  19873012.910    -9178589.886 5  -6949894.965 5
  20082244.817   -20969362.409 5  -6638251.089 5
  20700879.481    -5489847.144 4  -4183241.494 2
  16961556.715   -37285554.348 7 -29053675.401 8
 95  2  7 20  6 29.9880000  0  8 28 18 14 19 31 22 27 29
  19811456.871    -9505164.613 5
  16873908.231   -35239898.463 7
  19445628.707   -16894200.905 5 -13164323.711 5
  17830604.059   -27933420.200 7 -21666345.086 7
  19849082.856    -9304336.929 5  -7047879.543 4
  20093280.754   -20911376.023 5  -6593066.951 5
  20678593.129    -5606957.209 3  -4274496.077 3
  16956504.066   -37312104.805 7 -29074364.082 8
 95  2  7 20  6 59.9880000  0  8 28 18 14 19 31 22 27 29
  19795853.043    -9587166.478 5
  16858283.504   -35322000.880 7
  19457604.934   -16831252.857 5 -13115273.408 5
  17815051.207   -28015148.971 7
  19825184.879    -9429930.217 5  -7145744.307 3
  20104352.863   -20853186.882 5  -6547724.828 5
  20656327.137    -5724004.940 4  -4365702.066 3
  16951533.152   -37338228.926 7 -29094720.559 8
 95  2  7 20  7 29.9870000  0  8 28 18 14 19 31 22 27 29
  19780332.280    -9668730.452 5
  16842738.851   -35403688.605 7
  19469612.398   -16768157.502 5 -13066108.304 5
  17799539.734   -28096666.159 7
  19801316.054    -9555348.171 5  -7243472.437 4
  20115463.109   -20794797.230 5  -6502226.469 5
  20634065.491    -5840975.342 3  -4456847.789 3
  16946644.757   -37363921.850 7 -29114741.036 8
 95  2  7 20  7 59.9870000  0  8 28 18 14 19 31 22 27 29
  19764893.343    -9749870.832 5        -0.23415
  16827266.530   -35484995.074 7
  19481648.015   -16704915.772 5 -13016829.150 5
  17784064.163   -28177992.016 7
  19777483.765    -9680597.960 5  -7341069.530 3
  20126607.585   -20736246.414 5  -6456602.534 5
  20611815.694    -5957874.458 3  -4547937.948 4
  16941833.444   -37389200.887 7 -29134439.002 8
 95  2  7 20  8 29.9870000  0  8 28 18 14 19 31 22 27 29
  19749531.343    -9830587.587 5    -62896.378 5
  16811864.382   -35565941.226 7 -27449952.314 9
  19493709.726   -16641525.931 5 -12967434.573 5
  17768624.218   -28259123.732 7 -21920139.919 7
  19753681.569    -9805670.105 5  -7438528.198 3
  20137772.913   -20677557.873 5  -6410871.265 5
  20589587.202    -6074696.120 4  -4638967.789 4
  16937101.413   -37414073.123 7 -29153819.984 8
 95  2  7 20  8 59.9870000  0  8 28 18 14 19 31 22 27 29
  19734249.218    -9910885.725 5   -125466.347 5
  16796526.468   -35646542.799 7 -27512758.729 9
  19505800.679   -16577990.065 5 -12917926.209 5
  17753220.312   -28340075.364 7 -21983219.079 7
  19729916.788    -9930565.303 5  -7535848.981 4
  20148964.312   -20618743.595 5  -6365042.018 5
  20567369.390    -6191440.082 4  -4729937.054 4
  16932441.609   -37438558.294 7 -29172899.354 8
 95  2  7 20  9 29.9870000  0  8 28 18 14 19 31 22 27 29
  19719048.202    -9990756.047 5   -187702.941 6
  16781251.460   -35726796.272 7 -27575293.891 9
  19517921.655   -16514297.414 5 -12868295.685 5
  17737851.054   -28420858.916 7 -22046167.277 7
  19706183.655   -10055277.151 5  -7633026.869 2
  20160178.577   -20559821.610 5  -6319128.857 5
  20545170.124    -6308099.882 4  -4820840.751 3
  16927854.319   -37462663.898 7 -29191682.963 8
 95  2  7 20  9 59.9870000  0  8 28 18 14 19 31 22 27 29
  19703937.046   -10070198.451 5   -249606.104 6
  16766047.202   -35806711.583 7 -27637565.560 9
  19530069.812   -16450456.681 5 -12818549.775 5
  17722503.124   -28501480.034 7 -22108988.902 7
  19682487.085   -10179801.629 5  -7730058.784 4
  20171413.288   -20500778.588 5  -6273121.375 5
  20522990.085    -6424682.433 4  -4911684.267 4
  16923339.124   -37486389.009 7 -29210170.074 8
 95  2  7 20 10 29.9870000  0  8 28 18 14 19 31 22 27 29
  19688899.780   -10149211.657 5   -311174.812 5
  16750903.851   -35886265.195 7 -27699555.372 9
  19542244.773   -16386474.808 5 -12768693.883 5
  17707197.999   -28581941.507 7 -22171686.139 7
  19658826.390   -10304139.163 5  -7826945.018 5
  20182677.765   -20441583.816 5  -6226995.638 5
  20500814.194    -6541198.889 4  -5002476.261 4
  16918896.984   -37509729.988 7 -29228357.872 8
 95  2  7 20 10 59.9870000  0  8 28 18 14 19 31 22 27 29
  19673943.499   -10227796.926 5   -372410.065 5
  16735839.069   -35965441.425 7 -27761251.131 9
  19554442.413   -16322373.831 5 -12718745.197 5
  17691913.179   -28662255.742 7 -22234268.633 7
  19635201.663   -10428294.911 5  -7923689.603 5
  20193970.687   -20382244.599 5  -6180757.339 4
  20478652.085    -6657655.659 4  -5093221.742 5
  16914529.366   -37532686.751 7 -29246246.271 8
 95  2  7 20 11 29.9870000  0  8 28 18 14 19 31 22 27 29
  19659074.335   -10305947.303 5   -433306.436 5
  16720847.757   -36044229.156 7 -27822644.156 9
  19566662.468   -16258163.445 5 -12668711.262 5
  17676659.507   -28742405.920 7 -22296723.298 7
  19611608.929   -10552268.712 5  -8020292.411 5
  20205290.890   -20322759.028 5  -6134405.019 3
  20456501.905    -6774047.184 4  -5183916.383 4
  16910238.788   -37555235.943 7 -29263817.091 8
 95  2  7 20 11 59.9870000  0  8 28 18 14 19 31 22 27 29
  19644284.726   -10383650.122 5   -493854.061 5
  16705932.093   -36122618.868 7 -27883727.040 9
  19578904.171   -16193823.153 5 -12618576.088 5
  17661442.390   -28822368.818 7 -22359032.027 8
  19588054.288   -10676048.007 5  -8116743.664 4
  20216643.241   -20263095.482 5  -6087914.006 4
  20434368.179    -6890362.145 4  -5274551.333 4
  16906030.023   -37577348.295 7 -29281047.516 8
 95  2  7 20 12 29.9870000  0  8 28 18 14 19 31 22 27 29
  19629584.601   -10460904.630 5   -554052.354 6
  16691088.038   -36200606.181 7 -27944496.364 9
  19591174.554   -16129353.320 5 -12568339.988 5
  17646268.265   -28902131.379 7 -22421184.652 8
  19564536.554   -10799626.794 5  -8213038.679 5
  20228026.398   -20203272.075 5  -6041298.414 4
  20412252.741    -7006596.369 4  -5365123.407 4
  16901907.023   -37599018.248 7 -29297933.213 8
 95  2  7 20 12 59.9870000  0  8 28 18 14 19 31 22 27 29
  19614964.265   -10537713.672 5   -613903.528 5
  16676321.179   -36278207.541 7 -28004964.952 9
  19603463.890   -16064764.387 5 -12518011.071 5
  17631129.452   -28981682.928 7 -22483172.854 8
  19541058.444   -10923011.898 5  -8309182.778 5
  20239433.648   -20143317.646 5  -5994580.755 5
  20390147.202    -7122746.793 4  -5455630.172 4
  16897867.882   -37620245.936 7 -29314474.289 8
 95  2  7 20 13 29.9870000  0  8 28 18 14 19 31 22 27 29
  19600440.437   -10614078.358 5   -673408.447 6
  16661628.140   -36355432.359 7 -28065140.123 9
  19615780.249   -16000051.410 5 -12467585.491 5
  17616028.796   -29061018.242 7 -22544992.558 8
  19517614.296   -11046209.082 5  -8405180.463 5
  20250870.999   -20083223.963 5  -5947754.582 4
  20368064.444    -7238809.360 5  -5546068.466 5
  16893910.296   -37641039.283 7 -29330676.908 8
 95  2  7 20 13 59.9870000  0  8 28 18 14 19 31 22 27 29
  19585986.413   -10690002.843 5   -732570.360 6
  16647001.655   -36432280.700 7 -28125021.939 9
  19628114.812   -15935224.169 5 -12417070.889 5
  17600971.858   -29140161.931 7 -22606662.950 8
  19494206.726   -11169210.815 5  -8501025.830 5
  20262332.148   -20023001.066 5  -5900827.699 5
  20345994.116    -7354788.532 5  -5636441.781 3
  16890030.484   -37661428.229 7 -29346564.411 8
 95  2  7 20 14 29.9870000  0  8 28 18 14 19 31 22 27 29
  19571624.585   -10765469.824 5   -791375.743 6
  16632455.780   -36508735.109 7 -28184596.796 9
  19640471.265   -15870294.882 5 -12366476.768 5
  17585945.359   -29219106.545 7 -22668178.215 8
  19470840.960   -11291998.955 5  -8596704.803 5
  20273817.374   -19962652.040 5  -5853802.551 5
  20323942.358    -7470662.835 5  -5726733.386 5
  16886227.405   -37681413.452 7 -29362137.329 8
 95  2  7 20 14 59.9870000  0  8 28 18 14 19 31 22 27 29
  19557354.288   -10840500.708 5   -849841.309 6
  16617976.077   -36584820.069 7 -28243883.782 9
  19652842.319   -15805287.049 5 -12315821.438 5
  17570951.163   -29297900.791 7 -22729576.310 8
  19447512.101   -11414605.724 5  -8692242.430 5
  20285320.874   -19902200.596 5  -5806697.607 5
  20301906.288    -7586455.534 5  -5816961.389 4
  16882495.726   -37701021.989 7 -29377416.717 8
 95  2  7 20 15 29.9870000  0  8 28 18 14 19 31 22 27 29
  19543155.569   -10915075.536 5   -907951.520 5
  16603570.874   -36660516.151 7 -28302867.731 8
  19665229.116   -15740184.093 5 -12265091.982 5
  17555988.398   -29376539.489 7 -22790853.205 8
  19424218.319   -11537006.776 5  -8787619.789 5
  20296843.757   -19841636.379 5  -5759504.766 5
  20279890.116    -7702160.267 5  -5907120.851 4
  16878838.554   -37720240.499 7 -29392392.190 8
 95  2  7 20 15 59.9870000  0  8 28 18 14 19 31 22 27 29
  19529050.046   -10989190.298 5   -965703.228 6
  16589240.194   -36735832.824 7 -28361556.044 9
  19677638.265   -15674984.511 5 -12214287.231 4
  17541053.109   -29455023.281 7 -22852009.390 8
  19400965.968   -11659194.968 6  -8882831.304 5
  20308388.687   -19780976.007 5  -5712236.986 5
  20257883.562    -7817790.134 5  -5997221.982 4
  16875257.218   -37739062.447 7 -29407058.663 8
 95  2  7 20 16 29.9870000  0  8 28 18 14 19 31 22 27 29
  19515036.819   -11062851.587 6  -1023101.576 6
  16574979.390   -36810776.932 7 -28419954.036 8
  19690061.663   -15609697.237 5 -12163414.170 5
  17526149.030   -29533344.209 7 -22913038.665 8
  19377752.718   -11781187.109 5  -8977890.034 4
  20319948.007   -19720232.580 5  -5664904.529 5
  20235892.538    -7933373.037 5  -6087286.530 3
  16871752.952   -37757473.437 7 -29421404.899 8
 95  2  7 20 16 59.9870000  0  8 28 18 14 19 31 22 27 29
  19501109.773   -11136059.111 5  -1080146.374 5
  16560788.671   -36885338.925 7 -28478054.284 9
  19702505.921   -15544309.609 5 -12112462.892 5
  17511279.054   -29611493.975 7 -22973934.572 8
  19354578.733   -11902967.262 5  -9072783.593 5
  20331523.116   -19659403.720 5  -5617505.470 5
  20213905.702    -8048915.934 5  -6177319.899 4
  16868329.413   -37775466.263 7 -29435425.302 8
 95  2  7 20 17 29.9870000  0  8 28 18 14 19 31 22 27 29
  19487263.694   -11208811.134 5  -1136836.197 5
  16546672.976   -36959519.487 7 -28535857.318 8
  19714965.585   -15478830.560 5 -12061440.394 4
  17496441.882   -29689457.910 7 -23034685.671 8
  19331446.476   -12024522.897 5  -9167502.208 4
  20343117.280   -19598475.135 5  -5570028.699 5
  20191921.538    -8164426.030 5  -6267327.714 4
  16864985.148   -37793046.303 7 -29449124.048 8
 95  2  7 20 17 59.9870000  0  8 28 18 14 19 31 22 27 29
  19473506.632   -11281099.782 6  -1193164.960 6
  16532630.632   -37033302.948 7 -28593350.921 9
  19727443.382   -15413260.002 5 -12010346.588 5
  17481644.843   -29767223.310 7 -23095282.064 8
  19308361.233   -12145841.759 5  -9262036.344 4
  20354738.374   -19537417.205 5  -5522451.153 5
  20169951.507    -8279886.799 5  -6357297.104 4
  16861719.429   -37810202.570 7 -29462492.583 8
 95  2  7 20 18 29.9870000  0  8 28 18 14 19 31 22 27 29
  19459839.382   -11352925.787 5  -1249133.230 6
  16518673.038   -37106669.828 7 -28650519.912 8
  19739935.538   -15347606.803 5 -11959188.383 3
  17466882.452   -29844787.891 7 -23155721.979 8
  19285321.452   -12266917.102 5  -9356380.687 5
  20366381.999   -19476223.910 5  -5474768.138 5
  20147994.530    -8395282.408 5  -6447215.718 4
  16858535.773   -37826934.157 7 -29475530.201 8
 95  2  7 20 18 59.9870000  0  8 28 18 14 19 31 22 27 29
  19446258.733   -11424297.140 5  -1304747.210 6
  16504787.148   -37179638.672 7 -28707378.752 9
  19752447.335   -15281876.917 5 -11907970.419 5
  17452158.491   -29922162.748 7 -23216014.053 8
  19262325.866   -12387751.149 5  -9450537.031 5
  20378051.476   -19414893.615 5  -5426978.341 5
  20126050.452    -8510602.529 5  -6537075.502 4
  16855428.538   -37843261.924 7 -29488253.156 8
 95  2  7 20 19 29.9870000  0  8 28 18 14 19 31 22 27 29
  19432762.898   -11495197.197 5  -1359993.972 5
  16490979.374   -37252200.369 7 -28763920.332 8
  19764967.780   -15216067.083 5 -11856690.164 5
  17437472.882   -29999336.771 7 -23276149.631 8
  19239379.304   -12508339.889 5  -9544502.215 5
  20389750.827   -19353411.634 5  -5379070.369 5
  20104119.788    -8625838.545 5  -6626869.760 4
  16852402.023   -37859168.316 7 -29500647.763 8
 95  2  7 20 19 59.9870000  0  8 28 18 14 19 31 22 27 29
  19419358.382   -11565631.285 5  -1414877.619 5
  16477252.015   -37324346.915 7 -28820138.415 8
  19777505.530   -15150182.291 4 -11805351.499 5
  17422825.960   -30076312.075 7 -23336130.363 8
  19216478.851   -12628686.223 5  -9638278.497 5
  20401477.241   -19291801.177 5  -5331062.273 4
  20082205.296    -8741001.160 5  -6716606.804 5
  16849456.655   -37874646.610 7 -29512708.786 8
 95  2  7 20 20 29.9870000  0  8 28 18 14 19 31 22 27 29
  19406047.898   -11635604.392 5  -1469402.073 5
  16463594.124   -37396094.227 7 -28876045.398 8
  19790054.819   -15084225.714 4 -11753956.893 5
  17408215.921   -30153096.506 7 -23395962.367 8
  19193623.476   -12748792.094 5  -9731867.415 5
  20413217.999   -19230088.579 5  -5282974.581 4
  20060301.827    -8856103.293 5  -6806296.715 5
  16846591.187   -37889707.861 7 -29524444.837 8
 95  2  7 20 20 59.9870000  0  8 28 18 14 19 31 22 27 29
  19392818.038   -11705108.503 6  -1523561.074 5
  16450017.515   -37467448.669 7 -28931646.263 8
  19802623.101   -15018192.332 5 -11702502.437 5
  17393638.359   -30229694.922 7 -23455649.418 8
  19170814.444   -12868652.943 5  -9825265.391 5
  20424980.226   -19168279.811 5  -5234811.932 4
  20038403.983    -8971156.614 5  -6895948.603 5
  16843805.398   -37904341.459 7 -29535847.659 8
 95  2  7 20 21 29.9870000  0  8 28 18 14 19 31 22 27 29
  19379684.991   -11774136.235 6  -1577348.886 6
  16436514.773   -37538396.213 7 -28986930.051 8
  19815202.741   -14952080.110 5 -11650986.563 5
  17379097.194   -30306114.839 7 -23515197.389 8
  19148051.616   -12988263.338 5  -9918468.214 5
  20436758.483   -19106385.936 5  -5186582.997 3
  20016523.062    -9086157.852 5  -6985559.902 4
  16841103.858   -37918534.265 7 -29546906.999 8
 95  2  7 20 21 59.9870000  0  8 28 18 14 19 31 22 27 29
  19366634.312   -11842701.328 6  -1630776.182 6
  16423092.241   -37608954.271 7 -29041910.350 9
  19827795.757   -14885902.251 5 -11599419.525 5
  17364583.976   -30382376.941 7 -23574622.379 8
  19125337.648   -13107630.736 5 -10011481.701 5
  20448549.296   -19044430.504 5  -5138306.081 4
  19994648.405    -9201113.152 5  -7075135.389 4
  16838483.171   -37932312.982 7 -29557643.680 8
 95  2  7 20 22 29.9870000  0  8 28 18 14 19 31 22 27 29
  19353675.444   -11910791.114 6  -1683833.129 5
  16409739.155   -37679124.151 7 -29096588.174 8
  19840400.898   -14819659.093 5 -11547801.606 4
  17350096.866   -30458491.025 7 -23633932.030 8
  19102670.718   -13226746.452 5 -10104299.061 5
  20460350.780   -18982409.248 5  -5089977.838 3
  19972784.202    -9316015.121 5  -7164669.316 5
  16835939.991   -37945674.906 7 -29568055.582 8
 95  2  7 20 22 59.9870000  0  8 28 18 14 19 31 22 27 29
  19340815.624   -11978412.446 5  -1736525.047 5
  16396457.140   -37748907.733 7 -29150964.976 8
  19853017.288   -14753375.928 5 -11496152.512 5
  17335639.710   -30534470.225 7 -23693136.577 8
  19080051.101   -13345614.635 6 -10196923.538 5
  20472166.952   -18920327.702 5  -5041602.670 4
  19950925.499    -9430874.720 5  -7254170.239 4
  16833475.249   -37958631.381 7 -29578151.558 8
 95  2  7 20 23 29.9870000  0  8 28 18 14 19 31 22 27 29
  19328034.171   -12045546.047 6  -1788836.910 5
  16383259.202   -37818274.334 7 -29205016.868 8
  19865636.444   -14687050.503 5 -11444470.485 5
  17321211.733   -30610287.117 7 -23752214.655 8
  19057482.179   -13464211.999 6 -10289336.997 5
  20483994.827   -18858164.632 5  -4993163.972 5
  19929079.335    -9545674.718 5  -7343624.704 5
  16831086.562   -37971179.370 7 -29587929.222 8
 95  2  7 20 23 59.9870000  0  8 28 18 14 19 31 22 27 29
  19315354.202   -12112196.588 6  -1840772.386 5
  16370134.296   -37887223.558 7 -29258743.521 8
  19878263.624   -14620700.766 5 -11392769.521 5
  17306821.530   -30685936.310 7 -23811162.053 8
  19034967.265   -13582532.300 6 -10381534.570 5
  20495836.694   -18795928.773 5  -4944668.540 5
  19907244.991    -9660423.407 5  -7433039.193 4
  16828774.796   -37983328.015 7 -29597395.713 9
 95  2  7 20 24 29.9870000  0  8 28 18 14 19 31 22 27 29
  19302759.905   -12178357.248 5  -1892326.123 5
  16357099.241   -37955749.485 7 -29312140.346 8
  19890895.038   -14554322.230 4 -11341046.118 4
  17292456.202   -30761402.523 7 -23869966.878 8
  19012507.319   -13700566.019 6 -10473508.836 5
  20507692.632   -18733619.142 4  -4896115.611 4
  19885422.952    -9775103.697 5  -7522400.380 5
  16826542.101   -37995066.676 7 -29606542.736 9
 95  2  7 20 24 59.9870000  0  8 28 18 14 19 31 22 27 29
  19290266.429   -12244040.176 5  -1943507.594 5
  16344133.687   -38023857.402 7 -29365211.445 8
  19903527.757   -14487927.624 4 -11289310.219 4
  17278133.593   -30836682.952 7 -23928626.924 8
  18990096.585   -13818324.609 6 -10565268.719 5
  20519563.765   -18671240.864 3  -4847509.226 4
  19863613.804    -9889704.212 5  -7611699.417 4
  16824380.515   -38006418.392 7 -29615388.246 9
 95  2  7 20 25 29.9870000  0  8 28 18 14 19 31 22 27 29
  19277856.983   -12309233.139 5  -1994307.282 6
  16331257.116   -38091527.762 7 -29417941.591 8
  19916172.655   -14421490.296 4 -11237540.998 4
  17263848.694   -30911761.239 7 -23987129.467 8
  18967740.296   -13935803.519 6 -10656810.670 5
  20531449.194   -18608787.618 3  -4798844.418 4
  19841825.257   -10004194.591 5  -7700912.620 4
  16822298.530   -38017366.570 7 -29623919.311 9
 95  2  7 20 25 59.9860000  0  8 28 18 14 19 31 22 27 29
  19265547.010   -12373937.946 6  -2044726.574 6
  16318460.729   -38158776.621 7 -29470343.298 8
  19928822.252   -14355006.834 3 -11185735.842 3
  17249597.174   -30986647.756 7 -24045482.571 8
  18945437.400   -14053004.477 5 -10748136.029 5
  20543345.424   -18546278.832 4  -4750136.312 4
  19820062.783   -10118564.032 5  -7790031.588 5
  16820292.236   -38027908.806 7 -29632134.055 8
 95  2  7 20 26 29.9860000  0  8 28 18 14 19 31 22 27 29
  19253328.775   -12438147.994 6  -2094760.362 6
  16305742.705   -38225603.795 7 -29522416.411 8
  19941486.135   -14288467.432 3 -11133887.090 3
  17235382.330   -31061347.670 7 -24103690.271 8
  18923187.799   -14169934.163 6 -10839250.010 5
  20555252.643   -18483697.797 3  -4701371.921 3
  19798319.994   -10232827.171 5  -7879067.721 4
  16818364.799   -38038037.615 7 -29640026.647 9
 95  2  7 20 26 59.9860000  0  8 28 18 14 19 31 22 27 29
  19241199.486   -12501879.629 5  -2144421.373 5
  16293109.494   -38292009.869 7 -29574161.397 8
  19954153.213   -14221895.648 3 -11082013.107 4
  17221195.611   -31135887.689 7 -24161773.380 8
  18900983.916   -14286617.090 5 -10930171.717 5
  20567171.315   -18421066.053 3  -4652568.013 2
  19776588.791   -10347024.003 5  -7968052.180 5
  16816512.643   -38047767.117 7 -29647608.086 9
 95  2  7 20 27 29.9860000  0  8 28 18 14 19 31 22 27 29
  19229163.908   -12565121.866 6  -2193701.023 5
  16280553.072   -38357993.524 7 -29625577.232 8
  19966830.385   -14155282.542 3 -11030106.913 4
  17207041.690   -31210265.519 7 -24219730.110 8
  18878829.658   -14403039.375 6 -11020890.330 5
  20579095.525   -18358389.427 4  -4603729.120 4
  19754868.369   -10461166.462 5  -8056994.270 5
  16814742.666   -38057069.894 7 -29654857.016 8
 95  2  7 20 27 59.9860000  0  8 28 18 14 19 31 22 27 29
  19217222.791   -12627872.819 5  -2242597.861 5
  16268074.705   -38423569.194 7 -29676675.151 8
  19979512.260   -14088643.084 3 -10978180.216 2
  17192916.025   -31284485.352 7 -24277563.716 8
  18856727.291   -14519187.558 6 -11111395.350 5
  20591032.846   -18295671.445 4  -4554857.995 3
  19733154.736   -10575271.840 5  -8145907.465 5
  16813053.932   -38065945.066 7 -29661772.743 9
 95  2  7 20 28 29.9860000  0  8 28 18 14 19 31 22 27 29
  19205378.627   -12690127.295 5  -2291107.816 5
  16255673.518   -38488723.233 7 -29727444.527 8
  19992200.424   -14021981.671 3 -10926236.409 3
  17178826.768   -31358541.169 7 -24335269.525 8
  18834677.643   -14635060.328 6 -11201685.750 5
  20602977.885   -18232900.926 5  -4505945.955 3
  19711448.901   -10689340.691 5  -8234792.205 5
  16811448.065   -38074387.571 7 -29668351.332 9
 95  2  7 20 28 59.9860000  0  8 28 18 14 19 31 22 27 29
  19193625.900   -12751891.642 5  -2339235.872 6
  16243351.244   -38553470.880 7 -29777897.238 8
  20004883.947   -13955304.281 3 -10874280.136 3
  17164767.025   -31432431.215 7 -24392846.159 8
  18812679.088   -14750664.568 6 -11291766.905 5
  20614929.010   -18170097.837 5  -4457008.524 1
  19689751.252   -10803363.138 5  -8323640.790 5
  16809921.408   -38082406.175 7 -29674599.601 8
 95  2  7 20 29 29.9860000  0  8 28 18 14 19 31 22 27 29
  19181970.854   -12813148.577 5  -2386968.533 5
  16231108.658   -38617811.306 7 -29828032.628 8
  20017578.908   -13888598.631 3 -10822301.836 2
  17150740.283   -31506135.195 7 -24450277.812 8
  18790739.400   -14865963.500 6 -11381610.162 5
  20626891.065   -18107247.333 5  -4408034.126 2
  19668061.854   -10917325.742 5  -8412442.736 5
  16808482.275   -38089975.628 7 -29680497.889 9
 95  2  7 20 29 59.9860000  0  8 28 18 14 19 31 22 27 29
  19170405.791   -12873915.123 5  -2434319.067 5
  16218944.822   -38681751.719 7 -29877856.322 8
  20030274.760   -13821879.667 3 -10770313.189 3
  17136744.932   -31579665.071 7 -24507573.795 8
  18768853.533   -14980970.782 6 -11471226.160 5
  20638857.143   -18044362.687 5  -4359033.146 1
  19646381.197   -11031255.401 5  -8501219.011 5
  16807120.986   -38097121.828 7 -29686066.372 9
 95  2  7 20 30 29.9860000  0  8 28 18 14 19 31 22 27 29
  19158933.994   -12934179.309 5  -2481278.156 6
  16206856.807   -38745266.669 7 -29927348.489 8
  20042975.955   -13755133.991 3 -10718303.729 2
  17122790.877   -31653007.392 7 -24564723.635 8
  18747025.549   -15095667.788 6 -11560600.361 5
  20650833.260   -17981424.129 5  -4309990.127 2
  19624712.838   -11145142.137 5  -8589961.847 5
  16805845.174   -38103831.691 7 -29691294.853 9
 95  2  7 20 30 59.9860000  0  8 28 18 14 19 31 22 27 29
  19147557.190   -12993954.045 5  -2527855.859 5
  16194850.541   -38808365.115 7 -29976516.110 8
  20055678.182   -13688372.971 3 -10666282.282 1
  17108867.260   -31726172.237 7 -24621735.188 8
  18725262.315   -15210035.001 6 -11649717.578 5
  20662815.361   -17918442.861 4  -4260913.837 3
  19603044.611   -11258998.766 5  -8678681.231 5
  16804647.963   -38110122.920 7 -29696197.121 9
 95  2  7 20 31 29.9860000  0  8 28 18 14 19 31 22 27 29
  19136279.229   -13053225.391 5  -2574041.316 5
  16182924.275   -38871022.767 7 -30025340.243 8
  20068390.682   -13621589.005 3 -10614242.966 1
  17094981.354   -31799153.877 7 -24678603.990 8
  18703569.760   -15324034.262 6
  20674812.635   -17855392.378 4  -4211783.643 2
  19581386.955   -11372805.097 5
  16803531.799   -38115983.145 7 -29700763.543 8
 95  2  7 20 31 59.9860000  0  8 28 18 14 19 31 22 27 29
  19125098.572   -13111993.986 5  -2619834.998 6
  16171088.447   -38933222.176 7 -30073807.310 8
  20081099.104   -13554805.411 3 -10562203.966 1
  17081127.822   -31871959.754 7 -24735335.830 8
  18681943.385   -15437673.101 6 -11827097.736 5
  20686827.838   -17792270.883 4  -4162598.087 4
  19559745.721   -11486536.370 5  -8855983.131 5
  16802493.018   -38121439.811 7 -29705015.502 8
 95  2  7 20 32 29.9860000  0  8 28 18 14 19 31 22 27 29
  19114014.611   -13170255.048 5  -2665233.192 6
  16159341.463   -38994953.307 7 -30121909.491 8
  20093805.143   -13488029.270 3 -10510170.750 2
  17067304.658   -31944601.712 7 -24791939.943 8
  18660390.635   -15550948.181 6 -11915363.955 6
  20698851.541   -17729078.650 4  -4113357.409 3
  19538126.065   -11600167.708 5  -8944526.972 4
  16801533.986   -38126490.827 7 -29708951.374 9
 95  2  7 20 32 59.9860000  0  8 28 18 14 19 31 22 27 29
  19103016.533   -13228016.845 5  -2710242.373 6
  16147684.150   -39056221.250 7 -30169650.736 8
  20106506.893   -13421268.385 3 -10458149.414 1
  17053505.268   -32017102.844 7 -24848434.329 8
  18638897.385   -15663887.986 6 -12003368.907 5
  20710885.166   -17665847.232 3  -4064086.200 4
  19516514.986   -11713704.731 5  -9032997.314 5
  16800646.775   -38131148.666 7 -29712580.884 8
 95  2  7 20 33 29.9860000  0  8 28 18 14 19 31 22 27 29
  19092122.643   -13285275.805 5  -2754859.711 6
  16136115.588   -39117015.711 7 -30217023.047 8
  20119211.658   -13354524.326 3 -10406141.229 2
  17039736.619   -32089465.089 7 -24904820.483 8
  18617460.361   -15776529.544 6 -12091141.455 5
  20722923.315   -17602583.727 3  -4014790.011 5
  19494927.416   -11827149.759 5  -9121395.979 5
  16799834.690   -38135416.084 7 -29715906.158 8
 95  2  7 20 33 59.9860000  0  8 28 18 14 19 31 22 27 29
  19081327.619   -13342024.812 5  -2799079.689 6
  16124638.057   -39177336.205 7 -30264026.025 8
  20131912.150   -13287791.384 3 -10354141.695 2
  17025991.244   -32161679.362 7 -24961091.332 8
  18596080.236   -15888890.067 6 -12178695.025 5
  20734968.283   -17539299.500 3  -3965477.672 5
  19473356.932   -11940511.624 5  -9209729.837 5
  16799098.690   -38139281.491 7 -29718918.180 9
 95  2  7 20 34 29.9860000  0  8 28 18 14 19 31 22 27 29
  19070618.705   -13398267.695 5  -2842905.287 6
  16113245.861   -39237207.210 7 -30310678.756 8
  20144613.619   -13221055.322 3 -10302139.676 2
  17012278.744   -32233750.941 7 -25017251.014 8
  18574751.010   -16000972.525 6 -12266031.935 5
  20747009.065   -17476012.653 3  -3916163.300 5
  19451793.963   -12053819.083 5  -9298021.294 5
  16798443.643   -38142724.920 7 -29721601.389 8
 95  2  7 20 34 59.9860000  0  8 28 18 14 19 31 22 27 29
  19060016.838   -13454003.811 5  -2886335.990 6
  16101935.119   -39296642.541 7 -30356992.000 8
  20157306.955   -13154322.818 3 -10250140.500 1
  16998593.143   -32305662.121 7 -25073285.678 8
  18553475.440   -16112780.658 6 -12353155.076 5
  20759055.838   -17412716.920 3  -3866841.967 4
  19430241.315   -12167080.034 5  -9386276.510 5
  16797869.611   -38145747.897 7 -29723956.967 8
 95  2  7 20 35 29.9860000  0  8 28 18 14 19 31 22 27 29
  19049506.088   -13509233.171 5  -2929371.819 6
  16090702.713   -39355659.792 7 -30402979.464 8
  20170001.752   -13087616.144 3 -10198161.412 3
  16984944.307   -32377397.485 7 -25129183.362 8
  18532254.166   -16224299.053 6 -12440052.444 5
  20771097.604   -17349400.655 3  -3817504.628 4
  19408695.815   -12280294.689 5  -9474495.650 5
  16797371.221   -38148351.919 7 -29725986.097 9
 95  2  7 20 35 59.9860000  0  7 28 18 14 19 31 27 29
  19039093.182   -13563947.216 5  -2972006.113 6
  16079548.940   -39414266.498 7 -30448647.026 8
  20182691.338   -13020938.962 3 -10146205.336 2
  16971326.846   -32448959.620 7 -25184946.055 8
  18511096.221   -16335495.736 6 -12526699.158 5
  19387163.510   -12393459.758 5  -9562676.154 5
  16796961.369   -38150510.167 7 -29727667.866 8
 95  2  7 20 36 29.9860000  0  7 28 18 14 19 31 27 29
  19028778.619   -13618147.049 5  -3014239.722 6
  16068477.721   -39472455.697 7 -30493989.259 8
  20195373.080   -12954299.681 3 -10094278.759 3
  16957740.869   -32520354.035 7 -25240578.058 8
  18489997.846   -16446360.063 6 -12613086.884 6
  19365637.604   -12506570.697 5  -9650814.482 5
  16796630.900   -38152239.247 7 -29729015.224 8
 95  2  7 20 36 59.9860000  0  7 28 18 14 19 31 27 29
  19018563.072   -13671836.518 5  -3056075.627 6
  16057486.299   -39530222.160 7 -30539002.087 8
  20208044.760   -12887717.331 3 -10042396.531 3
  16944184.533   -32591577.884 7 -25296077.145 8
  18468963.315   -16556887.434 6 -12699212.032 5
  19344125.635   -12619626.319 5  -9738909.711 5
  16796379.213   -38153566.910 7 -29730049.783 8
 95  2  7 20 37 29.9860000  0  7 28 18 14 19 31 27 29
  19008443.658   -13725020.112 5  -3097517.359 6
  16046575.690   -39587554.423 7 -30583676.571 8
  20220701.369   -12821198.765 3  -9990564.036 3
  16930661.713   -32662641.499 7 -25351451.382 8
  18447999.650   -16667057.652 6 -12785058.881 6
  19322618.799   -12732645.292 5  -9826976.358 5
  16796202.713   -38154491.539 7 -29730770.300 8
 95  2  7 20 37 59.9860000  0  7 28 18 14 19 31 27 29
  18998417.650   -13777695.453 5  -3138563.048 6
  16035753.361   -39644430.075 7 -30627995.262 8
  20233349.479   -12754728.391 3  -9938769.083 2
  16917167.932   -32733548.538 7 -25406703.606 8
  18427105.838   -16776855.252 6 -12870615.390 5
  19301118.713   -12845630.148 5  -9915016.444 5
  16796104.611   -38155018.193 7 -29731180.697 8
 95  2  7 20 38 29.9860000  0  7 28 18 14 19 31 27 29
  18988493.760   -13829855.556 5  -3179207.267 6
  16025018.025   -39700829.418 7 -30671942.795 8
  20245991.408   -12688292.741 3  -9887001.182 2
  16903711.658   -32804281.716 7 -25461820.356 8
  18406286.221   -16886266.646 6 -12955870.963 6
  19279625.994   -12958571.628 5 -10003022.725 5
  16796077.354   -38155162.239 7
 95  2  7 20 38 59.9860000  0  7 28 18 14 19 31 27 29
  18978670.182   -13881490.234 5  -3219442.061 6
  16014380.455   -39756738.689 7 -30715508.455 8
  20258631.940   -12621874.552 3  -9835246.889 2
  16890284.557   -32874825.751 7 -25516789.721 9
  18385541.361   -16995275.017 6 -13040812.480 6
  19258142.643   -13071468.369 5 -10090994.141 5
  16796126.541   -38154894.801 7
 95  2  7 20 39 29.9860000  0  7 28 18 14 19 31 27 29
  18968940.815   -13932603.862 5  -3259270.845 6
  16003831.065   -39812160.759 7 -30758694.479 8
  20271268.408   -12555474.496 2  -9783506.742 1
  16876897.744   -32945196.454 7 -25571624.022 9
  18364875.252   -17103883.091 6 -13125442.089 6
  19236666.588   -13184320.776 5 -10178931.002 5
  16796259.713   -38154207.547 7 -29730549.080 8
 95  2  7 20 39 59.9860000  0  7 28 18 14 19 31 27 29
  18959310.533   -13983199.295 5  -3298695.844 6
  15993375.510   -39867112.539 7 -30801514.047 7
  20283900.877   -12489092.759 2  -9731780.846 1
  16863538.072   -33015406.932 7 -25626333.466 9
  18344279.822   -17212109.124 6 -13209774.011 6
  19215203.455   -13297109.773 5 -10266818.473 5
  16796469.229   -38153106.943 7 -29729691.484 8
 95  2  7 20 40 29.9860000  0  6 28 18 19 31 27 29
  18949781.471   -14033273.385 5  -3337714.576 6
  15983006.604   -39921600.826 7 -30843972.448 8
  16850208.885   -33085446.499 7 -25680909.736 9
  18323754.611   -17319973.607 6 -13293824.199 5
  19193755.002   -13409821.836 5 -10354646.001 5
  16796757.643   -38151582.597 7 -29728503.693 8
 95  2  7 20 40 59.9860000  0  7 28 18 14 19 31 27 29
  18940352.065   -14082826.183 5  -3376327.129 6
  15972725.541   -39975636.753 7 -30886078.353 7
  20309143.049          -0.01912
  16836910.932   -33155313.381 7 -25735351.448 8
  18303294.369   -17427486.033 6 -13377600.047 6
  19172322.697   -13522450.961 5 -10442408.884 5
  16797131.635   -38149623.602 7 -29726977.220 9
 95  2  7 20 41 29.9860000  0  6 28 18 19 31 27 29
  18931024.322   -14131858.469 5  -3414534.073 6
  15962525.018   -40029237.754 7 -30927845.361 7
  16823648.518   -33225016.124 7 -25789665.254 9
  18282900.775   -17534661.964 6 -13461113.718 6
  19150907.307   -13634989.277 5 -10530101.031 5
  16797583.744   -38147236.717 7 -29725117.322 8
 95  2  7 20 41 59.9860000  0  6 28 18 19 31 27 29
  18921789.846   -14180366.105 5  -3452332.212 6
  15952409.150   -40082403.265 7 -30969273.021 8
  16810415.455   -33294540.180 7 -25843839.826 8
  18262566.588   -17641517.061 6 -13544377.377 6
  19129510.830   -13747435.505 5 -10617721.412 5
  16798121.283   -38144423.719 7 -29722925.388 8
 95  2  7 20 42 29.9860000  0  6 28 18 19 31 27 29
  18912656.213   -14228358.751 5  -3489729.054 6
  15942371.979   -40135135.520 7 -31010363.081 8
  16797221.658   -33363890.858 7 -25897879.304 9
  18242293.432   -17748055.560 6 -13627394.339 5
  19108119.682   -13859822.524 5 -10705295.673 5
  16798733.127   -38141201.706 7 -29720414.747 8
 95  2  7 20 42 59.9860000  0  7 28 18 14 19 31 27 29
  18903625.729   -14275819.068 5  -3526711.104 6
  15932422.369   -40187422.461 7 -31051106.148 7
  20359496.455          -0.11612
  16784056.565   -33433071.280 7 -25951786.106 9
  18222087.572   -17854236.868 6 -13710132.961 5
  19086747.119   -13972148.390 5 -10792822.274 5
  16799426.018   -38137553.755 7 -29717572.201 8
 95  2  7 20 43 29.9860000  0  7 28 18 14 19 31 27 29
  18894701.752   -14322744.937 5  -3563276.697 6
  15922561.549   -40239247.797 7 -31091489.527 7
  20372055.221       65991.748 3        -0.33111
  16770919.197   -33502094.932 7 -26005570.753 9
  18201952.002   -17960041.948 6 -13792578.429 6
  19065385.947   -14084417.826 5 -10880304.907 5
  16800201.611   -38133484.691 7 -29714401.524 8
 95  2  7 20 43 59.9850000  0  8 28 18 14 19 31  2 27 29
  18885874.778   -14369134.878 5  -3599424.684 6
  15912792.622   -40290582.370 7 -31131490.484 7
  20384602.513      131930.399 2     51380.310 1
  16757818.403   -33570953.138 7 -26059226.481 9
  18181895.708   -18065445.073 6 -13874710.699 5
  20569169.146          -0.38313
  19044027.833   -14196641.235 5 -10967751.679 5
  16801055.317   -38129001.952 7 -29710908.488 9
 95  2  7 20 44 29.9850000  0  8 28 18 14 19 31  2 27 29
  18877146.396   -14414991.973 5  -3635157.454 6
  15903117.450   -40341428.143 7 -31171110.561 7
  20397142.810      197811.061 2    102715.738 1
  16744742.778   -33639655.835 7 -26112761.032 9
  18161918.653   -18170420.013 6 -13956509.285 6
  20543093.888     -137019.651 3        -0.04214
  19022678.396   -14308838.391 5 -11055177.995 5
  16801986.286   -38124103.244 7 -29707091.332 8
 95  2  7 20 44 59.9850000  0  8 28 18 14 19 31  2 27 29
  18868516.411   -14460320.833 5  -3670478.644 6
  15893531.294   -40391793.405 7 -31210356.214 7
  20409656.802                          -0.23013
  16731701.903   -33708205.336 7 -26166176.209 9
  18142024.646   -18274970.546 6 -14037977.173 6
  20517040.122     -273925.407 3   -106679.618 2
  19001335.052   -14420993.428 5 -11142571.499 5
  16802997.567   -38118790.074 7 -29702951.217 8
 95  2  7 20 45 29.9850000  0  8 28 18 14 19 31  2 27 29
  18859993.396   -14505122.634 5  -3705389.134 6
  15884039.208   -40441675.552 7 -31249225.419 7
  20422167.528       65729.057 3        -0.50011
  16718686.857   -33776591.913 7 -26219464.433 9
  18122207.075   -18379116.300 6 -14119129.661 6
  20491004.380     -410731.461 2   -213281.508 2
  18980003.677   -14533102.068 5 -11229928.854 5
  16804088.349   -38113064.810 7 -29698489.986 8
 95  2  7 20 45 59.9850000  0  8 28 18 14 19 31  2 27 29
  18851569.661   -14549401.297 5  -3739891.990 6
  15874637.646   -40491090.465 7 -31287730.542 7
  20434656.239      131376.810 3     51153.472 2
  16705700.403   -33844812.926 7 -26272623.646 9
  18102463.888   -18482870.201 6 -14199976.787 6
  20464996.560     -547424.410 2   -319795.252 2
  18958675.661   -14645169.358 5 -11317253.977 5
  16805256.232   -38106928.146 7 -29693708.183 8
 95  2  7 20 46 29.9850000  0  7 28 18 19 31  2 27 29
  18843240.849   -14593156.708 5  -3773987.107 6
  15865318.544   -40540063.292 7 -31325891.187 7
  16692749.771   -33912884.256 7 -26325666.221 9
  18082790.747   -18586243.838 6 -14280527.601 6
  20439008.169     -683981.105 2   -426202.857 2
  18937363.536   -14757177.351 5 -11404532.894 5
  16806501.357   -38100383.578 7 -29688608.540 8
 95  2  7 20 46 59.9850000  0  7 28 18 19 31  2 27 29
  18835021.583   -14636369.854 5  -3807659.684 6
  15856086.310   -40588574.268 7 -31363691.949 7
  16679824.966   -33980798.589 7 -26378586.473 9
  18063192.442   -18689233.649 6 -14360779.328 5
  20413051.755     -820371.099 2   -532480.506 2
  18916063.622   -14869095.443 5 -11491741.757 5
  16807828.185   -38093411.094 7 -29683175.458 8
 95  2  7 20 47 29.9850000  0  7 28 18 19 31  2 27 29
  18826897.786   -14679036.024 5  -3840906.043 6
  15846946.497   -40636603.053 7 -31401116.977 7
  16666934.169   -34048555.495 7 -26431384.041 9
  18043670.333   -18791815.537 6 -14440713.199 6
  20387133.083     -956582.859 3   -638619.309 3
  18894784.927   -14980931.631 5 -11578886.804 5
  16809235.271   -38086013.978 7 -29677411.489 8
 95  2  7 20 47 59.9850000  0  7 28 18 19 31  2 27 29
  18818884.685   -14721170.663 5  -3873738.237 6
  15837897.630   -40684150.360 7 -31438166.825 7
  16654067.794   -34116165.374 7 -26484067.051 9
  18024229.075   -18893977.263 6 -14520319.661 6
  20361245.802    -1092629.327 3   -744629.330 2
  18873513.982   -15092696.616 5 -11665976.370 5
  16810720.224   -38078212.602 7 -29671332.523 8
 95  2  7 20 48 29.9850000  0  7 28 18 19 31  2 27 29
  18810961.442   -14762769.689 5  -3906153.053 6
  15828944.817   -40731214.712 7 -31474840.354 7
  16641227.942   -34183621.113 7 -26536629.951 8
  18004872.692   -18995710.687 6 -14599592.398 6
  20335378.950    -1228545.036 3   -850537.481 2
  18852258.794   -15204387.203 5 -11753007.957 5
  16812281.521   -38070002.503 7 -29664935.064 8
 95  2  7 20 48 59.9850000  0  7 28 18 19 31  2 27 29
  18803153.591   -14803828.079 5  -3938146.601 6
  15820080.482   -40777776.348 7 -31511122.156 7
  16628430.692   -34250898.473 7 -26589053.844 8
  17985597.013   -19096996.182 6 -14678516.084 6
  20309543.513    -1364339.832 3   -956351.395 2
  18831020.708   -15316003.744 5 -11839981.837 6
  16813925.567   -38061371.358 7 -29658209.517 8
 95  2  7 20 49 29.9850000  0  7 28 18 19 31  2 27 29
  18795440.216   -14844351.071 5  -3969722.943 6
  15811319.286   -40823834.242 7 -31547011.426 7
  16615659.028   -34317989.733 7 -26641332.733 9
  17966407.442   -19197832.910 6 -14757090.078 6
  20283720.044    -1500031.490 3  -1062084.944 3
  18809795.888   -15427544.579 5 -11926896.732 5
  16815645.028   -38052327.256 7 -29651162.185 8
 95  2  7 20 49 59.9850000  0  7 28 18 19 31  2 27 29
  18787830.364   -14884340.416 5  -4000883.454 6
  15802647.278   -40869405.618 7 -31582521.594 7
  16602929.364   -34384891.072 7 -26693463.630 9
  17947301.677   -19298240.920 6 -14835330.020 6
  20257914.450    -1635623.552 3  -1167740.896 3
  18788582.521   -15539008.891 5 -12013751.992 6
  16817448.825   -38042860.356 7 -29643785.401 8
 95  2  7 20 50 29.9850000  0  7 28 18 19 31  2 27 29
  18780325.599   -14923798.771 5  -4031630.215 6
  15794063.302   -40914511.484 7 -31617669.027 7
  16590229.732   -34451616.304 7 -26745457.295 9
  17928270.271   -19398238.699 6 -14913250.319 6
  20232131.810    -1771095.369 4  -1273303.146 3
  18767387.130   -15650402.997 5 -12100552.550 5
  16819330.177   -38032968.321 7 -29636077.344 8
 95  2  7 20 50 59.9850000  0  7 28 18 19 31  2 27 29
  18772914.263   -14962720.903 5  -4061959.129 6
  15785571.380   -40959134.459 7 -31652440.176 7
  16577567.552   -34518162.620 7 -26797311.559 9
  17909322.833   -19497824.000 6 -14990849.190 6
  20206391.864    -1906400.835 4  -1378735.811 2
  18746204.724   -15761715.582 5 -12187289.570 5
  16821294.146   -38022651.102 7 -29628037.983 8
 95  2  7 20 51 29.9850000  0  7 28 18 19 31  2 27 29
  18765612.325   -15001100.669 5  -4091865.429 6
  15777169.778   -41003279.660 7 -31686839.039 7
  16564939.989   -34584535.244 7 -26849030.463 8
  17890451.599   -19596992.258 6 -15068123.106 6
  20180676.435    -2041521.771 4  -1484024.689 2
  18725034.161   -15872954.071 5 -12273968.884 5
  16823338.263   -38011911.067 7 -29619669.151 8
 95  2  7 20 51 59.9850000  0  7 28 18 19 31  2 27 29
  18758414.724   -15038929.504 6  -4121342.416 6
  15768861.044   -41046949.143 7 -31720867.205 7
  16552342.591   -34650734.121 7 -26900613.989 8
  17871659.786   -19695737.276 6 -15145067.226 6
  20155000.880    -2176434.622 4  -1589151.406 3
  18703879.107   -15984129.891 5 -12360599.349 6
  16825463.067   -38000741.537 7 -29610965.645 8
 95  2  7 20 52 29.9850000  0  7 28 18 19 31  2 27 29
  18751320.974   -15076213.000 6  -4150394.478 6
  15760641.575   -41090149.070 7 -31754529.488 7
  16539776.239   -34716763.161 7 -26952065.175 9
  17852951.146   -19794053.227 6 -15221677.019 6
  20129365.591    -2311152.435 3  -1694126.156 2
  18682734.153   -16095256.817 6 -12447191.710 5
  16827667.021   -37989156.778 7 -29601938.583 8
 95  2  7 20 52 59.9850000  0  7 28 18 19 31  2 27 29
  18744331.982   -15112942.477 5  -4179014.819 6
  15752513.896   -41132856.845 7 -31787808.275 7
  16527244.349   -34782610.701 7 -27003374.928 9
  17834330.005   -19891913.459 6 -15297931.705 6
  20103762.864    -2445694.991 3  -1798964.320 2
  18661598.489   -16206330.679 6 -12533742.731 5
  16829949.216   -37977164.460 7 -29592593.938 8
 95  2  7 20 53 29.9850000  0  7 28 18 19 31  2 27 29
  18737445.271   -15149117.298 5  -4207202.976 6
  15744478.083   -41175073.844 7 -31820704.647 7
  16514752.521   -34848272.604 7 -27054540.031 8
  17815793.677   -19989307.491 6 -15373823.126 6
  20078194.169    -2580078.471 3  -1903678.552 3
  18640465.841   -16317362.540 5 -12620261.022 6
  16832310.099   -37964763.374 7 -29582930.774 8
 95  2  7 20 53 59.9850000  0  7 28 18 19 31  2 27 29
  18730665.794   -15184752.219 5  -4234970.417 6
  15736538.388   -41216800.930 7 -31853219.257 7
  16502288.044   -34913758.595 7 -27105568.061 9
  17797347.739   -20086254.798 6 -15449366.446 6
  20052643.513    -2714322.832 3  -2008284.380 3
  18619345.427   -16428363.008 6 -12706754.858 5
  16834744.036   -37951969.035 6 -29572961.179 8
 95  2  7 20 54 29.9850000  0  7 28 18 19 31  2 27 29
  18723986.982   -15219840.557 5  -4262311.976 6
  15728693.513   -41258019.899 7 -31885337.930 7
  16489863.966   -34979067.913 7 -27156458.420 8
  17778987.114   -20182741.961 6 -15524551.226 6
  20027122.099    -2848428.547 3  -2112782.177 1
  18598236.075   -16539309.236 6 -12793206.433 6
  16837250.591   -37938788.630 6 -29562690.755 8
 95  2  7 20 54 59.9850000  0  7 28 18 19 31  2 27 29
  18717411.521   -15254392.733 5  -4289235.737 6
  15720947.302   -41298734.363 7 -31917063.481 7
  16477463.333   -35044224.040 7 -27207229.414 8
  17760709.544   -20278786.219 6 -15599390.872 6
  20001629.911    -2982391.448 3  -2217168.681 2
  18577130.294   -16650197.421 5 -12879612.767 6
  16839831.263   -37925231.526 6 -29552126.799 8
 95  2  7 20 55 29.9850000  0  7 28 18 19 31  2 27 29
  18710939.692   -15288403.571 5  -4315737.678 6
  15713297.138   -41338936.690 7 -31948389.966 7
  16465093.497   -35109227.579 7 -27257881.511 8
  17742516.005   -20374396.121 6 -15673892.059 6
  19976170.739    -3116190.210 3  -2321427.296 3
  18556042.872   -16761019.430 6 -12965967.549 6
  16842487.864   -37911275.565 6 -29541252.039 8
 95  2  7 20 55 59.9850000  0  7 28 18 19 31  2 27 29
  18704573.778   -15321868.876 5  -4341814.518 6
  15705744.060   -41378621.321 7 -31979313.048 7
  16452752.036   -35174083.765 7 -27308418.785 8
  17724404.161   -20469569.241 6 -15748052.904 6
  19950744.497    -3249819.021 3  -2425553.486 3
  18534969.880   -16871755.807 6 -13052255.601 6
  16845218.724   -37896921.219 6 -29530066.852 8
 95  2  7 20 56 29.9850000  0  7 28 18 19 31  2 27 29
  18698307.450   -15354794.380 5  -4367470.734 6
  15698288.208   -41417808.113 7 -32009848.213 7
  16440436.755   -35238805.342 7 -27358851.172 8
  17706378.185   -20564297.742 6 -15821867.284 6
  19925342.357    -3383282.059 3  -2529550.480 2
  18513914.107   -16982407.639 6 -13138477.777 6
  16848029.146   -37882155.261 6 -29518560.927 8
 95  2  7 20 56 59.9850000  0  7 28 18 19 31  2 27 29
  18692147.903   -15387168.959 5  -4392697.662 6
  15690927.450   -41456491.750 7 -32039991.304 7
  16428149.099   -35303362.987 7 -27409155.821 8
  17688439.950   -20658568.393 6 -15895324.898 6
  19899984.232    -3516549.652 3  -2633395.211 2
  18492874.364   -17092972.244 6 -13224631.977 6
  16850923.497   -37866944.974 6 -29506708.772 8
 95  2  7 20 57 29.9850000  0  7 28 18 19 31  2 27 29
  18686090.911   -15418989.877 5  -4417493.185 6
  15683662.669   -41494671.435 7 -32069741.695 7
  16415897.755   -35367748.133 7 -27459326.050 9
  17670590.224   -20752362.168 6 -15968410.920 6
  19874662.552    -3649625.811 3  -2737090.788 4
  18471849.622   -17203461.302 6 -13310727.314 6
  16853901.646   -37851293.306 6 -29494512.687 8
 95  2  7 20 57 59.9850000  0  7 28 18 19 31  2 27 29
  18680137.200   -15450274.004 5  -4441870.396 6
  15676485.903   -41532380.444 7 -32099125.339 7
  16403679.247   -35431971.321 7 -27509370.094 9
  17652830.388   -20845690.194 6 -16041134.008 6
  19849367.192    -3782532.116 3  -2840653.987 3
  18450834.442   -17313892.168 6 -13396777.301 6
  16856961.060   -37835219.577 6 -29481987.723 7
 95  2  7 20 58 29.9850000  0  7 28 18 19 31  2 27 29
  18674282.552   -15481015.629 5  -4465824.909 6
  15669401.599   -41569608.625 7 -32128134.306 7
  16391491.489   -35496017.669 7 -27559276.321 8
  17635161.880   -20938541.289 6 -16113485.466 6
  19824114.255    -3915257.170 4  -2944075.975 3
  18429830.778   -17424267.751 6 -13482784.230 6
  16860101.263   -37818715.148 7 -29469127.143 7
 95  2  7 20 58 59.9850000  0  7 28 18 19 31  2 27 29
  18668540.841   -15511211.314 5  -4489353.994 6
  15662411.833   -41606338.224 7 -32156754.773 7
  16379337.692   -35559881.627 6 -27609040.435 7
  17617584.489   -21030919.545 6 -16185468.476 6
  19798891.708    -4047803.642 3  -3047358.846 4
  18408840.450   -17534584.298 6 -13568745.159 6
  16863318.271   -37801809.072 6 -29455953.595 7
 95  2  7 20 59 29.9850000  0  7 28 18 19 31  2 27 29
  18662900.653   -15540855.203 5  -4512453.107 6
  15655520.177   -41642559.545 7 -32184979.169 8
  16367218.513   -35623562.228 7 -27658661.674 8
  17600095.817   -21122817.142 6 -16257076.908 6
  19773695.013    -4180192.025 4  -3150518.453 4
  18387859.677   -17644834.304 6 -13654654.161 6
  16866610.325   -37784506.770 6 -29442471.285 7
 95  2  7 20 59 59.9850000  0  7 28 18 19 31  2 27 29
  18657365.974   -15569939.929 5  -4535116.516 6
  15648725.021   -41678264.702 7 -32212801.368 8
  16355139.677   -35687040.916 7 -27708125.582 9
  17582699.692   -21214229.588 6 -16328307.323 6
  19748538.403    -4312414.768 4  -3253549.048 3
  18366894.341   -17754997.294 6 -13740495.415 6
  16869981.935   -37766790.719 7 -29428666.584 7
 95  2  7 21  0 29.9850000  0  7 28 18 19 31  2 27 29
  18651931.442   -15598482.586 5  -4557357.544 6
  15642023.825   -41713472.764 7 -32240236.227 7
  16343096.888   -35750332.863 7 -27757443.975 9
  17565394.755   -21305168.374 6 -16399168.642 6
  19723404.872    -4444490.142 4  -3356464.840 4
  18345944.419   -17865094.311 6 -13826285.251 6
  16873427.583   -37748688.384 7 -29414560.874 7
 95  2  7 21  0 59.9850000  0  7 28 18 19 31  2 27 29
  18646609.435   -15626484.220 5  -4579176.987 6
  15635418.021   -41748193.917 7 -32267291.664 7
  16331084.083   -35813438.361 7 -27806617.083 9
  17548180.755   -21395636.809 6 -16469663.458 6
  19698296.083    -4576413.378 4  -3459262.053 5
  18325005.036   -17975131.043 6 -13912028.103 6
  16876946.075   -37730195.048 7 -29400150.493 7
 95  2  7 21  1 29.9850000  0  7 28 18 19 31  2 27 29
  18641379.560   -15653936.378 5  -4600568.282 6
  15628902.841   -41782430.086 7 -32293969.193 7
  16319115.825   -35876353.398 7 -27855641.774 9
  17531057.192   -21485618.379 6 -16539778.914 6
  19673227.857    -4708157.585 4  -3561919.757 4
  18304078.302   -18085099.588 6 -13997717.828 6
  16880545.247   -37711281.019 7 -29385412.299 7
 95  2  7 21  1 59.9840000  0  7 28 18 19 31  2 27 29
  18636263.531   -15680831.389 5  -4621525.434 6
  15622481.016   -41816173.889 7 -32320263.060 7
  16307177.586   -35939080.143 7 -27904519.748 9
  17514032.164   -21575093.138 6 -16609499.433 6
  19648198.406    -4839689.581 5  -3664412.115 4
  18283167.649   -18194987.235 6 -14083344.510 6
  16884224.133   -37691949.781 7 -29370349.009 7
 95  2  7 21  2 29.9840000  0  7 28 18 19 31  2 27 29
  18631247.914   -15707184.344 5  -4642060.193 6
  15616154.297   -41849425.319 7 -32346173.266 7
  16295270.633   -36001658.771 7 -27953282.309 9
  17497098.164   -21664073.877 6 -16678835.017 6
  19623206.625    -4971018.024 5  -3766745.861 5
  18262266.883   -18304825.983 6 -14168933.093 6
  16887976.000   -37672232.111 7 -29354984.599 7
 95  2  7 21  2 59.9840000  0  7 28 18 19 31  2 27 29
  18626335.414   -15733002.833 5  -4662178.500 6
  15609921.172   -41882172.112 7 -32371690.259 7
  16283386.430   -36064105.324 7 -28001941.957 9
  17480258.328   -21752566.714 6 -16747790.398 6
  19598256.524    -5102139.834 5  -3868918.605 5
  18241374.422   -18414615.407 6 -14254483.232 6
  16891800.906   -37652133.143 7 -29339323.074 7
 95  2  7 21  3 29.9840000  0  7 28 18 19 31  2 27 29
  18621526.602   -15758270.107 5  -4681867.283 6
  15603793.727   -41914385.773 7 -32396791.807 7
  16271530.391   -36126408.657 7 -28050489.998 9
  17463516.469   -21840543.019 6 -16816343.303 6
  19573344.133    -5233056.495 4  -3970931.473 4
  18220498.016   -18524325.056 6 -14339971.212 6
  16895699.922   -37631646.358 7 -29323359.358 7
 95  2  7 21  3 59.9840000  0  7 28 18 19 31  2 27 29
  18616826.688   -15782987.453 5  -4701127.551 6
  15597767.945   -41946053.650 7 -32421468.074 7
  16259699.375   -36188559.268 7 -28098919.039 9
  17446872.484   -21928007.415 6 -16884497.316 6
  19548464.961    -5363781.820 4  -4072795.256 3
  18199633.133   -18633962.113 6 -14425402.623 6
  16899672.102   -37610775.176 7 -29307096.105 7
 95  2  7 21  4 29.9840000  0  7 28 18 19 31  2 27 29
  18612219.734   -15807169.079 5  -4719970.376 6
  15591842.117   -41977193.712 7 -32445733.064 7
  16247904.055   -36250557.396 7 -28147229.263 9
  17430319.070   -22014987.920 6 -16952274.288 6
  19523623.477    -5494339.742 4  -4174528.590 5
  18178778.469   -18743549.804 6 -14510795.569 6
  16903717.094   -37589513.349 7 -29290528.457 7
 95  2  7 21  4 59.9840000  0  7 28 18 19 31  2 27 29
  18607722.172   -15830815.448 5  -4738396.109 6
  15586013.297   -42007819.914 7 -32469597.630 8
  16236143.188   -36312376.795 7 -28195400.216 9
  17413858.399   -22101487.997 6 -17019676.899 6
  19498807.399    -5624743.101 5  -4276141.501 5
  18157935.625   -18853081.100 6 -14596144.580 6
  16907840.219   -37567847.522 7 -29273646.002 7
 95  2  7 21  5 29.9840000  0  7 28 18 19 31  2 27 29
  18603323.727   -15853926.405 5  -4756404.651 6
  15580281.250   -42037940.178 7 -32493067.970 7
  16224414.492   -36374008.710 7 -28243425.076 9
  17397491.844   -22187501.496 6 -17086700.353 6
  19474020.406    -5754991.792 4  -4377633.883 5
  18137103.328   -18962557.512 6 -14681450.819 6
  16912038.024   -37545784.327 7 -29256453.908 8
 95  2  7 21  5 59.9840000  0  7 28 18 19 31  2 27 29
  18599032.922   -15876487.787 5  -4773984.924 6
  15574643.969   -42067553.258 7 -32516143.103 7
  16212725.359   -36435433.271 7 -28291288.361 9
  17381219.883   -22273015.332 6 -17153334.478 6
  19449272.992    -5885049.533 4  -4478977.446 5
  18116282.000   -19071980.441 6 -14766715.380 6
  16916317.211   -37523302.607 6 -29238935.696 8
 95  2  7 21  6 29.9840000  0  7 28 18 19 31  2 27 29
  18594838.875   -15898509.334 5  -4791144.567 6
  15569103.453   -42096676.482 7 -32538836.519 7
  16201072.086   -36496672.272 7 -28339007.048 9
  17365040.352   -22358030.236 6 -17219579.809 6
  19424560.313    -6014914.366 5  -4580170.718 3
  18095469.961   -19181345.348 6 -14851934.740 6
  16920670.820   -37500423.822 6 -29221108.090 8
 95  2  7 21  6 59.9840000  0  7 28 18 19 31  2 27 29
  18590752.633   -15919992.982 5  -4807885.054 6
  15563655.977   -42125305.481 7 -32561144.830 8
  16189451.274   -36557746.466 7 -28386597.317 9
  17348958.047   -22442540.701 6 -17285432.084 6
  19399886.711    -6144574.326 5  -4681204.356 4
  18074670.680   -19290642.235 6 -14937101.097 6
  16925094.633   -37477169.567 6 -29202987.910 8
 95  2  7 21  7 29.9840000  0  7 28 18 19 31  2 27 29
  18586771.672   -15940929.263 5  -4824199.030 6
  15558303.813   -42153425.647 7 -32583056.641 8
  16177858.656   -36618666.710 7 -28434067.622 9
  17332975.031   -22526530.793 6 -17350878.875 6
  19375258.000    -6274008.466 5  -4782062.032 3
  18053887.703   -19399857.145 6 -15022203.571 6
  16929592.625   -37453532.969 6 -29184569.806 8
 95  2  7 21  7 59.9840000  0  7 28 18 19 31  2 27 29
  18582887.102   -15961319.470 5  -4840087.478 6
  15553051.524   -42181034.902 7 -32604570.352 7
  16166291.242   -36679439.503 7 -28481423.028 9
  17317092.711   -22609997.385 6 -17415917.744 6
  19350671.609    -6403211.847 5  -4882739.886 5
  18033122.836   -19508984.000 6 -15107237.431 6
  16934164.774   -37429507.455 6 -29165848.636 8
 95  2  7 21  8 29.9840000  0  7 28 18 19 31  2 27 29
  18579109.180   -15981170.035 5  -4855555.424 6
  15547896.117   -42208128.667 7 -32625682.382 7
  16154752.180   -36740075.928 7 -28528672.171 9
  17301310.734   -22692942.358 6 -17480550.155 7
  19326123.383    -6532204.895 5  -4983253.851 5
  18012372.961   -19618014.318 6 -15192196.068 6
  16938809.172   -37405105.589 6 -29146834.209 8
 95  2  7 21  8 59.9840000  0  7 28 18 19 31  2 27 29
  18575435.930   -16000487.606 5  -4870608.065 6
  15542836.774   -42234717.298 7 -32646400.790 7
  16143239.500   -36800563.793 7 -28575805.557 9
  17285626.664   -22775365.921 6 -17544776.270 7
  19301611.492    -6660999.604 5  -5083613.260 4
  17991641.484   -19726966.605 6 -15277093.906 6
  16943524.945   -37380322.988 6 -29127523.111 8
 95  2  7 21  9 29.9840000  0  7 28 18 19 31  2 27 29
  18571862.336   -16019269.003 5  -4885242.871 6
  15537872.149   -42260803.780 7 -32666727.921 7
  16131764.141   -36860878.259 7 -28622803.824 9
  17270042.477   -22857258.958 6 -17608588.988 6
  19277141.742    -6789602.383 5  -5183823.106 4
  17970922.969   -19835842.804 6 -15361932.448 6
  16948314.453   -37355147.744 6 -29107906.060 7
 95  2  7 21  9 59.9840000  0  7 28 18 19 31  2 27 29
  18568385.469   -16037516.220 5  -4899461.465 6
  15533000.211   -42286401.521 7 -32686674.213 7
  16120323.680   -36921008.656 7 -28669658.652 9
  17254557.484   -22938631.485 6 -17671996.117 7
  19252704.195    -6918026.214 5  -5283893.516 5
  17950215.953   -19944663.144 6 -15446727.472 6
  16953179.602   -37329588.403 6 -29087989.709 7
 95  2  7 21 10 29.9840000  0  7 28 18 19 31  2 27 29
  18565016.297   -16055225.948 5  -4913261.201 6
  15528222.539   -42311513.184 7 -32706241.747 7
  16108915.844   -36980949.257 7 -28716365.594 9
  17239169.609   -23019488.887 6 -17735001.852 6
  19228298.266    -7046267.827 5  -5383821.962 4
  17929514.399   -20053440.889 6 -15531489.300 6
  16958116.461   -37303644.096 6 -29067773.377 7
 95  2  7 21 10 59.9840000  0  7 28 18 19 31  2 27 29
  18561752.203   -16072392.405 5  -4926637.637 5
  15523536.891   -42336136.629 7 -32725428.846 7
  16097546.195   -37040695.434 7 -28762921.038 9
  17223880.484   -23099838.005 6 -17797611.507 6
  19203933.703    -7174319.026 5  -5483602.011 5
  17908824.031   -20162176.845 6 -15616218.572 6
  16963126.133   -37277317.512 6 -29047259.181 7
 95  2  7 21 11 29.9840000  0  7 28 18 19 31  2 27 29
  18558593.125   -16089011.623 5  -4939587.638 5
  15518945.328   -42360261.577 7 -32744227.514 7
  16086210.117   -37100258.803 7 -28809334.027 9
  17208688.063   -23179678.540 6 -17859824.877 6
  19179600.180    -7302187.087 5  -5583239.348 5
  17888143.406   -20270854.355 6 -15700902.302 6
  16968206.500   -37250618.705 6 -29026454.928 7
 95  2  7 21 11 59.9840000  0  7 28 18 19 31  2 27 29
  18555532.188   -16105078.673 5  -4952107.376 6
  15514452.945   -42383868.008 7 -32762622.135 7
  16074910.852   -37159647.927 7 -28855611.241 9
  17193591.820   -23259006.070 6 -17921638.486 7
  19155304.234    -7429861.761 5  -5682725.998 5
  17867474.594   -20379458.891 6 -15785529.179 6
  16973360.055   -37223533.086 6 -29005349.262 7
 95  2  7 21 12 29.9840000  0  7 28 18 19 31  2 27 29
  18552579.094   -16120604.548 5  -4964205.421 6
  15510059.649   -42406948.527 7 -32780606.947 7
  16063641.539   -37218871.896 7 -28901759.767 9
  17178593.766   -23337811.033 6 -17983044.890 7
  19131045.133    -7557342.595 5  -5782061.602 4
  17846825.274   -20487978.222 6 -15870089.655 6
  16978586.742   -37196068.075 6 -28983947.980 7
 95  2  7 21 12 59.9840000  0  7 28 18 19 31  2 27 29
  18549727.977   -16135589.828 5  -4975882.223 6
  15505769.820   -42429496.724 7 -32798176.968 7
  16052405.063   -37277920.106 7 -28947771.331 9
  17163701.469   -23416083.367 6 -18044036.267 7
  19106822.406    -7684631.251 5  -5881247.466 5
  17826194.945   -20596390.249 6 -15954566.515 6
  16983885.258   -37168223.786 6 -28962251.151 7
 95  2  7 21 13 29.9840000  0  8 28 18 16 19 31  2 27 29
  18546976.836   -16150029.705 5  -4987134.030 6
  15501582.844   -42451502.152 7 -32815324.058 7
  20036222.617          -0.42313
  16041204.836   -37336781.583 7 -28993637.392 9
  17148910.461   -23493801.115 6 -18104595.502 7
  19082638.672    -7811705.955 5  -5980266.614 5
  17805585.774   -20704690.430 6 -16038956.229 6
  16989261.875   -37139968.356 6 -28940233.947 7
 95  2  7 21 13 59.9840000  0  8 28 18 16 19 31  2 27 29
  18544329.938   -16163939.736 5  -4997972.963 6
  15497496.024   -42472976.376 7 -32832057.215 7
  20016464.570     -103822.386 3
  16030037.984   -37395463.779 7 -29039363.755 9
  17134226.774   -23570967.691 6 -18164725.252 6
  19058501.211    -7938557.330 5  -6079111.719 5
  17784993.024   -20812906.445 6 -16123280.362 6
  16994717.430   -37111307.489 6 -28917900.814 6
 95  2  7 21 14 29.9840000  0  8 28 18 16 19 31  2 27 29
  18541786.102   -16177303.900 5  -5008386.564 5
  15493511.938   -42493920.410 7 -32848377.232 7
  19996792.664     -207187.577 3
  16018905.688   -37453945.215 7 -29084933.684 9
  17119651.555   -23647562.105 6 -18224409.165 6
  19034408.734    -8065170.598 5  -6177771.304 5
  17764418.219   -20921034.640 6 -16207536.052 6
  17000247.250   -37082249.347 6 -28895258.106 6
 95  2  7 21 14 59.9840000  0  8 28 18 16 19 31  2 27 29
  18539345.984   -16190123.561 5  -5018375.867 5
  15489624.828   -42514342.486 7 -32864290.540 7
  19977217.539     -310079.950 3        -0.43111
  16007816.953   -37512239.268 7 -29130357.599 9
  17105182.352   -23723591.482 6 -18283652.777 6
  19010357.258    -8191550.919 5  -6276249.378 5
  17743854.688   -21029083.701 6 -16291730.094 6
  17005850.977   -37052794.909 6 -28872306.604 6
 95  2  7 21 15 29.9840000  0  8 28 18 16 19 31  2 27 29
  18537008.234   -16202405.982 5  -5027946.559 5
  15485837.664   -42534243.447 7 -32879797.778 8
  19957725.883     -412515.075 3    -79819.990 2
  15996755.156   -37570357.037 7 -29175644.148 9
  17090824.203   -23799052.864 6 -18342453.803 7
  18986351.899    -8317711.328 5  -6374556.097 5
  17723305.586   -21137080.834 6 -16375883.672 6
  17011531.211   -37022952.040 6 -28849052.431 6
 95  2  7 21 15 59.9840000  0  8 28 18 16 19 31  2 27 29
  18534775.789   -16214153.798 5  -5037100.669 5
  15482147.500   -42553636.305 7 -32894909.091 8
  19938315.500     -514508.232 3   -159295.145 1
  15985728.453   -37628301.017 7 -29220795.281 9
  17076570.992   -23873959.071 6 -18400822.230 7
  18962380.680    -8443678.706 5  -6472712.406 5
  17702765.242   -21245023.256 6 -16459994.598 6
  17017276.617   -36992750.596 6 -28825518.855 6
 95  2  7 21 16 29.9840000  0  8 28 18 16 19 31  2 27 29
  18532642.078   -16225354.656 5  -5045828.590 5
  15478554.820   -42572512.789 7 -32909618.029 8
  19918987.219     -616050.263 3   -238418.782 1
  15974739.094   -37686060.155 7 -29265802.374 9
  17062419.094   -23948314.655 6 -18458761.598 7
  18938444.930    -8569457.882 5  -6570722.067 5
  17682237.313   -21352892.655 6 -16544048.638 6
  17023092.797   -36962185.359 6 -28801701.792 6
 95  2  7 21 16 59.9840000  0  8 28 18 16 19 31  2 27 29
  18530611.906   -16236027.063 5  -5054144.723 5
  15475061.922   -42590877.319 7 -32923928.053 8
  19899750.383     -717160.620 3   -317206.024 2
  15963776.899   -37743655.700 7 -29310682.006 9
  17048371.328   -24022138.222 6 -18516286.403 7
  18914543.453    -8695066.013 5  -6668598.453 5
  17661722.305   -21460705.736 6 -16628058.789 6
  17028980.422   -36931255.199 6 -28777600.388 6
 95  2  7 21 17 29.9840000  0  8 28 18 16 19 31  2 27 29
  18528683.117   -16246159.094 5  -5062039.793 5
  15471664.789   -42608727.195 7 -32937837.045 8
  19880594.609     -817822.747 3   -395644.035 2
  15952854.399   -37801065.768 7 -29355417.094 9
  17034424.914   -24095418.389 6 -18573387.786 7
  18890675.336    -8820487.382 5  -6766329.310 5
  17641216.375   -21568454.895 6 -16712019.122 6
  17034935.813   -36899953.811 6 -28753209.708 6
 95  2  7 21 17 59.9840000  0  8 28 18 16 19 31  2 27 29
  18526858.469   -16255756.395 6  -5069518.191 5
  15468360.469   -42626084.337 7 -32951362.093 7
  19861526.164     -918027.054 3   -473725.275 1
  15941961.859   -37858305.232 7 -29400019.263 9
  17020581.664   -24168168.157 6 -18630075.879 7
  18866846.367    -8945714.434 5  -6863908.761 5
  17620727.938   -21676126.924 6 -16795919.355 6
  17040961.938   -36868292.576 6 -28728538.628 7
 95  2  7 21 18 29.9840000  0  8 28 18 16 19 31  2 27 29
  18525131.656   -16264817.665 6  -5076578.898 5
  15465153.422   -42642942.070 7 -32964497.982 7
  19842546.781    -1017766.243 3   -551444.095 1
  15931101.672   -37915378.082 7 -29444491.598 9
  17006842.484   -24240366.399 6 -18686334.203 6
  18843059.399    -9070711.944 5  -6961309.325 5
  17600252.305   -21783720.578 6 -16879758.511 6
  17047055.570   -36836264.732 6 -28703581.885 7
 95  2  7 21 18 59.9840000  0  8 28 18 16 19 31  2 27 29
  18523510.305   -16273339.530 5  -5083219.315 6
  15462041.586   -42659300.330 7 -32977244.680 8
  19823658.336    -1117034.679 3   -628796.118 3
  15920270.727   -37972277.848 7 -29488829.053 9
  16993216.258   -24311991.477 6 -18742145.909 7
  18819321.828    -9195457.005 5  -7058513.198 5
  17579795.125   -21891227.339 6 -16963529.957 6
  17053220.156   -36803868.561 6 -28678338.143 7
 95  2  7 21 19 29.9840000  0  8 28 18 16 19 31  2 27 29
  18521989.289   -16281339.073 5  -5089452.711 5
  15459018.844   -42675173.225 7 -32989613.165 8
  19804854.110    -1215854.377 3   -705798.427 2
  15909476.625   -38029016.079 7 -29533040.648 9
  16979690.328   -24383051.134 6 -18797517.033 7
  18795626.906    -9319961.567 5  -7155529.649 5
  17559352.461   -21998653.903 6 -17047238.914 6
  17059449.984   -36771133.388 6 -28652830.234 7
 95  2  7 21 19 59.9830000  0  8 28 18 16 19 31  2 27 29
  18520569.964   -16288807.438 5  -5095272.210 6
  15456097.206   -42690528.028 7 -33001577.950 8
  19786135.839    -1314220.971 3   -782447.673 2
  15898712.011   -38085587.236 7 -29577122.052 9
  16966279.737   -24453524.746 6 -18852431.493 7
  18771985.550    -9444203.877 5  -7252341.764 5
  17538928.667   -22105975.510 6 -17130866.085 6
  17065744.628   -36738054.563 6 -28627054.557 7
 95  2  7 21 20 29.9830000  0  8 28 18 16 19 31  2 27 29
  18519251.503   -16295743.635 5  -5100677.031 6
  15453277.261   -42705344.411 7 -33013123.187 8
  19767504.917    -1412136.417 3   -858745.382 2
  15887978.019   -38141980.975 7 -29621065.209 9
  16952983.948   -24523409.347 6 -18906886.990 7
  18748394.120    -9568187.506 5  -7348952.323 5
  17518524.628   -22213205.211 6 -17214421.637 6
  17072108.651   -36704611.189 6 -28600994.813 7
 95  2  7 21 20 59.9830000  0  8 28 18 16 19 31  2 27 29
  18518030.378   -16302158.428 5  -5105675.568 5
  15450560.331   -42719622.351 7 -33024248.857 8
  19748954.112    -1509595.628 3   -934687.613 1
  15877282.761   -38198199.709 7 -29664871.991 9
  16939790.401   -24592721.587 6 -18960896.488 7
  18724843.800    -9691938.873 5  -7445381.892 5
  17498134.581   -22320355.477 6 -17297915.297 6
  17078540.636   -36670810.280 6 -28574656.462 7
 95  2  7 21 21 29.9830000  0  8 28 18 16 19 31  2 27 29
  18516908.167   -16308050.059 5  -5110266.435 5
  15447948.667   -42733349.721 7 -33034945.515 8
  19730495.737    -1606592.809 3  -1010269.799 2
  15866616.159   -38254236.824 7 -29708537.254 9
  16926711.120   -24661469.905 6 -19014466.566 7
  18701340.495    -9815461.101 5  -7541632.908 5
  17477759.151   -22427427.332 6 -17381347.852 6
  17085043.980   -36636640.718 6 -28548030.858 7
 95  2  7 21 21 59.9830000  0  8 28 18 16 19 31  2 27 29
  18515886.050   -16313422.207 5  -5114452.520 6
  15445437.323   -42746545.861 7 -33045228.231 8
  19712124.042    -1703121.997 3  -1085487.336 3
  15855987.581   -38310088.034 7 -29752057.659 9
  16913735.714   -24729663.903 6 -19067604.713 7
  18677877.042    -9938754.707 5  -7637705.786 5
  17457398.761   -22534427.841 6 -17464724.813 6
  17091617.698   -36602092.150 6 -28521109.927 7
 95  2  7 21 22 29.9830000  0  8 28 18 16 19 31  2 27 29
  18514959.605   -16318284.954 5  -5118241.644 6
  15443021.151   -42759245.441 7 -33055124.013 8
  19693847.401    -1799186.377 3  -1160342.636 2
  15845397.737   -38365750.407 7 -29795430.918 9
  16900856.691   -24797328.582 6 -19120330.413 7
  18654455.441   -10061837.295 5  -7733614.226 5
  17437044.573   -22641384.004 6 -17548067.234 6
  17098262.956   -36567169.425 6 -28493897.444 7
 95  2  7 21 22 59.9830000  0  8 28 18 16 19 31  2 27 29
  18514133.628   -16322620.757 5  -5121620.178 6
  15440702.112   -42771433.730 7 -33064621.378 8
  19675661.933    -1894775.100 3  -1234827.360 2
  15834842.511   -38421211.928 7 -29838647.667 9
  16888085.917   -24864441.682 6 -19172626.307 7
  18631074.464   -10184703.549 5  -7829354.100 5
  17416705.245   -22748273.397 6 -17631357.608 6
  17104978.980   -36531873.536 6 -28466394.185 7
 95  2  7 21 23 29.9830000  0  8 28 18 16 19 31  2 27 29
  18513406.706   -16326434.027 5  -5124591.535 6
  15438477.776   -42783123.733 7 -33073730.492 8
  19657557.417    -1989907.335 3  -1308956.327 2
  15824327.628   -38476476.070 7 -29881710.616 9
  16875419.730   -24930994.849 6 -19224485.880 7
  18607732.526   -10307350.056 5  -7924922.725 5
  17396375.245   -22855091.824 6 -17714592.706 6
  17111764.566   -36496213.608 6 -28438607.262 7
 95  2  7 21 23 59.9830000  0  8 28 18 16 19 31  2 27 29
  18512780.995   -16329726.368 5  -5127156.991 6
  15436347.519   -42794315.902 7 -33082451.661 8
  19639540.105    -2084581.554 3  -1382728.419 3
  15813848.589   -38531552.591 7 -29924627.362 9
  16862865.839   -24996973.890 6 -19275898.085 7
  18584436.659   -10429787.030 5  -8020328.090 5
  17376064.401   -22961840.061 6 -17797773.105 6
  17118616.253   -36460206.086 6 -28410549.487 7
 95  2  7 21 24 29.9830000  0  8 28 18 16 19 31  2 27 29
  18512257.933   -16332494.331 5  -5129313.816 6
  15434317.167   -42804983.180 7 -33090763.827 8
  19621614.347    -2178794.965 3  -1456141.424 2
  15803400.909   -38586447.154 7 -29967402.328 9
  16850420.339   -25062366.953 6 -19326853.692 7
  18561176.948   -10552008.478 5  -8115565.537 5
  17355765.800   -23068509.773 6 -17880892.319 6
  17125532.566   -36423865.351 6 -28382232.071 7
 95  2  7 21 24 59.9830000  0  8 28 18 16 19 31  2 27 29
  18511829.550   -16334745.778 5  -5131068.179 6
  15432387.698   -42815121.416 7 -33098663.758 8
  19603766.683    -2272559.579 3  -1529204.729 2
  15792983.253   -38641175.757 7 -30010047.970 9
  16838093.581   -25127163.910 6 -19377344.788 7
  18537962.355   -10674012.257 5  -8210633.363 5
  17335483.042   -23175092.763 6 -17963943.956 6
  17132510.589   -36387208.869 6 -28353668.615 7
 95  2  7 21 25 29.9830000  0  8 28 18 16 19 31  2 27 29
  18511498.151   -16336477.173 5  -5132417.312 6
  15430556.987   -42824739.809 7 -33106158.606 8
  19586011.878    -2365871.083 3  -1601914.991 2
  15782605.011   -38695728.981 7 -30052556.958 9
  16825874.683   -25191368.339 6 -19427374.176 7
  18514789.917   -10795784.236 5  -8305520.564 5
  17315217.073   -23281588.532 6 -18046927.637 6
  17139544.894   -36350228.900 6 -28324853.084 6
 95  2  7 21 25 59.9830000  0  8 28 18 16 19 31  2 27 29
  18511268.042   -16337687.170 5  -5133360.164 6
  15428827.316   -42833838.983 7 -33113248.876 8
  19568343.136    -2458719.359 3  -1674264.244 3
  15772257.776   -38750092.317 7 -30094917.984 9
  16813766.683   -25254992.853 6 -19476951.682 7
  18491658.511   -10917329.630 5  -8400231.216 5
  17294969.737   -23387993.412 6 -18129840.498 6
  17146643.237   -36312922.531 6 -28295783.218 6
 95  2  7 21 26 29.9830000  0  8 28 18 16 19 31  2 27 29
  18511133.933   -16338382.919 5  -5133902.301 6
  15427190.401   -42842431.982 7 -33119944.713 8
  19550756.191    -2551113.749 3  -1746259.838 2
  15761948.003   -38804272.385 7 -30137136.202 9
  16801769.675   -25318047.702 6 -19526085.298 7
  18468572.441   -11038646.433 5  -8494763.756 5
  17274737.441   -23494312.662 6 -18212686.632 6
  17153807.964   -36275280.112 6 -28266451.483 6
 95  2  7 21 26 59.9830000  0  8 28 18 16 19 31  2 27 29
  18511099.237   -16338566.503 5
  15425648.417   -42850538.328 7 -33126261.353 8
  19533265.151    -2643048.709 3  -1817897.465 2
  15751675.683   -38858268.623 7 -30179211.176 9
  16789875.003   -25380539.138 7 -19574779.884 7
  18445531.425   -11159739.493 5  -8589121.927 5
  17254521.941   -23600551.151 6 -18295469.831 6
  17161037.495   -36237287.713 6 -28236847.045 6
 95  2  7 21 27 29.9830000  0  8 28 18 16 19 31  2 27 29
  18511160.581   -16338243.730 5
  15424199.183   -42858161.682 7 -33132201.631 8
  19515860.698    -2734500.749 3  -1889158.772 1
  15741434.659   -38912077.201 7 -30221139.925 9
  16778091.886   -25442475.026 7 -19623041.574 7
  18422526.464   -11280621.903 5  -8683315.955 5
  17234320.675   -23706706.707 6 -18378188.415 6
  17168334.800   -36198938.338 6 -28206964.443 6
 95  2  7 21 27 59.9830000  0  8 28 18 16 19 31  2 27 29
  18511319.862   -16337399.724 5  -5133136.139 5
  15422844.816   -42865270.269 7 -33137740.786 8
  19498560.566    -2825434.706 3  -1960016.385 2
  15731232.237   -38965695.300 7 -30262920.239 9
  16766416.519   -25503828.198 6 -19670849.207 7
  18399566.347   -11401273.527 5  -8777330.168 5
  17214138.534   -23812757.460 6 -18460825.330 7
  17175706.097   -36160209.150 6 -28176785.873 6
 95  2  7 21 28 29.9830000  0  8 28 18 16 19 31  2 27 29
  18511579.737   -16336054.313 5  -5132087.747 6
  15421588.026   -42871879.013 7 -33142890.454 8
  19481351.651    -2915865.335 3  -2030481.764 1
  15721058.651   -39019160.570 7 -30304581.472 9
  16754846.761   -25564608.660 6 -19718210.576 7
  18376651.933   -11521695.722 5  -8871165.592 5
  17193975.159   -23918723.724 6 -18543396.408 7
  17183142.175   -36121125.748 6 -28146331.303 6
 95  2  7 21 28 59.9830000  0  8 28 18 16 19 31  2 27 29
  18511933.214   -16334205.089 5  -5130646.782 5
  15420425.191   -42877982.738 7 -33147646.605 8
  19464239.308    -3005779.099 3  -2100544.421 2
  15710915.253   -39072457.927 7 -30346111.858 9
  16743394.698   -25624811.614 6 -19765121.932 7
  18353782.987   -11641875.427 5  -8964812.057 5
  17173826.401   -24024597.635 6 -18625895.525 7
  17190644.909   -36081697.727 6 -28115608.190 6
 95  2  7 21 29 29.9830000  0  8 28 18 16 19 31  2 27 29
  18512380.589   -16331838.356 5  -5128802.576 5
  15419364.972   -42883554.634 7 -33151988.336 8
  19447231.339    -3095168.448 3  -2170198.422 2
  15700807.956   -39125573.800 7 -30387500.836 9
  16732050.159   -25684413.725 6 -19811565.105 7
  18330963.245   -11761796.725 5  -9058257.182 5
  17153699.245   -24130368.394 6 -18708314.256 7
  17198216.355   -36041918.918 6 -28084611.747 6
 95  2  7 21 29 59.9830000  0  8 28 18 16 19 31  2 27 29
  18512923.175   -16328984.993 5  -5126579.154 5
  15418402.378   -42888623.617 7 -33155938.200 8
  19430308.034    -3184097.625 3  -2239493.879 2
  15690726.769   -39178544.982 7 -30428777.065 9
  16720816.581   -25743451.048 7 -19857568.186 7
  18308191.105   -11881473.029 5  -9151511.383 5
  17133582.589   -24236088.075 6 -18790693.191 7
  17205844.261   -36001826.362 6 -28053370.809 6
 95  2  7 21 30 29.9830000  0  7 28 18 16 31  2 27 29
  18513560.839   -16325624.463 5  -5123960.546 5
  15417533.456   -42893182.374 7 -33159490.476 8
  19413476.222    -3272563.460 4  -2308428.274 2
  16709695.558   -25801899.541 7 -19903112.434 7
  18285465.183   -12000878.697 5  -9244554.704 5
  17113478.097   -24341737.692 6 -18873017.520 7
  17213535.909   -35961407.759 6 -28021875.817 6
 95  2  7 21 30 59.9830000  0  1 18
  15416765.386          -0.38617
 95  2  7 21 31 29.9830000  0  8 28 18 16 19 31  2 27 29
  18515131.776        4373.466 5
  15416095.034       -3527.555 7        -0.15618
  19380069.112      -87547.194 3
  15660702.644      -52411.191 7        -0.46119
  16687792.378      -57244.348 7
  18240168.276     -118904.475 5        -0.18615
  17073317.214     -105483.218 6        -0.16317
  17229110.651       41087.379 6        -0.25016
 95  2  7 21 31 59.9830000  0  8 28 18 16 19 31  2 27 29
  18516061.995        9252.096 5        -0.15615
  15415517.964       -6545.389 7     -2351.707 8
  19363501.316     -174637.918 3        -0.29512
  15650764.191     -104632.449 7    -40692.322 8
  16677016.401     -113869.161 6        -0.13417
  18217587.487     -237570.636 5    -92467.260 5
  17053263.870     -210862.440 6    -82113.808 7
  17236991.589       82495.679 6     32265.926 6
 95  2  7 21 32 29.9830000  0  8 28 18 16 19 31  2 27 29
  18517089.136       14636.736 5      4195.677 5
  15415039.050       -9063.330 7     -4313.739 8
  19347014.620     -261254.916 3    -67494.057 3
  15640864.128     -156655.235 7    -81229.540 9
  16666365.737     -169858.139 6    -43627.885 7
  18195046.691     -356016.477 5   -184762.649 6
  17033235.612     -316117.985 6   -164131.068 7
  17244934.339      124233.956 6     64789.238 6
 95  2  7 21 32 59.9830000  0  8 28 18 16 19 31  2 27 29
  18518206.644       20517.182 5      8777.848 5
  15414656.886      -11084.817 7     -5888.922 8
  19330623.667     -347385.889 3   -134609.053 2
  15631000.566     -208489.992 7   -121620.235 9
  16655828.206     -225227.181 7    -86772.562 7
  18172547.050     -474261.427 5   -276901.512 6
  17013224.464     -421275.553 6   -246071.986 7
  17252938.800      166299.415 6     97567.488 6
 95  2  7 21 33 29.9830000  0  8 28 18 16 19 31  2 27 29
  18519419.644       26897.905 5     13749.845 5
  15414369.550      -12602.676 7     -7071.667 8
  19314328.987     -433020.064 3   -201336.951 2
  15621175.347     -260117.090 7   -161849.122 8
  16645404.808     -279991.939 6   -129446.374 7
  18150086.284     -592289.000 5   -368870.982 5
  16993229.597     -526347.781 6   -327946.405 7
  17261005.776      208684.828 6    130595.057 6
 95  2  7 21 33 59.9830000  0  8 28 18 16 19 31  2 27 29
  18520727.394       33777.363 5     19110.478 5
  15414172.831      -13629.444 7     -7871.747 8
  19298129.151     -518154.251 3   -267675.271 2
  15611391.745     -311534.014 7   -201914.237 9
  16635098.206     -334166.168 7   -171660.014 7
  18127671.823     -710084.035 5   -460659.241 6
  16973249.245     -631346.289 6   -409763.383 7
  17269132.339      251399.377 6    163879.096 6
 95  2  7 21 34 29.9830000  0  8 28 18 16 19 31  2 27 29
  18522126.316       41136.670 5     24845.017 5
  15414070.339      -14176.749 7     -8298.221 8
  19282021.417     -602793.627 3   -333628.008 2
  15601645.706     -362757.975 7   -241828.995 9
  16624891.276     -387785.451 7   -213441.236 7
  18105297.448     -827650.058 5   -552269.063 5
  16953277.237     -736300.409 6   -491545.766 7
  17277320.894      294431.151 6    197410.316 6
 95  2  7 21 34 59.9830000  0  8 28 18 16 19 31  2 27 29
  18523618.558       48968.903 5     30948.063 5
  15414058.878      -14229.043 7
  19266006.894     -686939.164 4   -399195.919 1
  15591930.839     -413802.040 7   -281603.571 9
  16614792.917     -440866.762 7   -254803.254 7
  18082972.276     -944978.990 5   -643694.141 5
  16933314.081     -841209.414 6   -573292.996 7
  17285565.308      337756.069 6    231169.966 6
 95  2  7 21 35 29.9830000  0  8 28 18 16 19 31  2 27 29
  18525203.425       57293.568 5     37434.845 5
  15414148.651      -13762.248 7
  19250089.042     -770586.346 4   -464375.496 2
  15582253.136     -464652.998 7   -321227.677 9
  16604801.503     -493378.003 7   -295721.060 7
  18060694.714    -1062046.271 6   -734915.353 6
  16913368.284     -946015.156 6   -654959.758 7
  17293868.495      381383.896 6    265165.649 6
 95  2  7 21 35 59.9830000  0  8 28 18 16 19 31  2 27 29
  18526882.761       66110.888 5     44305.481 5
  15414334.917      -12780.294 7     -7210.080 8
  19234270.276     -853731.190 4   -529163.649 1
  15572614.316     -515318.918 7   -360707.595 9
  16594922.206     -545289.647 7   -336171.646 7
  18038465.909    -1178860.468 5   -825939.353 5
  16893447.206    -1050707.398 6   -736538.080 7
  17302229.573      425322.804 6    299403.736 6
 95  2  7 21 36 29.9830000  0  8 28 18 16 19 31  2 27 29
  18528654.808       75417.275 5     51557.224 5
  15414620.558      -11275.602 7     -6037.586 8
  19218544.269     -936365.135 3   -593553.705 2
  15563008.362     -565799.264 7   -400042.913 9
  16585153.347     -596605.633 6   -376158.083 7
  18016282.855    -1295430.795 5   -916773.315 6
  16873544.691    -1155286.309 6   -818028.094 7
  17310647.519      469563.561 6    333877.047 6
 95  2  7 21 36 59.9830000  0  8 28 18 16 19 31  2 27 29
  18530514.511       85196.668 5     59177.541 5
  15415000.722       -9267.063 7     -4472.504 8
  19202910.675    -1018512.336 3   -657564.463 1
  15553436.589     -616103.156 7   -439240.733 8
  16575502.550     -647324.954 6   -415679.585 7
  17994138.511    -1411781.263 5  -1007435.960 5
  16853665.136    -1259766.909 6   -899441.501 7
  17319124.370      514099.575 6    368580.406 6
 95  2  7 21 37 29.9830000  0  8 28 18 16 19 31  2 27 29
  18532467.683       95455.867 5     67171.727 5
  15415476.151       -6766.375 7     -2523.911 8
  19187371.464    -1100169.728 3   -721193.593 1
  15543899.573     -666218.251 7   -478291.433 9
  16565969.097     -697420.256 6   -454714.833 7
  17972044.456    -1527906.497 5  -1097923.091 6
  16833798.316    -1364157.924 6   -980785.107 7
  17327658.433      558953.505 6    403531.505 6
 95  2  7 21 37 59.9820000  0  8 28 18 16 19 31  2 27 29
  18534510.631      106197.149 5     75541.555 5
  15416046.772       -3780.901 7      -197.570 8
  19171929.795    -1181324.085 4   -784430.738 2
  15534399.467     -716132.963 7   -517186.009 9
  16556557.295     -746885.337 7   -493259.002 7
  17949990.225    -1643788.353 6  -1188220.576 6
  16813949.584    -1468473.681 6  -1062070.065 7
  17336256.748      604137.676 6    438739.918 6
 95  2  7 21 38 29.9820000  0  8 28 18 16 19 31  2 27 29
  18536647.006      117430.212 5     84294.591 5
  15416709.592        -299.119 7      2515.497 8
  19156581.451    -1261976.317 4   -847276.637 1
  15524941.225     -765841.447 7   -555919.876 9
  16547266.920     -795714.047 7   -531307.309 7
  17927991.537    -1759413.486 6  -1278318.027 5
  16794112.373    -1572711.177 6  -1143294.050 7
  17344920.373      649661.564 6    474213.058 6
 95  2  7 21 38 59.9820000  0  8 28 18 16 19 31  2 27 29
  18538877.475      129153.866 5     93429.893 5
  15417463.373        3674.540 7      5611.850 8
  19141330.998    -1342133.424 4   -909736.679 1
  15515517.490     -815356.062 7   -594502.677 8
  16538099.967     -843891.996 6   -568848.529 7
  17906037.350    -1874762.991 6  -1368200.722 5
  16774293.068    -1676864.755 6  -1224452.634 7
  17353645.295      695518.321 6    509945.585 6
 95  2  7 21 39 29.9820000  0  8 28 18 16 19 31  2 27 29
  18541199.459      141360.245 5    102941.357 5
  15418312.483        8132.024 7      9085.209 8
  19126172.162    -1421794.069 4   -971809.896 2
  15506130.318     -864693.778 7   -632947.636 9
  16529049.108     -891443.695 6   -605901.760 7
  17884140.584    -1989831.038 6  -1457864.075 5
  16754488.623    -1780938.106 6  -1305548.715 7
  17362431.615      741685.437 6    545919.929 6
 95  2  7 21 39 59.9820000  0  8 28 18 16 19 31  2 27 29
  18543616.514      154056.081 5    112834.222 5
  15419254.467       13090.922 7     12949.285 8
  19111110.904    -1500942.027 4  -1033483.627 2
  15496776.553     -913843.054 7   -671245.756 8
  16520118.225     -938377.798 6   -642473.758 7
  17862298.045    -2104613.489 6  -1547304.894 6
  16734703.717    -1884915.859 6  -1386570.295 7
  17371275.623      788166.845 6    582139.173 6
 95  2  7 21 40 29.9820000  0  8 28 18 16 19 31  2 27 29
  18546126.826      167239.316 5    123106.889 5
  15420298.990       18568.234 7     17217.310 8
  19096147.787    -1579570.098 4  -1094752.196 2
  15487462.342     -962798.430 7   -709392.778 8
  16511300.170     -984707.827 6   -678575.042 7
  17840512.428    -2219116.143 6  -1636527.697 6
  16714936.772    -1988784.981 6  -1467507.233 7
  17380176.873      834951.968 6    618595.093 6
 95  2  7 21 40 59.9820000  0  8 28 18 16 19 31  2 27 29
  18548725.209      180904.249 5    133754.909 5
  15421440.006       24562.016 7     21887.788 8
  19081282.123    -1657677.851 4  -1155615.362 2
  15478183.647    -1011558.342 7   -747387.499 8
  16502594.092    -1030460.047 7   -714226.094 7
  17818771.358    -2333348.006 5  -1725539.485 6
  16695192.428    -2092540.093 6  -1548355.330 7
  17389139.147      882035.958 6    655283.874 6
 95  2  7 21 41 29.9820000  0  8 28 18 16 19 31  2 27 29
  18551416.686      195042.838 5    144771.991 5
  15422676.123       31060.434 7     26951.484 8
  19066521.233    -1735265.386 4  -1216073.139 2
  15468945.834    -1060101.010 7   -785212.936 8
  16493994.225    -1075651.554 7   -749440.219 7
  17797084.568    -2447336.276 6  -1814361.447 6
  16675470.647    -2196181.493 6  -1629114.818 7
  17398156.373      929422.618 6    692208.514 6
 95  2  7 21 41 59.9820000  0  8 28 18 16 19 31  2 27 29
  18554198.920      209653.985 5    156157.307 5
  15424010.537       38071.995 7     32415.039 8
  19051855.311    -1812331.644 4  -1276124.725 3
  15459748.662    -1108418.262 7   -822862.726 8
  16485507.912    -1120271.343 6   -784208.864 7
  17775433.834    -2561089.163 6  -1903000.015 6
  16655770.037    -2299712.862 6  -1709788.562 7
  17407230.256      977111.078 6    729368.314 6
 95  2  7 21 42 29.9820000  0  8 28 18 16 19 31  2 27 29
  18557068.334      224734.774 5    167908.565 5
  15425439.787       45584.545 7     38268.975 8
  19037287.756    -1888879.970 4  -1335772.781 2
  15450596.920    -1156521.326 7   -860345.613 8
  16477122.709    -1164311.162 6   -818525.581 7
  17753835.240    -2674594.959 6  -1991446.025 6
  16636089.600    -2403131.584 6  -1790374.546 7
  17416359.272     1025085.160 6    766750.674 6
 95  2  7 21 42 59.9820000  0  8 28 18 16 19 31  2 27 29
  18560029.975      240296.764 5    180034.800 5
  15426963.467       53588.843 7     44506.093 8
  19022819.233    -1964905.556 4  -1395013.460 3
  15441485.529    -1204405.411 7   -897657.872 9
  16468858.990    -1207740.422 6   -852366.532 7
  17732283.459    -2787853.098 6  -2079699.076 6
  16616431.209    -2506440.187 6  -1870874.704 7
  17425545.748     1073360.402 6    804367.713 6
 95  2  7 21 43 29.9820000  0  8 28 18 16 19 31  2 27 29
  18563079.873      256328.377 5    192526.978 5
  15428577.467       62075.968 7     51119.433 8
  19008448.904    -2040420.505 4  -1453856.238 2
  15432411.443    -1252086.074 7   -934811.616 9
  16460716.217    -1250537.721 7   -885715.049 7
  17710776.553    -2900881.687 6  -2167773.248 6
  16596787.311    -2609657.104 6  -1951303.429 7
  17434788.639     1121921.129 6    842207.206 6
 95  2  7 21 43 59.9820000  0  8 28 18 16 19 31  2 27 29
  18566215.779      272830.219 5    205385.552 5
  15430288.014       71055.149 7     58116.190 8
  18994178.147    -2115426.590 4  -1512302.518 4
  15423372.709    -1299581.684 7   -971821.162 9
  16452698.381    -1292680.041 7   -918553.201 7
  17689314.014    -3013665.623 6  -2255656.776 6
  16577166.693    -2712773.904 6  -2031654.137 7
  17444078.725     1170748.637 6    880254.574 6
 95  2  7 21 44 29.9820000  0  8 28 18 16 19 31  2 27 29
  18569445.592      289808.523 5    218615.396 4
  15432091.162       80528.737 7     65498.209 8
  18979999.826    -2189921.507 4  -1570350.468 3
  15414371.287    -1346879.399 7  -1008676.501 8
  16444804.475    -1334156.317 6   -950872.357 7
  17667896.850    -3126198.220 6  -2343344.459 6
  16557566.217    -2815772.223 6  -2111912.524 7
  17453422.904     1219853.559 6    918518.108 6
 95  2  7 21 44 59.9820000  0  8 28 18 16 19 31  2 27 29
  18572768.303      307255.682 5    232210.574 5
  15433986.029       90492.669 7     73262.313 8
  18965919.506    -2263907.928 4  -1628002.210 2
  15405409.334    -1393976.947 7  -1045375.865 9
  16437036.342    -1374983.573 6   -982685.782 7
  17646528.490    -3238487.081 6  -2430842.207 6
  16537989.295    -2918650.080 6  -2192077.046 7
  17462824.850     1269244.884 6    957004.829 6
 95  2  7 21 45 29.9820000  0  8 28 18 16 19 31  2 27 29
  18576179.443      325172.484 5    246171.725 5
  15435979.217      100968.687 7     81425.444 8
  18951943.014    -2337374.027 4  -1685248.467 3
  15396489.428    -1440859.511 7  -1081907.717 9
  16429385.983    -1415166.659 6  -1013997.246 7
  17625215.084    -3350494.227 6  -2518120.444 6
  16518439.404    -3021388.896 7  -2272133.229 7
  17472276.373     1318925.531 6    995716.984 5
 95  2  7 21 45 59.9820000  0  8 28 18 16 19 31  2 27 29
  18579676.514      343542.238 5    260485.810 5
  15438064.014      111930.788 7     89967.339 8
  18938062.154    -2410322.886 4  -1742091.703 3
  15387604.443    -1487538.638 7  -1118281.047 8
  16421858.311    -1454745.163 6  -1044837.613 7
  17603955.959    -3462213.122 6  -2605174.067 6
  16498914.842    -3123987.789 6  -2352080.382 7
  17481781.147     1368883.570 6   1034645.292 6
 95  2  7 21 46 29.9820000  0  8 28 18 16 19 31  2 27 29
  18583256.108      362369.072 5    275156.069 5
  15440243.928      123376.129 7     98885.789 8
  18924278.248    -2482747.769 4  -1798526.663 3
  15378762.170    -1534005.883 7  -1154489.274 9
  16414438.990    -1493729.689 6  -1075215.140 7
  17582754.967    -3573634.916 6  -2691996.170 6
  16479417.756    -3226448.097 7  -2431919.551 7
  17491348.842     1419146.796 6   1073811.410 5
 95  2  7 21 46 59.9820000  0  8 28 18 16 19 31  2 27 29
  18586925.545      381655.897 5    290184.765 4
  15442515.029      135309.116 7    108184.219 8
  18910595.529    -2554639.879 4  -1854546.459 3
  15369961.037    -1580254.136 7  -1190526.851 8
  16407137.147    -1532108.946 7  -1105121.026 7
  17561611.522    -3684747.585 6  -2778577.397 6
  16459943.186    -3328773.868 7  -2511653.885 7
  17500973.186     1469724.982 6   1113222.967 5
 95  2  7 21 47 29.9820000  0  8 28 18 16 19 31  2 27 29
  18590683.029      401392.800 5    305564.140 2
  15444877.256      147727.369 7    117860.783 8
  18897015.725    -2626014.535 4  -1910163.043 3
  15361203.826    -1626286.852 7  -1226396.482 8
  16399946.811    -1569874.702 6  -1134548.847 7
  17540520.787    -3795571.823 6  -2864933.881 6
  16440495.256    -3430988.269 7  -2591301.437 7
  17510655.811     1520593.896 6   1152861.052 5
 95  2  7 21 47 59.9820000  0  8 28 18 16 19 31  2 27 29
  18594524.623      421572.212 5    321288.356 3
  15447329.920      160614.069 7    127902.367 8
  18883531.725    -2696887.867 4  -1965389.003 2
  15352478.490    -1672122.734 7  -1262112.738 8
  16392879.701    -1607027.799 6  -1163499.270 7
  17519479.826    -3906148.914 6  -2951097.790 6
  16421060.967    -3533110.912 7  -2670877.497 7
  17520384.623     1571741.220 5   1192716.101 5
 95  2  7 21 48 29.9820000  0  8 28 18 16 19 31  2 27 29
  18598449.936      442203.271 5    337364.501 4
  15449872.428      173984.363 7    138320.783 8
  18870140.178    -2767251.211 4  -2020217.560 4
  15343797.701    -1717745.770 7  -1297663.143 8
  16385928.209    -1643553.142 6  -1191960.544 7
  17498480.100    -4016490.359 6  -3037078.074 6
  16401641.506    -3635158.643 7  -2750395.179 7
  17530172.576     1623178.070 5   1232796.738 5
 95  2  7 21 48 59.9820000  0  8 28 18 16 19 31  2 27 29
  18602455.733      463268.276 5    353778.781 4
  15452507.217      187823.802 7    149104.768 8
  18856844.686    -2837110.685 3  -2074653.490 4
  15335154.318    -1763162.809 7  -1333053.028 8
  16379097.725    -1679456.125 6  -1219936.858 7
  17477522.514    -4126628.185 6  -3122899.686 6
  16382235.350    -3737142.902 7  -2829863.403 7
  17540010.639     1674865.390 5   1273072.551 5
 95  2  7 21 49 29.9820000  0  8 28 18 16 19 31  2 27 29
  18606548.264      484766.403 5    370530.564 2
  15455228.326      202120.795 7    160245.280 8
  18843645.443    -2906469.937 4  -2128699.638 1
  15326552.100    -1808383.204 7  -1368289.683 8
  16372377.037    -1714749.213 6  -1247437.928 7
  17456602.686    -4236569.589 6  -3208568.241 6
  16362840.717    -3839054.398 7  -2909274.924 7
  17549890.420     1726792.996 5   1313535.582 5
 95  2  7 21 49 59.9820000  0  8 28 18 16 19 31  2 27 29
  18610724.850      506708.063 5    387627.937 3
  15458036.990      216879.121 7    171745.278 8
  18830544.983    -2975303.723 4  -2182336.330 2
  15317983.467    -1853401.135 7  -1403368.576 8
  16365779.584    -1749434.983 6  -1274465.766 7
  17435723.686    -4346285.671 6  -3294061.227 6
  16343466.459    -3940869.220 7  -2988611.118 7
  17559822.350     1778978.645 5   1354199.702 5
 95  2  7 21 50 29.9820000  0  8 28 18 16 19 31  2 27 29
  18614981.334      529096.644 5    405073.570 4
  15460932.615      232097.480 7    183603.743 8
  18817546.029    -3043608.376 3  -2235560.695 4
  15309458.350    -1898201.316 7  -1438277.796 8
  16359294.717    -1783509.638 6  -1301017.399 7
  17414892.576    -4455751.375 6  -3379359.104 6
  16324115.889    -4042561.440 7  -3067851.767 7
  17569802.623     1831424.125 5   1395066.274 5
 95  2  7 21 50 59.9820000  0  8 28 18 16 19 31  2 27 29
  18619331.108      551930.739 5    422866.367 4
  15463916.576      247783.347 7    195826.505 8
  18804648.022    -3111402.912 4  -2288387.593 3
  15300976.514    -1942784.171 7  -1473017.677 8
  16352928.873    -1816958.292 6  -1327081.250 7
  17394113.600    -4564954.831 6  -3464452.641 6
  16304790.725    -4144113.935 7  -3146983.547 7
  17579833.186     1884132.224 5   1436137.475 5
 95  2  7 21 51 29.9820000  0  8 28 18 16 19 31  2 27 29
  18623755.967      575199.436 5    440997.814 5
  15466989.889      263933.418 7    208410.980 8
  18791842.725    -3178692.031 4  -2340820.618 4
  15292527.865    -1987166.311 7  -1507601.142 9
  16346680.873    -1849800.024 6  -1352672.180 7
  17373384.154    -4673885.021 6  -3549333.238 6
  16285489.475    -4245540.199 7  -3226016.960 7
  17589915.068     1937109.253 5   1477418.256 6
 95  2  7 21 51 59.9820000  0  8 28 18 16 19 31  2 27 29
  18628264.639      598892.183 5    459459.685 5
  15470152.428      280550.719 7    221359.533 8
  18779140.037    -3245477.887 4  -2392861.520 3
  15284120.928    -2031356.800 7  -1542035.280 8
  16340542.912    -1882042.696 6  -1377796.310 7
  17352706.959    -4782544.310 6  -3634002.758 6
  16266213.272    -4346843.832 7  -3304954.826 7
  17600044.248     1990352.664 5   1518906.592 6
 95  2  7 21 52 29.9820000  0  8 28 18 16 19 31  2 27 29
  18632853.022      623004.027 5    478248.117 5
  15473405.404      297642.844 7    234678.072 8
  18766519.201    -3311770.978 4  -2444518.446 2
  15275747.475    -2075358.013 7  -1576321.929 9
  16334523.193    -1913680.514 6  -1402449.136 7
  17332076.217    -4890945.143 6  -3718470.878 6
  16246956.131    -4448036.282 7  -3383806.052 7
  17610225.561     2043853.269 5   1560595.346 5
 95  2  7 21 52 59.9820000  0  8 28 18 16 19 31  2 27 29
  18637519.584      647535.362 5    497363.436 5
  15476749.779      315217.924 7    248372.934 8
  18754003.311    -3377542.734 3  -2495769.136 4
  15267409.225    -2119170.153 7  -1610461.251 8
  16328618.584    -1944717.180 6  -1426633.541 7
  17311500.772    -4999084.849 6  -3802735.530 6
  16227718.451    -4549128.650 7  -3462579.285 7
  17620455.397     2097605.341 5   1602480.037 5
 95  2  7 21 53 29.9820000  0  8 28 18 16 19 31  2 27 29
  18642272.623      672491.286 5    516809.613 5
  15480181.639      333268.175 7    262438.063 8
  18741585.569    -3442772.959 4  -2546597.833 4
  15259109.725    -2162793.871 7  -1644453.745 8
  16322823.311    -1975160.326 6  -1450355.448 7
  17290973.186    -5106945.564 6  -3886782.773 6
  16208503.662    -4650109.331 7  -3541265.496 8
  17630729.608     2151600.920 5   1644554.477 5
 95  2  7 21 53 59.9820000  0  8 28 18 16 19 31  2 27 29
  18647100.248      697872.408 5    536587.122 5
  15483709.897      351790.706 7    276871.197 8
  18729273.537    -3507485.219 3  -2597022.956 4
  15250845.803    -2206222.066 7  -1678293.886 8
  16317144.959    -2004999.487 6  -1473606.729 7
  17270502.467    -5214529.383 6  -3970614.248 6
  16189308.858    -4750976.460 7  -3619863.222 8
  17641049.053     2205833.256 5   1686813.403 5
 95  2  7 21 54 29.9820000  0  8 28 18 16 19 31  2 27 29
  18652009.834      723673.698 5    556692.015 5
  15487322.147      370779.883 7    291667.953 8
  18717062.686    -3571678.091 4  -2647043.345 3
  15242620.897    -2249444.457 7  -1711973.657 8
  16311581.693    -2034230.106 6  -1496383.822 7
  17250082.514    -5321837.072 6  -4054230.565 6
  16170132.779    -4851738.446 7  -3698379.014 8
  17651413.045     2260296.073 5   1729251.920 5
 95  2  7 21 54 59.9820000  0  8 28 18 16 19 31  2 27 29
  18657000.537      749891.286 5    577121.284 5
  15491021.740      390217.994 7    306814.527 8
  18704942.131    -3635354.809 4  -2696661.540 3
  15234435.154    -2292453.367 7  -1745487.079 8
  16306137.287    -2062853.669 7  -1518687.873 7
  17229715.037    -5428865.191 6  -4137629.046 6
  16150981.264    -4952388.175 7  -3776807.339 8
  17661821.990     2314999.047 5   1771877.582 5
 95  2  7 21 55 29.9820000  0  8 28 18 16 19 31  2 27 29
  18662066.092      776522.562 5    597872.911 5
  15494806.795      410107.676 7    322312.969 8
  18692921.209    -3698543.112 4  -2745899.144 4
  15226293.436    -2335247.384 7  -1778833.059 8
  16300804.584    -2090871.815 6  -1540520.187 7
  17209399.623    -5535617.246 6  -4220812.404 6
  16131847.693    -5052925.102 7  -3855147.768 8
  17672283.592     2369952.363 5   1814698.313 5
 95  2  7 21 55 59.9810000  0  8 28 18 16 19 31  2 27 29
  18667215.009      803568.883 5    618947.948 5
  15498678.110      430460.287 7    338172.132 8
  18680988.368    -3761232.759 4  -2794748.184 3
  15218193.196    -2377806.128 7  -1811995.701 8
  16295591.806    -2118277.108 6  -1561874.949 7
  17189138.360    -5642096.354 6  -4303783.086 6
  16112738.939    -5153342.800 7  -3933395.286 8
  17682784.157     2425158.044 5   1857715.684 5
 95  2  7 21 56 29.9810000  0  8 28 18 16 19 31  2 27 29
  18672440.165      831024.003 5    640341.541 5
  15502641.376      451275.071 7    354391.434 8
  18669158.556    -3823410.532 4  -2843198.376 3
  15210140.126    -2420129.431 7  -1844974.886 8
  16290490.525    -2145076.383 6  -1582757.487 7
  17168924.001    -5748326.733 6  -4386559.961 6
  16093651.923    -5253652.445 7  -4011558.609 8
  17693337.259     2480600.663 5   1900917.689 5
 95  2  7 21 56 59.9810000  0  8 28 18 16 19 31  2 27 29
  18677738.220      858872.362 5    662041.560 4
  15506686.485      472529.361 7    370953.215 8
  18657415.712    -3885096.697 4  -2891265.481 2
  15202126.931    -2462238.278 7  -1877786.956 9
  16285501.251    -2171287.307 6  -1603181.564 7
  17148755.204    -5854315.467 6  -4469148.535 6
  16074582.243    -5353861.403 7  -4089643.468 8
  17703927.282     2536262.565 5   1944290.551 5
 95  2  7 21 57 29.9810000  0  8 28 18 16 19 31  2 27 29
  18683113.587      887118.682 5    684051.649 5
  15510817.173      494240.987 7    387871.353 8
  18645776.673    -3946279.758 4  -2938940.589 4
  15194155.384    -2504130.477 7  -1910430.221 9
  16280628.860    -2196900.039 6  -1623139.517 7
  17128628.767    -5960065.380 6  -4551551.011 6
  16055535.173    -5453959.209 7  -4167641.725 8
  17714561.360     2592142.898 5   1987833.642 5
 95  2  7 21 57 59.9810000  0  8 28 18 16 19 31  2 27 29
  18688568.728      915776.346 5    706382.284 5
  15515035.900      516416.798 7    405151.191 8
  18634233.517    -4006932.005 4  -2986202.052 3
  15186223.431    -2545798.633 7  -1942898.902 9
  16275874.189    -2221894.631 6  -1642615.794 7
  17108555.118    -6065566.072 6  -4633759.288 6
  16036513.626    -5553915.237 7  -4245529.502 8
  17725241.501     2648261.024 5   2031562.017 5
 95  2  7 21 58 29.9810000  0  8 28 18 16 19 31  2 27 29
  18694096.634      944838.194 5    729027.869 5
  15519341.931      539037.585 7    422777.772 8
  18622791.681    -4067059.114 4  -3033054.317 4
  15178333.376    -2587266.749 7  -1975211.706 9
  16271233.298    -2246284.095 7  -1661620.552 7
  17088523.251    -6170822.839 6  -4715777.502 6
  16017519.290    -5653733.069 7  -4323309.595 8
  17735965.884     2704622.480 5   2075480.003 4
 95  2  7 21 58 59.9810000  0  8 28 18 16 19 31  2 27 29
  18699703.282      974298.200 5    751983.700 5
  15523724.993      562079.764 7    440732.705 8
  18611448.329    -4126666.035 4  -3079501.252 5
  15170478.743    -2628551.969 7  -2007381.993 9
  16266701.728    -2270081.403 6  -1680163.883 7
  17068544.025    -6275832.055 6  -4797602.819 6
  15998550.751    -5753411.729 7  -4400981.245 8
  17746738.876     2761235.338 5   2119593.888 2
 95  2  7 21 59 29.9810000  0  8 28 18 16 19 31  2 27 29
  18705385.009     1004163.521 4    775255.365 4
  15528192.845      585558.230 7    459027.606 8
  18600213.204    -4185734.691 4  -3125528.756 4
  15162658.634    -2669637.410 7  -2039396.606 9
  16262290.939    -2293276.356 6  -1698237.836 7
  17048606.064    -6380585.469 6  -4879228.824 6
  15979610.837    -5852946.162 7  -4478540.510 8
  17757561.446     2818099.437 5   2163903.533 4
 95  2  7 21 59 59.9810000  0  8 28 18 16 19 31  2 27 29
  18711141.392     1034420.579 4    798832.262 3
  15532741.868      609453.563 7    477647.341 8
  18589071.118    -4244269.071 4  -3171139.940 3
  15154877.876    -2710526.082 7  -2071257.895 9
  16257986.798    -2315887.883 6  -1715857.173 7
  17028721.907    -6485081.291 6  -4960654.085 6
  15960691.892    -5952361.370 7  -4556006.876 8
  17768423.134     2875186.647 5   2208387.047 5
 95  2  7 22  0 29.9810000  0  8 28 18 16 19 31  2 27 29
  18716977.251     1065078.670 5    822721.667 4
  15537369.900      633780.101 7    496603.082 8
  18578036.212    -4302266.135 4  -3216332.419 3
  15147138.118    -2751192.539 7  -2102946.028 9
  16253799.157    -2337895.477 6  -1733005.917 7
  17008890.095    -6589307.118 6  -5041868.965 6
  15941794.759    -6051662.637 7  -4633384.453 8
  17779330.400     2932486.115 5   2253035.937 5
 95  2  7 22  0 59.9810000  0  8 28 18 16 19 31  2 27 29
  18722888.595     1096132.882 5    846919.740 4
  15542084.384      658550.926 7    515905.025 8
  18567096.446    -4359742.383 4  -3261119.100 2
  15139448.118    -2791618.978 7  -2134447.130 8
  16249726.423    -2359281.486 7  -1749670.313 7
  16989110.400    -6693257.945 6  -5122869.551 6
  15922919.735    -6150851.724 7  -4710674.619 8
  17790267.439     2989983.972 5   2297839.414 5
 95  2  7 22  1 29.9810000  0  8 28 18 16 19 31  2 27 29
  18728869.384     1127565.632 5    871412.767 4
  15546882.837      683768.909 7    535555.399 8
  18556257.267    -4416719.215 4  -3305516.594 4
  15131798.204    -2831814.238 7  -2165768.094 9
  16245775.493    -2380061.280 7  -1765862.330 7
  16969376.860    -6796947.017 6  -5203666.173 6
  15904064.337    -6249935.842 7  -4787882.990 8
  17801242.314     3047660.578 5   2342782.190 5
 95  2  7 22  1 59.9810000  0  8 28 18 16 19 31  2 27 29
  18734926.384     1159387.389 5    896208.900 3
  15551767.720      709443.623 7    555561.671 8
  18545506.470    -4473188.244 4  -3349518.417 3
  15124192.470    -2871778.759 7  -2196909.266 9
  16241938.235    -2400225.462 7  -1781574.651 7
  16949695.900    -6900371.390 6  -5284256.551 6
  15885234.970    -6348892.249 7  -4864991.847 8
  17812259.337     3105535.044 5   2387879.122 5
 95  2  7 22  2 29.9810000  0  8 28 18 16 19 31  2 27 29
  18741048.673     1191589.967 4    921301.764 4
  15556737.595      735563.220 7    575914.592 8
  18534857.970    -4529166.583 4  -3393137.861 4
  15116627.907    -2911529.512 7  -2227883.861 9
  16238219.235    -2419772.534 6  -1796806.106 7
  16930064.665    -7003535.193 6  -5364643.875 6
  15866428.704    -6447712.274 7  -4941994.433 8
  17823310.564     3163612.236 5   2433134.044 5
 95  2  7 22  2 59.9810000  0  8 28 18 16 19 31  2 27 29
  18747252.743     1224171.404 5    946689.877 3
  15561793.454      762120.057 7    596608.228 8
  18524294.103    -4584644.275 4  -3436367.205 4
  15109105.837    -2951068.035 7  -2258693.087 8
  16234610.275    -2438718.035 7  -1811568.807 7
  16910480.907    -7106439.271 6  -5444828.831 6
  15847653.540    -6546387.941 7  -5018884.525 8
  17834401.540     3221901.794 5   2478554.406 5
 95  2  7 22  3 29.9810000  0  8 28 18 16 19 31  2 27 29
  18753521.415     1257129.739 5    972371.669 3
  15566926.868      789105.316 7    617635.700 8
  18513839.282    -4639604.463 4  -3479193.293 3
  15101618.454    -2990406.875 7  -2289346.712 8
  16231121.103    -2457068.823 6  -1825868.105 7
  16890948.642    -7209088.808 6  -5524815.439 6
  15828899.821    -6644930.417 7  -5095670.836 8
  17845535.126     3280409.058 5   2524144.433 5
 95  2  7 22  3 59.9810000  0  8 28 18 16 19 31  2 27 29
  18759868.017     1290465.490 5    998347.539 3
  15572142.556      816511.712 7    638991.329 8
  18503478.689    -4694054.079 4  -3521621.549 4
  15094172.689    -3029534.091 7  -2319835.434 9
  16227746.267    -2474808.412 7  -1839691.144 7
  16871465.243    -7311475.323 6  -5604597.087 6
  15810172.454    -6743344.458 7  -5172357.057 8
  17856708.946     3339136.453 5   2569905.962 5
 95  2  7 22  4 29.9810000  0  8 28 18 16 19 31  2 27 29
  18766283.603     1324173.425 4   1024613.422 4
  15577436.767      844337.530 7    660673.780 8
  18493210.665    -4748007.962 4  -3563663.502 3
  15086768.017    -3068439.985 7  -2350151.698 8
  16224487.040    -2491931.947 7  -1853034.142 7
  16852032.423    -7413595.379 6  -5684171.106 6
  15791469.040    -6841633.243 7  -5248945.681 8
  17867926.501     3398084.208 5   2615839.212 5
 95  2  7 22  4 59.9810000  0  8 28 18 16 19 31  2 27 29
  18772771.384     1358257.966 4   1051172.758 5
  15582814.665      872593.547 7    682691.446 8
  18483042.267    -4801457.677 4  -3605312.608 2
  15079412.595    -3107108.935 7  -2380283.336 9
  16221342.532    -2508445.456 7  -1865901.791 7
  16832648.993    -7515453.818 6  -5763541.266 6
  15772789.642    -6939790.861 7  -5325432.097 8
  17879191.095     3457262.285 5   2661951.951 5
 95  2  7 22  5 29.9810000  0  8 28 18 16 19 31  2 27 29
  18779323.111     1392710.413 4   1078018.774 4
  15588272.478      901275.733 7    705041.201 8
  18472964.329    -4854413.381 4  -3646576.760 4
  15072096.087    -3145548.343 7  -2410236.106 9
  16218317.064    -2524355.425 6  -1878299.176 7
  16813316.400    -7617054.689 6  -5842710.734 6
  15754136.884    -7037816.142 7  -5401815.388 8
  17890489.095     3516653.214 5   2708230.530 5
 95  2  7 22  5 59.9810000  0  8 28 18 16 19 31  2 27 29
  18785949.689     1427521.563 4   1105144.317 4
  15593809.212      930369.111 7    727711.358 8
  18462977.103    -4906888.216 4  -3687466.203 4
  15064824.493    -3183759.488 7  -2440011.010 8
  16215402.251    -2539678.652 6  -1890239.317 7
  16794028.759    -7718410.022 6  -5921688.869 6
  15735510.618    -7135694.121 7  -5478083.910 8
  17901828.134     3576229.313 5   2754653.429 5
 95  2  7 22  6 29.9810000  0  8 28 18 16 19 31  2 27 29
  18792644.900     1462700.430 4   1132556.396 5
  15599426.087      959888.419 7    750713.403 8
  18453089.657    -4958848.470 4  -3727954.680 3
  15057596.525    -3221738.020 7  -2469604.661 8
  16212596.712    -2554421.105 6  -1901726.925 7
  16774788.017    -7819511.566 6  -6000469.249 7
  15716917.110    -7233411.003 7  -5554226.895 8
  17913201.321     3635992.603 5   2801222.174 5
 95  2  7 22  6 59.9810000  0  8 28 18 16 19 31  2 27 29
  18799405.196     1498234.992 3   1160245.636 4
  15605122.876      989819.980 7    774036.692 8
  18443301.798    -5010281.143 4  -3768032.089 4
  15050411.525    -3259505.826 7  -2499034.110 8
  16209894.845    -2568603.061 6  -1912777.793 7
  16755596.071    -7920357.214 6  -6079050.231 6
  15698348.587    -7330985.061 7  -5630258.598 8
  17924602.946     3695916.971 5   2847916.441 3
 95  2  7 22  7 29.9810000  0  8 28 18 16 19 31  2 27 29
  18806234.478     1534133.320 3   1188218.316 4
  15610899.110     1020175.561 7    797690.381 8
  18433620.040    -5061170.722 4  -3807686.281 3
  15043263.181    -3297065.324 7  -2528301.238 8
  16207310.306    -2582197.649 6  -1923370.966 7
  16736460.095    -8020921.787 6  -6157412.187 7
  15679809.993    -7428412.734 7  -5706176.225 8
  17936037.845     3756004.078 5   2894737.515 4
 95  2  7 22  7 59.9810000  0  8 28 18 16 19 31  2 27 29
  18813136.634     1570386.198 3   1216467.263 4
  15616754.751     1050952.611 7    821672.498 8
  18424032.970    -5111527.365 4  -3846925.192 3
  15036154.462    -3334423.916 7  -2557411.810 8
  16204833.564    -2595198.194 6  -1933501.250 7
  16717377.423    -8121201.870 6  -6235552.470 7
  15661293.564    -7525705.737 7  -5781988.927 8
  17947506.493     3816269.307 5   2941697.367 4
 95  2  7 22  8 29.9810000  0  8 28 18 16 19 31  2 27 29
  18820100.798     1606995.519 3   1244993.964 4
  15622695.181     1082163.301 7    845992.503 8
  18414554.579    -5161348.774 4  -3885747.047 3
  15029084.204    -3371577.478 7  -2586362.631 8
  16202476.704    -2607592.146 6  -1943158.858 7
  16698350.181    -8221186.309 6  -6313462.380 7
  15642803.814    -7622870.869 7  -5857701.980 8
  17959015.571     3876739.488 5   2988816.944 5
 95  2  7 22  8 59.9810000  0  8 28 18 16 19 31  2 27 29
  18827137.407     1643970.623 3   1273805.692 3
  15628715.571     1113809.625 7    870651.968 8
  18405176.095    -5210644.588 4  -3924159.341 3
  15022054.806    -3408512.082 7  -2615142.828 9
  16200237.235    -2619364.464 6  -1952332.085 7
  16679382.415    -8320873.406 6  -6391140.587 7
  15624338.900    -7719903.123 7  -5933311.505 8
  17970560.868     3937428.606 5   3036107.090 4
 95  2  7 22  9 29.9810000  0  8 28 18 16 19 31  2 27 29
  18834239.978     1681292.522 3   1302887.667 2
  15634818.353     1145877.687 7    895640.063 8
  18395888.048    -5259453.887 4  -3962192.530 3
  15015070.501    -3445217.666 7  -2643744.561 9
  16198110.368    -2630537.327 6  -1961038.200 7
  16660462.532    -8420298.538 6  -6468614.673 7
  15605899.165    -7816804.455 7  -6008819.007 8
  17982150.157     3998325.309 5   3083559.000 5
 95  2  7 22  9 59.9810000  0  8 28 18 16 19 31  2 27 29
  18841405.900     1718957.014 3   1332236.615 2
  15640999.517     1178360.894 7    920951.644 8
  18386686.595    -5307786.796 4  -3999854.507 2
  15008133.462    -3481680.946 7  -2672157.498 9
  16196091.720    -2641137.380 6  -1969297.977 7
  16641588.173    -8519477.483 6  -6545896.913 7
  15587485.282    -7913570.094 7  -6084220.782 8
  17993776.189     4059420.621 5   3131165.661 4
 95  2  7 22 10 29.9810000  0  8 28 18 16 19 31  2 27 29
  18848643.634     1756970.091 3   1361857.149 2
  15647259.095     1211253.630 7    946582.344 8
  18377588.056    -5355628.066 4  -4037133.416 2
  15001242.681    -3517892.903 7  -2700374.593 9
  16194180.196    -2651180.276 6  -1977123.599 7
  16622763.298    -8618413.778 6  -6622990.088 7
  15569097.931    -8010194.685 7  -6159512.648 9
  18005434.400     4120689.316 5   3178907.435 4
 95  2  7 22 10 59.9810000  0  8 28 18 16 19 31  2 27 29
  18855937.095     1795315.697 4   1391736.805 3
  15653590.829     1244528.278 7    972510.634 8
  18368569.048    -5402991.949 4  -4074040.308 2
  14994398.048    -3553856.994 7  -2728398.547 9
  16192372.493    -2660679.978 6  -1984525.949 7
  16603978.665    -8717122.855 6  -6699906.204 7
  15550734.657    -8106688.756 7  -6234702.803 9
  18017124.829     4182106.647 5   3226765.034 4
 95  2  7 22 11 29.9810000  0  8 28 18 16 19 31  2 27 29
  18863296.798     1833999.288 4   1421879.843 3
  15659995.853     1278186.749 7    998737.997 8
  18359651.665    -5449867.336 4  -4110566.591 2
  14987601.993    -3589569.278 7  -2756226.292 9
  16190672.009    -2669627.351 6  -1991497.915 7
  16585241.439    -8815582.549 6  -6776627.999 7
  15532403.900    -8203034.150 7  -6309777.109 9
  18028841.392     4243684.515 5   3274747.726 3
 95  2  7 22 11 59.9810000  0  8 28 18 16 19 31  2 27 29
  18870723.368     1873019.304 5   1452285.006 2
  15666472.314     1312219.032 7   1025256.652 8
  18350827.110    -5496232.564 4  -4146695.319 3
  14980848.681    -3625054.982 7  -2783877.478 9
  16189075.673    -2678002.532 6  -1998024.016 7
  16566557.603    -8913783.398 6  -6853148.099 7
  15514095.087    -8299236.599 7  -6384740.033 9
  18040590.837     4305424.694 5   3322856.903 3
 95  2  7 22 12 29.9810000  0  8 28 18 16 19 31  2 27 29
  18878216.400     1912377.410 5   1482953.637 2
  15673020.642     1346628.726 7   1052069.387 8
  18342101.298    -5542083.479 4  -4182423.287 3
  14974140.142    -3660314.189 7  -2811352.178 9
  16187596.329    -2685777.563 6  -2004082.465 7
  16547920.439    -9011714.167 6  -6929457.737 7
  15495815.821    -8395291.496 7  -6459587.980 9
  18052373.368     4367341.134 5   3371103.432 4
 95  2  7 22 12 59.9810000  0  8 28 18 16 19 31  2 27 29
  18885767.837     1952075.329 5   1513887.058 1
  15679643.415     1381434.251 7   1079190.558 8
  18333476.454    -5587428.028 4  -4217756.687 3
  14967474.071    -3695340.688 7  -2838645.537 9
  16186231.806    -2692944.325 6  -2009666.944 7
  16529337.985    -9109362.742 6  -7005547.488 7
  15477568.548    -8491182.702 7  -6534308.378 9
  18064191.736     4429456.095 5   3419504.626 1
 95  2  7 22 13 29.9810000  0  8 28 18 16 19 31  2 27 29
  18893385.134     1992103.819 5   1545078.026 1
  15686344.165     1416640.161 7   1106623.740 7
  18324945.665    -5632260.734 4  -4252691.279 2
  14960850.110    -3730151.419 7  -2865770.773 9
  16184985.251    -2699509.992 6  -2014783.046 7
  16510806.993    -9206739.666 6  -7081425.563 7
  15459354.337    -8586908.851 7  -6608900.159 9
  18076047.892     4491750.894 4   3468045.987 2
 95  2  7 22 13 59.9800000  0  8 28 18 16 19 31  2 27 29
  18901063.387     2032460.670 5   1576524.937 1
  15693121.035     1452257.064 7   1134377.165 7
  18316514.231    -5676572.078 4  -4287219.565 3
  14954269.824    -3764737.918 7  -2892721.282 9
  16183848.371    -2705473.022 6  -2019429.545 7
  16492328.082    -9303852.544 6  -7157097.892 7
  15441169.121    -8682469.883 7  -6683363.274 9
  18087933.301     4554210.435 4   3516715.681 2
 95  2  7 22 14 29.9800000  0  8 28 18 16 19 31  2 27 29
  18908805.004     2073141.508 4   1608224.237 4
  15699977.895     1488285.406 7   1162451.188 7
  18308173.988    -5720386.095 4  -4321360.342 3
  14947732.442    -3799082.754 7  -2919483.484 9
  16182823.660    -2710862.779 6  -2023629.344 7
  16473895.543    -9400709.070 6  -7232570.470 7
  15423013.613    -8777872.537 7  -6757702.978 9
  18099850.098     4616823.040 4   3565504.653 2
 95  2  7 22 14 59.9800000  0  8 28 18 16 19 31  2 27 29
  18916607.629     2114144.074 4   1640174.251 3
  15706909.895     1524713.811 6   1190836.954 7
  18299933.574    -5763692.820 4  -4355105.828 3
  14941242.434    -3833189.561 7  -2946060.198 9
  16181904.184    -2715687.262 6  -2027388.661 7
  16455514.410    -9497309.823 6  -7307843.736 7
  15404890.457    -8873110.970 7  -6831914.724 9
  18111789.176     4679574.169 4   3614401.564 1
 95  2  7 22 15 29.9800000  0  7 18 16 19 31  2 27 29
  15713914.535     1561531.454 7   1219526.020 7
  18291795.012    -5806480.935 5  -4388447.219 2
  14934796.809    -3867062.741 7  -2972454.883 9
  16181097.465    -2719933.863 6  -2030697.696 7
  16437177.996    -9593665.391 6  -7382925.943 7
  15386795.606    -8968194.304 7  -6906005.604 9
  18123755.684     4742455.997 5   3663400.305 2
 95  2  7 22 15 59.9800000  0  7 18 16 19 31  2 27 29
  15720997.285     1598744.964 7   1248523.550 7
  18283742.113    -5848768.135 4  -4421398.257 3
  14928396.004    -3900694.286 7  -2998661.267 9
  16180399.262    -2723611.863 6  -2033563.657 7
  16418887.371    -9689773.346 6  -7457815.211 7
  15368730.965    -9063130.933 7  -6979982.177 9
  18135747.738     4805474.867 5   3712505.829 3
 95  2  7 22 16 29.9800000  0  7 18 16 19 31  2 27 29
  15728150.621     1636341.338 7   1277819.418 7
  18275791.918    -5890566.811 4  -4453968.670 2
  14922041.410    -3934090.228 7  -3024684.066 9
  16179804.652    -2726727.102 6  -2035991.104 7
  16400645.512    -9785631.881 6  -7532510.127 7
  15350695.824    -9157916.450 7  -7053840.994 9
  18147765.106     4868636.473 5   3761722.593 4
 95  2  7 22 16 59.9800000  0  7 18 16 19 31  2 27 29
  15735381.590     1674330.038 7   1307420.991 7
  18267927.809    -5931870.295 4  -4486153.189 3
  14915728.434    -3967268.423 7  -3050537.190 9
  16179321.481    -2729256.382 6  -2037961.951 7
  16382452.910    -9881241.142 6  -7607010.811 7
  15332685.238    -9252548.903 7  -7127580.548 9
  18159816.426     4931949.929 5   3811057.692 4
 95  2  7 22 17 29.9800000  0  7 18 16 19 31  2 27 29
  15742685.731     1712721.209 7   1337336.177 7
  18260161.160    -5972678.348 4  -4517951.675 4
  14909459.520    -4000214.771 7  -3076209.661 9
  16178951.434    -2731200.582 6  -2039476.893 7
  16364307.301    -9976589.901 6  -7681308.496 7
  15314707.856    -9347030.263 7  -7201202.361 9
  18171894.684     4995425.691 5   3860519.243 3
 95  2  7 22 17 59.9800000  0  7 18 16 19 31  2 27 29
  15750063.934     1751490.618 7   1367546.098 7
  18252487.145    -6013014.557 4  -4549382.481 3
  14903230.184    -4032939.918 7  -3101709.760 9
  16178689.934    -2732593.879 6  -2040562.559 7
  16346216.199   -10071672.722 6  -7755398.956 7
  15296754.527    -9441370.670 7  -7274714.350 9
  18184004.137     5059054.623 5   3910100.176 3
 95  2  7 22 18 29.9800000  0  7 18 16 19 31  2 27 29
  15757511.238     1790628.500 6   1398043.140 7
  18244908.426    -6052856.771 4  -4580428.354 3
  14897045.668    -4065446.012 7  -3127039.173 9
  16178532.770    -2733414.257 6  -2041201.802 7
  16328173.902   -10166473.672 6  -7829269.767 7
  15278835.199    -9535544.337 7  -7348096.405 9
  18196143.012     5122848.801 5   3959809.842 2
 95  2  7 22 18 59.9800000  0  7 18 16 19 31  2 27 29
  15765028.746     1830129.939 6   1428823.468 7
  18237420.356    -6092204.704 4  -4611089.066 2
  14890902.246    -4097731.219 7  -3152196.464 9
  16178482.895    -2733666.465 6
  16310191.074   -10260992.895 6  -7902921.052 7
  15260944.504    -9629553.875 7  -7421350.586 9
  18208313.121     5186796.394 4   4009639.039 1
 95  2  7 22 19 29.9800000  0  7 18 16 19 31  2 27 29
  15772609.817     1869979.449 6   1459875.015 7
  18230026.035    -6131063.337 4  -4641368.511 4
  14884804.348    -4129776.655 7  -3177166.923 9
  16178542.067    -2733365.085 7
  16292257.637   -10355229.104 6  -7976351.815 7
  15243086.270    -9723395.555 7  -7494473.945 9
  18220503.559     5250884.137 3   4059577.451 3
 95  2  7 22 19 59.9800000  0  7 18 16 19 31  2 27 29
  15780260.402     1910175.976 6   1491196.977 7
  18222720.090    -6169438.518 4  -4671271.230 4
  14878751.223    -4161584.913 7  -3201952.564 9
  16178704.270    -2732505.973 6  -2040493.982 7
  16274374.160   -10449192.441 6  -8049569.954 7
  15225265.293    -9817052.819 7  -7567453.613 9
  18232726.270     5315102.348 3   4109617.538 2
 95  2  7 22 20 29.9800000  0  7 18 16 19 31  2 27 29
  15787973.824     1950725.458 6   1522793.966 7
  18215513.043    -6207322.626 3  -4700791.300 2
  14872744.512    -4193145.500 7  -3226545.213 9
  16178981.449    -2731066.809 6  -2039372.530 7
  16256542.918   -10542899.821 6  -8122588.641 7
  15207479.231    -9910524.739 7  -7640288.862 9
  18244967.902     5379429.995 3   4159742.915 1
 95  2  7 22 20 59.9800000  0  7 18 16 19 31  2 27 29
  15795756.668     1991609.175 6   1554651.390 7
  18208394.676    -6244734.066 4  -4729943.082 4
  14866785.527    -4224458.615 7  -3250945.030 9
  16179354.551    -2729084.370 6  -2037827.755 7
  16238756.535   -10636372.096 6
  15189721.043   -10003841.538 7
  18257226.754     5443842.294 3   4209934.220 1
 95  2  7 22 21 29.9800000  0  7 18 16 19 31  2 27 29
  15803603.762     2032844.709 6   1586782.947 7
  18201368.067    -6281656.575 4  -4758713.848 3
  14860877.715    -4255510.745 7  -3275141.483 9
  16179836.910    -2726548.309 6  -2035851.584 7
  16221014.856   -10729602.667 6
  15171995.027   -10096989.370 7
  18269498.004     5508355.610 3   4260204.274 2
 95  2  7 22 21 59.9800000  0  7 18 16 19 31  2 27 29
  15811518.473     2074435.598 6   1619191.433 7
  18194437.309    -6318085.505 3  -4787100.013 2
  14855017.277    -4286308.807 7  -3299139.961 9
  16180425.887    -2723458.123 6  -2033443.643 7
  16203317.949   -10822596.455 6
  15154301.160   -10189976.001 7
  18281796.121     5572973.098 3   4310555.486 1
 95  2  7 22 22 29.9800000  0  7 18 16 19 31  2 27 29
  15819502.465     2116397.387 6   1651888.918 7
  18187599.668    -6354001.487 4  -4815086.501 3
  14849209.574    -4316825.475 7  -3322919.176 9
  16181122.496    -2719799.532 6  -2030592.779 7
  16185671.067   -10915327.364 6
  15136639.004   -10282789.495 7
  18294118.363     5637712.220 4   4361001.457 1
 95  2  7 22 22 59.9800000  0  7 18 16 19 31  2 27 29
  15827556.504     2158721.431 6   1684868.675 7
  18180861.809    -6389429.252 4  -4842692.551 2
  14843452.426    -4347079.846 7  -3346494.001 9
  16181921.387    -2715607.821 6  -2027326.517 7
  16168073.465   -11007806.147 6  -8484853.099 7
  15119007.317   -10375443.027 7  -8002562.767 9
  18306456.902     5702572.093 3   4411541.574 2
 95  2  7 22 23 29.9800000  0  7 18 16 19 31  2 27 29
  15835679.793     2201406.689 6   1718129.903 7
  18174211.582    -6424380.500 4  -4869927.270 3
  14837741.629    -4377088.543 7  -3369877.396 9
  16182818.535    -2710885.748 6  -2023646.985 7
  16150524.434   -11100037.427 6  -8556721.595 7
  15101405.574   -10467934.011 7  -8074633.636 9
  18318822.473     5767541.454 4   4462166.942 2
 95  2  7 22 23 59.9800000  0  7 18 16 19 31  2 27 29
  15843871.504     2244449.397 6   1751669.665 7
  18167651.262    -6458855.665 4  -4896791.044 2
  14832078.535    -4406852.617 7  -3393070.179 9
  16183818.262    -2705636.113 6  -2019556.356 7
  16133023.871   -11192012.802 6  -8628390.674 7
  15083837.387   -10560253.208 7  -8146570.646 9
  18331208.512     5832624.493 4   4512880.933 4
 95  2  7 22 24 29.9800000  0  7 18 16 19 31  2 27 29
  15852127.152     2287840.018 6   1785480.519 7
  18161183.067    -6492860.103 4  -4923287.987 2
  14826459.473    -4436380.185 7  -3416078.669 9
  16184916.582    -2699865.256 6  -2015059.588 7
  16115569.098   -11283729.332 6  -8699858.069 7
  15066306.051   -10652382.716 7  -8218359.849 9
  18343618.629     5897828.965 4   4563689.538 4
 95  2  7 22 24 59.9800000  0  7 18 16 19 31  2 27 29
  15860448.965     2331570.955 6   1819556.557 7
  18154797.871    -6526391.448 4  -4949416.306 2
  14820882.309    -4465685.848 7  -3438914.247 9
  16186113.207    -2693574.052 6  -2010157.362 7
  16098165.473   -11375180.510 6  -8771118.691 7
  15048812.723   -10744317.194 7  -8289997.080 9
  18356045.824     5963161.725 4   4614598.100 4
 95  2  7 22 25 29.9800000  0  7 18 16 19 31  2 27 29
  15868833.465     2375632.308 6   1853890.064 7
  18148506.457    -6559458.360 4  -4975182.745 2
  14815346.348    -4494776.605 7  -3461582.364 8
  16187411.793    -2686753.653 6  -2004842.771 7
  16080816.473   -11466359.056 6  -8842166.871 7
  15031354.762   -10836051.062 7  -8361477.993 9
  18368504.957     6028621.880 4   4665605.932 4
 95  2  7 22 25 59.9800000  0  7 18 16 19 31  2 27 29
  15877282.527     2420032.538 6   1888487.641 7
  18142300.535    -6592058.072 3  -5000585.102 3
  14809855.637    -4523631.216 7  -3484066.468 9
  16188814.152    -2679387.727 6  -1999103.101 6
  16063517.754   -11557256.699 6  -8912996.163 7
  15013937.309   -10927583.488 7  -8432801.939 9
  18380989.848     6094225.988 3   4716725.907 4
 95  2  7 22 26 29.9800000  0  7 18 16 19 31  2 27 29
  15885793.199     2464757.099 6   1923337.933 7
  18136186.106    -6624195.409 4  -5025627.167 2
  14804409.582    -4552247.775 7  -3506365.077 9
  16190321.668    -2671468.709 6  -1992932.444 6
  16046272.137   -11647876.297 6  -8983608.810 7
  14996553.551   -11018928.907 7  -8503980.167 9
  18393498.106     6159951.218 3   4767940.278 4
 95  2  7 22 26 59.9800000  0  7 18 16 19 31  2 27 29
  15894367.199     2509809.192 6   1958443.451 7
  18130157.012    -6655880.897 4  -5050317.160 2
  14799010.770    -4580618.148 7  -3528471.850 9
  16191932.606    -2663007.220 6  -1986339.074 6
  16029079.887   -11738228.598 6  -9054013.161 7
  14979201.543   -11110121.566 7  -8575039.363 9
  18406020.785     6225765.756 3   4819224.229 3
 95  2  7 22 27 29.9800000  0  7 18 16 19 31  2 27 29
  15903005.754     2555205.722 6   1993817.359 7
  18124213.043    -6687093.040 3  -5074638.311 3
  14793664.074    -4608713.112 7  -3550364.027 9
  16193647.699    -2653985.599 6  -1979309.242 6
  16011938.692   -11828314.774 6  -9124210.139 7
  14961876.371   -11201159.277 7  -8645977.825 9
  18418566.449     6291675.501 3   4870582.370 2
 95  2  7 22 27 59.9800000  0  7 18 16 19 31  2 27 29
  15911704.910     2600926.051 6   2029443.567 7
  18118367.199    -6717821.614 3  -5098582.664 2
  14788370.699    -4636534.259 7  -3572042.834 9
  16195469.559    -2644413.982 6  -1971850.829 6
  15994838.824   -11918153.924 6  -9194214.636 7
  14944582.481   -11292050.809 7  -8716802.376 9
  18431124.027     6357656.515 3   4921996.071 2
 95  2  7 22 28 29.9800000  0  7 18 16 19 31  2 27 29
  15920466.199     2646957.876 6   2065312.502 7
  18112614.442    -6748063.944 3  -5122148.096 3
  14783126.785    -4664090.890 7  -3593515.520 9
  16197392.895    -2634302.024 6  -1963971.379 6
  15977788.707   -12007753.937 6  -9264032.794 7
  14927314.723   -11382788.974 7  -8787507.416 9
  18443688.902     6423700.588 3   4973458.918 2
 95  2  7 22 28 59.9800000  0  7 18 16 19 31  2 27 29
  15929290.660     2693333.132 6   2101449.064 7
  18106950.723    -6777805.035 3  -5145322.972 3
  14777935.027    -4691375.749 7  -3614776.442 9
  16199419.168    -2623647.059 6  -1955668.794 6
  15960787.371   -12097114.223 6  -9333664.149 7
  14910082.457   -11473342.058 7  -8858068.242 9
  18456272.863     6489841.141 3   5024996.912 1
 95  2  7 22 29 29.9800000  0  7 18 16 19 31  2 27 29
  15938177.910     2740033.590 6   2137839.021 7
  18101390.637    -6807059.901 4  -5168118.991 2
  14772790.551    -4718405.782 7  -3635838.798 9
  16201548.942    -2612462.373 6  -1946953.456 6
  15943825.840   -12186244.332 6  -9403116.153 7
  14892889.043   -11563690.009 7  -8928469.225 9
  18468880.910     6556086.731 4   5076616.779 1
 95  2  7 22 29 59.9800000  0  7 18 16 19 31  2 27 29
  15947127.152     2787063.442 6   2174485.647 7
  18095909.168    -6835842.941 3  -5190547.325 4
  14767693.027    -4745189.044 7  -3656708.863 9
  16203775.395    -2600770.400 6  -1937842.821 6
  15926908.098   -12275138.239 6  -9472384.100 7
  14875738.410   -11653820.291 7  -8998700.592 9
  18481503.770     6622431.859 4   5128314.195 1
 95  2  7 22 30 29.9800000  0  8  7 18 16 19 31  2 27 29
  18476740.981          -0.25315
  15956141.699     2834432.694 6   2211396.741 7
  18090514.949    -6864167.095 3  -5212618.071 3
  14762644.363    -4771729.606 7  -3677389.814 9
  16206092.895    -2588584.481 6  -1928347.290 6
  15910034.879   -12363806.160 6  -9541475.956 7
  14858627.879   -11743746.915 7  -9068773.266 9
  18494142.793     6688868.667 3   5180083.098 1
 95  2  7 22 30 59.9800000  0  8  7 18 16 19 31  2 27 29
  18447818.488     -151988.386 5
  15965219.379     2882139.481 6   2248570.854 6
  18085210.598    -6892033.886 3  -5234332.458 2
  14757638.074    -4798037.845 7  -3697889.735 9
  16208504.418    -2575910.324 6  -1918471.324 6
  15893204.371   -12452247.260 6  -9610391.062 7
  14841551.817   -11833478.343 7  -9138693.844 9
  18506801.692     6755384.636 4   5231913.691 1
 95  2  7 22 31 29.9800000  0  8  7 18 16 19 31  2 27 29
  18418893.613     -303973.976 4        -0.45411
  15974358.707     2930167.590 6   2285995.336 7
  18079999.746    -6919450.138 4  -5255695.783 4
  14752674.543    -4824114.894 7  -3718209.515 9
  16211009.949    -2562742.545 6  -1908210.715 6
  15876423.262   -12540439.264 6  -9679112.080 7
  14824512.723   -11923020.997 7  -9208467.321 9
  18519472.363     6821966.018 4   5283795.200 1
 95  2  7 22 31 59.9790000  0  8  7 18 16 19 31  2 27 29
  18389974.960     -455945.577 3   -118419.718 1
  15983558.171     2978518.809 6   2323671.592 7
  18074875.601    -6946388.884 4  -5276687.046 2
  14747759.398    -4849950.195 7  -3738340.916 9
  16213615.843    -2549050.364 6  -1897541.470 6
  15859694.257   -12628361.618 7  -9747622.971 7
  14807510.030   -12012363.278 7  -9278084.671 9
  18532156.366     6888605.080 3
 95  2  7 22 32 29.9790000  0  8  7 18 16 19 31  2 27 29
  18361055.148     -607915.292 3   -236837.507 1
  15992821.460     3027193.243 6   2361599.710 7
  18069833.069    -6972859.862 4  -5297313.732 3
  14742890.398    -4875540.536 7  -3758281.440 9
  16216324.991    -2534810.806 6  -1886445.728 6
  15843014.351   -12716012.700 6  -9815922.489 7
  14790548.484   -12101497.590 7  -9347539.961 9
  18544848.859     6955318.513 4        -0.40311
